<?xml version="1.0" encoding="UTF-8" standalone="no" ?>
<gpx xmlns="http://www.topografix.com/GPX/1/1" creator="MapSource 6.16.3" version="1.1" xmlns:xsi="http://www.w3.org/2001/XMLSchema-instance" xsi:schemaLocation="http://www.topografix.com/GPX/1/1 http://www.topografix.com/GPX/1/1/gpx.xsd">

  <metadata>
    <link href="http://www.garmin.com">
      <text>Garmin International</text>
    </link>
    <time>2016-08-31T06:27:18Z</time>
    <bounds maxlat="44.109521526843309" maxlon="10.499193454161286" minlat="44.081036048009992" minlon="10.458874152973294"/>
  </metadata>

  <wpt lat="44.109233357012272" lon="10.487749977037311">
    <ele>958</ele>
    <name>002</name>
    <sym>Waypoint</sym>
    <extensions>
      <gpxx:WaypointExtension xmlns:gpxx="http://www.garmin.com/xmlschemas/GpxExtensions/v3">
        <gpxx:DisplayMode>SymbolAndName</gpxx:DisplayMode>
      </gpxx:WaypointExtension>
    </extensions>
  </wpt>

  <wpt lat="44.083183323964477" lon="10.46404997818172">
    <ele>275</ele>
    <name>PARTENZA / ARRIVO</name>
    <sym>Waypoint</sym>
    <extensions>
      <gpxx:WaypointExtension xmlns:gpxx="http://www.garmin.com/xmlschemas/GpxExtensions/v3">
        <gpxx:DisplayMode>SymbolAndName</gpxx:DisplayMode>
      </gpxx:WaypointExtension>
    </extensions>
  </wpt>

  <trk>
    <name>Il Ciocco</name>
    <trkseg>
      <trkpt lat="44.083289271220565" lon="10.464058108627796">
        <ele>273.6324462890625</ele>
        <time>2004-04-03T07:19:03Z</time>
      </trkpt>
      <trkpt lat="44.083172343671322" lon="10.464134803041816">
        <ele>275.074462890625</ele>
        <time>2004-04-03T07:20:41Z</time>
      </trkpt>
      <trkpt lat="44.083148706704378" lon="10.464277882128954">
        <ele>275.074462890625</ele>
        <time>2004-04-03T07:21:04Z</time>
      </trkpt>
      <trkpt lat="44.083102690055966" lon="10.464389026165009">
        <ele>275.074462890625</ele>
        <time>2004-04-03T07:21:08Z</time>
      </trkpt>
      <trkpt lat="44.083068994805217" lon="10.464495811611414">
        <ele>275.5550537109375</ele>
        <time>2004-04-03T07:21:13Z</time>
      </trkpt>
      <trkpt lat="44.083021720871329" lon="10.464570745825768">
        <ele>275.5550537109375</ele>
        <time>2004-04-03T07:21:18Z</time>
      </trkpt>
      <trkpt lat="44.082931531593204" lon="10.464573344215751">
        <ele>274.113037109375</ele>
        <time>2004-04-03T07:21:24Z</time>
      </trkpt>
      <trkpt lat="44.082837402820587" lon="10.464512826874852">
        <ele>274.113037109375</ele>
        <time>2004-04-03T07:21:29Z</time>
      </trkpt>
      <trkpt lat="44.082742854952812" lon="10.464456584304571">
        <ele>273.15185546875</ele>
        <time>2004-04-03T07:21:33Z</time>
      </trkpt>
      <trkpt lat="44.082649648189545" lon="10.464441748335958">
        <ele>272.1904296875</ele>
        <time>2004-04-03T07:21:38Z</time>
      </trkpt>
      <trkpt lat="44.082599859684706" lon="10.464538726955652">
        <ele>272.1904296875</ele>
        <time>2004-04-03T07:21:42Z</time>
      </trkpt>
      <trkpt lat="44.082585191354156" lon="10.464670406654477">
        <ele>272.671142578125</ele>
        <time>2004-04-03T07:21:46Z</time>
      </trkpt>
      <trkpt lat="44.082580413669348" lon="10.464791022241116">
        <ele>273.15185546875</ele>
        <time>2004-04-03T07:21:50Z</time>
      </trkpt>
      <trkpt lat="44.08256096765399" lon="10.464956564828753">
        <ele>274.113037109375</ele>
        <time>2004-04-03T07:21:55Z</time>
      </trkpt>
      <trkpt lat="44.082539258524776" lon="10.465084137395024">
        <ele>274.113037109375</ele>
        <time>2004-04-03T07:21:59Z</time>
      </trkpt>
      <trkpt lat="44.082529786974192" lon="10.465212631970644">
        <ele>275.074462890625</ele>
        <time>2004-04-03T07:22:03Z</time>
      </trkpt>
      <trkpt lat="44.082513190805912" lon="10.465344311669469">
        <ele>275.5550537109375</ele>
        <time>2004-04-03T07:22:07Z</time>
      </trkpt>
      <trkpt lat="44.082503132522106" lon="10.465486971661448">
        <ele>276.03564453125</ele>
        <time>2004-04-03T07:22:11Z</time>
      </trkpt>
      <trkpt lat="44.082477316260338" lon="10.465622674673796">
        <ele>276.516357421875</ele>
        <time>2004-04-03T07:22:15Z</time>
      </trkpt>
      <trkpt lat="44.082468096166849" lon="10.46575971879065">
        <ele>276.516357421875</ele>
        <time>2004-04-03T07:22:19Z</time>
      </trkpt>
      <trkpt lat="44.082444626837969" lon="10.465898104012012">
        <ele>276.516357421875</ele>
        <time>2004-04-03T07:22:23Z</time>
      </trkpt>
      <trkpt lat="44.082422330975533" lon="10.466030957177281">
        <ele>277.4776611328125</ele>
        <time>2004-04-03T07:22:27Z</time>
      </trkpt>
      <trkpt lat="44.082401962950826" lon="10.466166995465755">
        <ele>278.43896484375</ele>
        <time>2004-04-03T07:22:31Z</time>
      </trkpt>
      <trkpt lat="44.082381259649992" lon="10.466301022097468">
        <ele>278.43896484375</ele>
        <time>2004-04-03T07:22:35Z</time>
      </trkpt>
      <trkpt lat="44.082361981272697" lon="10.466428259387612">
        <ele>279.4002685546875</ele>
        <time>2004-04-03T07:22:39Z</time>
      </trkpt>
      <trkpt lat="44.082340188324451" lon="10.46655566431582">
        <ele>279.880859375</ele>
        <time>2004-04-03T07:22:43Z</time>
      </trkpt>
      <trkpt lat="44.082321161404252" lon="10.466686338186264">
        <ele>280.3616943359375</ele>
        <time>2004-04-03T07:22:47Z</time>
      </trkpt>
      <trkpt lat="44.082305151969194" lon="10.466812988743186">
        <ele>280.8424072265625</ele>
        <time>2004-04-03T07:22:51Z</time>
      </trkpt>
      <trkpt lat="44.082288136705756" lon="10.466940812766552">
        <ele>281.322998046875</ele>
        <time>2004-04-03T07:22:55Z</time>
      </trkpt>
      <trkpt lat="44.082273719832301" lon="10.467071235179901">
        <ele>281.8035888671875</ele>
        <time>2004-04-03T07:22:59Z</time>
      </trkpt>
      <trkpt lat="44.082255279645324" lon="10.467202579602599">
        <ele>282.2843017578125</ele>
        <time>2004-04-03T07:23:03Z</time>
      </trkpt>
      <trkpt lat="44.082235749810934" lon="10.467335181310773">
        <ele>283.24560546875</ele>
        <time>2004-04-03T07:23:07Z</time>
      </trkpt>
      <trkpt lat="44.082219991832972" lon="10.467469459399581">
        <ele>283.7261962890625</ele>
        <time>2004-04-03T07:23:11Z</time>
      </trkpt>
      <trkpt lat="44.082200126722455" lon="10.467603402212262">
        <ele>284.2069091796875</ele>
        <time>2004-04-03T07:23:15Z</time>
      </trkpt>
      <trkpt lat="44.082182021811604" lon="10.467740278691053">
        <ele>284.6876220703125</ele>
        <time>2004-04-03T07:23:19Z</time>
      </trkpt>
      <trkpt lat="44.082159055396914" lon="10.467871287837625">
        <ele>285.168212890625</ele>
        <time>2004-04-03T07:23:23Z</time>
      </trkpt>
      <trkpt lat="44.082137430086732" lon="10.468014869838953">
        <ele>285.6488037109375</ele>
        <time>2004-04-03T07:23:27Z</time>
      </trkpt>
      <trkpt lat="44.082123013213277" lon="10.468155769631267">
        <ele>286.1295166015625</ele>
        <time>2004-04-03T07:23:31Z</time>
      </trkpt>
      <trkpt lat="44.082109937444329" lon="10.468292478471994">
        <ele>287.0908203125</ele>
        <time>2004-04-03T07:23:35Z</time>
      </trkpt>
      <trkpt lat="44.082090072333813" lon="10.468426756560802">
        <ele>287.0908203125</ele>
        <time>2004-04-03T07:23:39Z</time>
      </trkpt>
      <trkpt lat="44.082067189738154" lon="10.468566482886672">
        <ele>288.05224609375</ele>
        <time>2004-04-03T07:23:43Z</time>
      </trkpt>
      <trkpt lat="44.082049420103431" lon="10.468662288039923">
        <ele>288.532958984375</ele>
        <time>2004-04-03T07:23:50Z</time>
      </trkpt>
      <trkpt lat="44.082031985744834" lon="10.468828333541751">
        <ele>288.532958984375</ele>
        <time>2004-04-03T07:24:00Z</time>
      </trkpt>
      <trkpt lat="44.082014635205269" lon="10.468959510326385">
        <ele>289.974853515625</ele>
        <time>2004-04-03T07:24:04Z</time>
      </trkpt>
      <trkpt lat="44.08199611119926" lon="10.469098147004843">
        <ele>289.974853515625</ele>
        <time>2004-04-03T07:24:08Z</time>
      </trkpt>
      <trkpt lat="44.081979347392917" lon="10.469234604388475">
        <ele>290.9361572265625</ele>
        <time>2004-04-03T07:24:12Z</time>
      </trkpt>
      <trkpt lat="44.081964595243335" lon="10.469369133934379">
        <ele>291.416748046875</ele>
        <time>2004-04-03T07:24:16Z</time>
      </trkpt>
      <trkpt lat="44.081940036267042" lon="10.469504753127694">
        <ele>291.8974609375</ele>
        <time>2004-04-03T07:24:20Z</time>
      </trkpt>
      <trkpt lat="44.081913465633988" lon="10.469651352614164">
        <ele>292.8587646484375</ele>
        <time>2004-04-03T07:24:24Z</time>
      </trkpt>
      <trkpt lat="44.081875495612621" lon="10.469790492206812">
        <ele>293.33935546875</ele>
        <time>2004-04-03T07:24:28Z</time>
      </trkpt>
      <trkpt lat="44.081820845603943" lon="10.469935666769743">
        <ele>293.820068359375</ele>
        <time>2004-04-03T07:24:32Z</time>
      </trkpt>
      <trkpt lat="44.081768207252026" lon="10.470082936808467">
        <ele>294.7813720703125</ele>
        <time>2004-04-03T07:24:36Z</time>
      </trkpt>
      <trkpt lat="44.081717748194933" lon="10.470231967046857">
        <ele>294.7813720703125</ele>
        <time>2004-04-03T07:24:40Z</time>
      </trkpt>
      <trkpt lat="44.081679861992598" lon="10.470347218215466">
        <ele>295.74267578125</ele>
        <time>2004-04-03T07:24:43Z</time>
      </trkpt>
      <trkpt lat="44.081640718504786" lon="10.470461128279567">
        <ele>296.2235107421875</ele>
        <time>2004-04-03T07:24:46Z</time>
      </trkpt>
      <trkpt lat="44.081591265276074" lon="10.470616780221462">
        <ele>296.7041015625</ele>
        <time>2004-04-03T07:24:50Z</time>
      </trkpt>
      <trkpt lat="44.081557150930166" lon="10.470735300332308">
        <ele>297.6654052734375</ele>
        <time>2004-04-03T07:24:53Z</time>
      </trkpt>
      <trkpt lat="44.081526976078749" lon="10.470859184861183">
        <ele>298.1461181640625</ele>
        <time>2004-04-03T07:24:56Z</time>
      </trkpt>
      <trkpt lat="44.081497052684426" lon="10.470987092703581">
        <ele>298.1461181640625</ele>
        <time>2004-04-03T07:24:59Z</time>
      </trkpt>
      <trkpt lat="44.08146595582366" lon="10.471114246174693">
        <ele>298.626708984375</ele>
        <time>2004-04-03T07:25:02Z</time>
      </trkpt>
      <trkpt lat="44.08143519423902" lon="10.471249613910913">
        <ele>299.5880126953125</ele>
        <time>2004-04-03T07:25:05Z</time>
      </trkpt>
      <trkpt lat="44.081399906426668" lon="10.471387077122927">
        <ele>299.5880126953125</ele>
        <time>2004-04-03T07:25:08Z</time>
      </trkpt>
      <trkpt lat="44.081368558108807" lon="10.471527557820082">
        <ele>300.0687255859375</ele>
        <time>2004-04-03T07:25:11Z</time>
      </trkpt>
      <trkpt lat="44.081338550895452" lon="10.471666110679507">
        <ele>300.54931640625</ele>
        <time>2004-04-03T07:25:14Z</time>
      </trkpt>
      <trkpt lat="44.081307789310813" lon="10.471800807863474">
        <ele>301.0299072265625</ele>
        <time>2004-04-03T07:25:17Z</time>
      </trkpt>
      <trkpt lat="44.081284822896123" lon="10.471937181428075">
        <ele>301.5106201171875</ele>
        <time>2004-04-03T07:25:20Z</time>
      </trkpt>
      <trkpt lat="44.081270238384604" lon="10.472081182524562">
        <ele>301.5106201171875</ele>
        <time>2004-04-03T07:25:23Z</time>
      </trkpt>
      <trkpt lat="44.081265795975924" lon="10.472229793667793">
        <ele>302.9525146484375</ele>
        <time>2004-04-03T07:25:26Z</time>
      </trkpt>
      <trkpt lat="44.081266298890114" lon="10.472378404811025">
        <ele>302.9525146484375</ele>
        <time>2004-04-03T07:25:29Z</time>
      </trkpt>
      <trkpt lat="44.081266550347209" lon="10.472525088116527">
        <ele>303.4332275390625</ele>
        <time>2004-04-03T07:25:32Z</time>
      </trkpt>
      <trkpt lat="44.08126562833786" lon="10.472671519964933">
        <ele>303.9139404296875</ele>
        <time>2004-04-03T07:25:35Z</time>
      </trkpt>
      <trkpt lat="44.081268142908812" lon="10.472814347594976">
        <ele>304.3946533203125</ele>
        <time>2004-04-03T07:25:38Z</time>
      </trkpt>
      <trkpt lat="44.081268813461065" lon="10.472957845777273">
        <ele>305.35595703125</ele>
        <time>2004-04-03T07:25:41Z</time>
      </trkpt>
      <trkpt lat="44.081269232556224" lon="10.473101176321507">
        <ele>305.35595703125</ele>
        <time>2004-04-03T07:25:44Z</time>
      </trkpt>
      <trkpt lat="44.081267220899463" lon="10.473242159932852">
        <ele>305.836669921875</ele>
        <time>2004-04-03T07:25:47Z</time>
      </trkpt>
      <trkpt lat="44.081269232556224" lon="10.473389262333512">
        <ele>306.3172607421875</ele>
        <time>2004-04-03T07:25:50Z</time>
      </trkpt>
      <trkpt lat="44.081271160393953" lon="10.473538041114807">
        <ele>306.7978515625</ele>
        <time>2004-04-03T07:25:53Z</time>
      </trkpt>
      <trkpt lat="44.081274513155222" lon="10.473689418286085">
        <ele>307.278564453125</ele>
        <time>2004-04-03T07:25:56Z</time>
      </trkpt>
      <trkpt lat="44.081272920593619" lon="10.473839789628983">
        <ele>307.75927734375</ele>
        <time>2004-04-03T07:25:59Z</time>
      </trkpt>
      <trkpt lat="44.081266634166241" lon="10.473994519561529">
        <ele>307.75927734375</ele>
        <time>2004-04-03T07:26:02Z</time>
      </trkpt>
      <trkpt lat="44.08125339075923" lon="10.474146399646997">
        <ele>308.2398681640625</ele>
        <time>2004-04-03T07:26:05Z</time>
      </trkpt>
      <trkpt lat="44.081236207857728" lon="10.474299117922783">
        <ele>308.2398681640625</ele>
        <time>2004-04-03T07:26:08Z</time>
      </trkpt>
      <trkpt lat="44.081216175109148" lon="10.474448567256331">
        <ele>309.201171875</ele>
        <time>2004-04-03T07:26:11Z</time>
      </trkpt>
      <trkpt lat="44.081197651103139" lon="10.474594328552485">
        <ele>309.201171875</ele>
        <time>2004-04-03T07:26:14Z</time>
      </trkpt>
      <trkpt lat="44.081177785992622" lon="10.474740257486701">
        <ele>310.1624755859375</ele>
        <time>2004-04-03T07:26:17Z</time>
      </trkpt>
      <trkpt lat="44.081157669425011" lon="10.474879397079349">
        <ele>309.681884765625</ele>
        <time>2004-04-03T07:26:20Z</time>
      </trkpt>
      <trkpt lat="44.081139899790287" lon="10.475011831149459">
        <ele>310.64306640625</ele>
        <time>2004-04-03T07:26:23Z</time>
      </trkpt>
      <trkpt lat="44.081126321107149" lon="10.475145606324077">
        <ele>311.123779296875</ele>
        <time>2004-04-03T07:26:26Z</time>
      </trkpt>
      <trkpt lat="44.081109557300806" lon="10.475279800593853">
        <ele>311.6044921875</ele>
        <time>2004-04-03T07:26:29Z</time>
      </trkpt>
      <trkpt lat="44.081092458218336" lon="10.475413827225566">
        <ele>312.085205078125</ele>
        <time>2004-04-03T07:26:32Z</time>
      </trkpt>
      <trkpt lat="44.081075359135866" lon="10.475545506924391">
        <ele>312.085205078125</ele>
        <time>2004-04-03T07:26:35Z</time>
      </trkpt>
      <trkpt lat="44.08105649985373" lon="10.475676599889994">
        <ele>313.0465087890625</ele>
        <time>2004-04-03T07:26:38Z</time>
      </trkpt>
      <trkpt lat="44.081041663885117" lon="10.475807525217533">
        <ele>313.5272216796875</ele>
        <time>2004-04-03T07:26:41Z</time>
      </trkpt>
      <trkpt lat="44.081036048009992" lon="10.475937779992819">
        <ele>313.5272216796875</ele>
        <time>2004-04-03T07:26:44Z</time>
      </trkpt>
      <trkpt lat="44.081056751310825" lon="10.476061664521694">
        <ele>314.0078125</ele>
        <time>2004-04-03T07:26:47Z</time>
      </trkpt>
      <trkpt lat="44.081125734373927" lon="10.476154033094645">
        <ele>314.4884033203125</ele>
        <time>2004-04-03T07:26:50Z</time>
      </trkpt>
      <trkpt lat="44.081216342747211" lon="10.476208599284291">
        <ele>314.9691162109375</ele>
        <time>2004-04-03T07:26:53Z</time>
      </trkpt>
      <trkpt lat="44.081316506490111" lon="10.476235840469599">
        <ele>315.4498291015625</ele>
        <time>2004-04-03T07:26:56Z</time>
      </trkpt>
      <trkpt lat="44.081416418775916" lon="10.4762530233711">
        <ele>315.930419921875</ele>
        <time>2004-04-03T07:26:59Z</time>
      </trkpt>
      <trkpt lat="44.081515241414309" lon="10.476273559033871">
        <ele>315.930419921875</ele>
        <time>2004-04-03T07:27:02Z</time>
      </trkpt>
      <trkpt lat="44.081614734604955" lon="10.476313037797809">
        <ele>315.930419921875</ele>
        <time>2004-04-03T07:27:05Z</time>
      </trkpt>
      <trkpt lat="44.081705762073398" lon="10.476366598159075">
        <ele>317.3724365234375</ele>
        <time>2004-04-03T07:27:08Z</time>
      </trkpt>
      <trkpt lat="44.081781785935163" lon="10.47644941136241">
        <ele>317.85302734375</ele>
        <time>2004-04-03T07:27:11Z</time>
      </trkpt>
      <trkpt lat="44.081836855039001" lon="10.476560303941369">
        <ele>317.85302734375</ele>
        <time>2004-04-03T07:27:14Z</time>
      </trkpt>
      <trkpt lat="44.0818783454597" lon="10.47669131308794">
        <ele>318.8143310546875</ele>
        <time>2004-04-03T07:27:17Z</time>
      </trkpt>
      <trkpt lat="44.081918997690082" lon="10.476824333891273">
        <ele>318.8143310546875</ele>
        <time>2004-04-03T07:27:20Z</time>
      </trkpt>
      <trkpt lat="44.081960571929812" lon="10.47695810906589">
        <ele>318.8143310546875</ele>
        <time>2004-04-03T07:27:23Z</time>
      </trkpt>
      <trkpt lat="44.081997284665704" lon="10.477096578106284">
        <ele>319.2950439453125</ele>
        <time>2004-04-03T07:27:26Z</time>
      </trkpt>
      <trkpt lat="44.082035254687071" lon="10.477231610566378">
        <ele>319.775634765625</ele>
        <time>2004-04-03T07:27:29Z</time>
      </trkpt>
      <trkpt lat="44.08206601627171" lon="10.477371839806437">
        <ele>320.25634765625</ele>
        <time>2004-04-03T07:27:32Z</time>
      </trkpt>
      <trkpt lat="44.082083199173212" lon="10.477517936378717">
        <ele>320.25634765625</ele>
        <time>2004-04-03T07:27:35Z</time>
      </trkpt>
      <trkpt lat="44.082072889432311" lon="10.477668810635805">
        <ele>320.737060546875</ele>
        <time>2004-04-03T07:27:38Z</time>
      </trkpt>
      <trkpt lat="44.082042295485735" lon="10.47781272791326">
        <ele>320.737060546875</ele>
        <time>2004-04-03T07:27:41Z</time>
      </trkpt>
      <trkpt lat="44.082007594406605" lon="10.477943820878863">
        <ele>321.2177734375</ele>
        <time>2004-04-03T07:27:44Z</time>
      </trkpt>
      <trkpt lat="44.081960991024971" lon="10.478064939379692">
        <ele>322.178955078125</ele>
        <time>2004-04-03T07:27:47Z</time>
      </trkpt>
      <trkpt lat="44.081913297995925" lon="10.478200977668166">
        <ele>323.140380859375</ele>
        <time>2004-04-03T07:27:50Z</time>
      </trkpt>
      <trkpt lat="44.081878429278731" lon="10.478340703994036">
        <ele>323.6209716796875</ele>
        <time>2004-04-03T07:27:53Z</time>
      </trkpt>
      <trkpt lat="44.081855295225978" lon="10.478481771424413">
        <ele>324.1015625</ele>
        <time>2004-04-03T07:27:56Z</time>
      </trkpt>
      <trkpt lat="44.081840040162206" lon="10.478623006492853">
        <ele>324.1015625</ele>
        <time>2004-04-03T07:27:59Z</time>
      </trkpt>
      <trkpt lat="44.081829059869051" lon="10.478762229904532">
        <ele>324.582275390625</ele>
        <time>2004-04-03T07:28:02Z</time>
      </trkpt>
      <trkpt lat="44.081821264699101" lon="10.478902123868465">
        <ele>325.06298828125</ele>
        <time>2004-04-03T07:28:05Z</time>
      </trkpt>
      <trkpt lat="44.081812296062708" lon="10.479042017832398">
        <ele>325.5435791015625</ele>
        <time>2004-04-03T07:28:08Z</time>
      </trkpt>
      <trkpt lat="44.081800309941173" lon="10.479183588176966">
        <ele>326.024169921875</ele>
        <time>2004-04-03T07:28:11Z</time>
      </trkpt>
      <trkpt lat="44.081779355183244" lon="10.479321051388979">
        <ele>326.024169921875</ele>
        <time>2004-04-03T07:28:14Z</time>
      </trkpt>
      <trkpt lat="44.081752868369222" lon="10.479457005858421">
        <ele>326.985595703125</ele>
        <time>2004-04-03T07:28:17Z</time>
      </trkpt>
      <trkpt lat="44.081720346584916" lon="10.479588937014341">
        <ele>326.985595703125</ele>
        <time>2004-04-03T07:28:20Z</time>
      </trkpt>
      <trkpt lat="44.08168924972415" lon="10.4797188565135">
        <ele>327.4661865234375</ele>
        <time>2004-04-03T07:28:23Z</time>
      </trkpt>
      <trkpt lat="44.081656476482749" lon="10.479848105460405">
        <ele>328.4276123046875</ele>
        <time>2004-04-03T07:28:26Z</time>
      </trkpt>
      <trkpt lat="44.081621272489429" lon="10.479968134313822">
        <ele>328.4276123046875</ele>
        <time>2004-04-03T07:28:29Z</time>
      </trkpt>
      <trkpt lat="44.081582883372903" lon="10.48009067773819">
        <ele>329.388916015625</ele>
        <time>2004-04-03T07:28:32Z</time>
      </trkpt>
      <trkpt lat="44.081557234749198" lon="10.480224201455712">
        <ele>329.8695068359375</ele>
        <time>2004-04-03T07:28:35Z</time>
      </trkpt>
      <trkpt lat="44.081573579460382" lon="10.480353450402617">
        <ele>330.3502197265625</ele>
        <time>2004-04-03T07:28:38Z</time>
      </trkpt>
      <trkpt lat="44.08166041597724" lon="10.480481944978237">
        <ele>330.3502197265625</ele>
        <time>2004-04-03T07:28:42Z</time>
      </trkpt>
      <trkpt lat="44.081756975501776" lon="10.480554616078734">
        <ele>330.8309326171875</ele>
        <time>2004-04-03T07:28:45Z</time>
      </trkpt>
      <trkpt lat="44.081854121759534" lon="10.480619575828314">
        <ele>331.7921142578125</ele>
        <time>2004-04-03T07:28:48Z</time>
      </trkpt>
      <trkpt lat="44.081951854750514" lon="10.480687553063035">
        <ele>331.7921142578125</ele>
        <time>2004-04-03T07:28:51Z</time>
      </trkpt>
      <trkpt lat="44.082053191959858" lon="10.480756033211946">
        <ele>332.2728271484375</ele>
        <time>2004-04-03T07:28:54Z</time>
      </trkpt>
      <trkpt lat="44.082154612988234" lon="10.480826776474714">
        <ele>332.2728271484375</ele>
        <time>2004-04-03T07:28:57Z</time>
      </trkpt>
      <trkpt lat="44.08225754275918" lon="10.480898944661021">
        <ele>332.7535400390625</ele>
        <time>2004-04-03T07:29:00Z</time>
      </trkpt>
      <trkpt lat="44.082360891625285" lon="10.480973795056343">
        <ele>332.7535400390625</ele>
        <time>2004-04-03T07:29:03Z</time>
      </trkpt>
      <trkpt lat="44.082466755062342" lon="10.481047220528126">
        <ele>333.234130859375</ele>
        <time>2004-04-03T07:29:06Z</time>
      </trkpt>
      <trkpt lat="44.082575300708413" lon="10.481120310723782">
        <ele>333.7147216796875</ele>
        <time>2004-04-03T07:29:09Z</time>
      </trkpt>
      <trkpt lat="44.082683511078358" lon="10.481197591871023">
        <ele>333.7147216796875</ele>
        <time>2004-04-03T07:29:12Z</time>
      </trkpt>
      <trkpt lat="44.082792392000556" lon="10.481272777542472">
        <ele>334.1954345703125</ele>
        <time>2004-04-03T07:29:15Z</time>
      </trkpt>
      <trkpt lat="44.082898842170835" lon="10.481352489441633">
        <ele>334.1954345703125</ele>
        <time>2004-04-03T07:29:18Z</time>
      </trkpt>
      <trkpt lat="44.083008309826255" lon="10.48142951913178">
        <ele>334.1954345703125</ele>
        <time>2004-04-03T07:29:21Z</time>
      </trkpt>
      <trkpt lat="44.083130853250623" lon="10.48149305395782">
        <ele>334.6761474609375</ele>
        <time>2004-04-03T07:29:24Z</time>
      </trkpt>
      <trkpt lat="44.08324652351439" lon="10.481565138325095">
        <ele>334.6761474609375</ele>
        <time>2004-04-03T07:29:27Z</time>
      </trkpt>
      <trkpt lat="44.083358505740762" lon="10.481643592938781">
        <ele>334.6761474609375</ele>
        <time>2004-04-03T07:29:30Z</time>
      </trkpt>
      <trkpt lat="44.083437211811543" lon="10.481777619570494">
        <ele>335.15673828125</ele>
        <time>2004-04-03T07:29:33Z</time>
      </trkpt>
      <trkpt lat="44.083460764959455" lon="10.481943162158132">
        <ele>335.6373291015625</ele>
        <time>2004-04-03T07:29:36Z</time>
      </trkpt>
      <trkpt lat="44.083416592329741" lon="10.482096802443266">
        <ele>335.6373291015625</ele>
        <time>2004-04-03T07:29:39Z</time>
      </trkpt>
      <trkpt lat="44.083320954814553" lon="10.482204593718052">
        <ele>336.1181640625</ele>
        <time>2004-04-03T07:29:42Z</time>
      </trkpt>
      <trkpt lat="44.083220874890685" lon="10.482304925099015">
        <ele>337.0794677734375</ele>
        <time>2004-04-03T07:29:45Z</time>
      </trkpt>
      <trkpt lat="44.083116687834263" lon="10.482396706938744">
        <ele>337.56005859375</ele>
        <time>2004-04-03T07:29:48Z</time>
      </trkpt>
      <trkpt lat="44.083013590425253" lon="10.482491003349423">
        <ele>337.56005859375</ele>
        <time>2004-04-03T07:29:51Z</time>
      </trkpt>
      <trkpt lat="44.082912588492036" lon="10.482588317245245">
        <ele>338.040771484375</ele>
        <time>2004-04-03T07:29:54Z</time>
      </trkpt>
      <trkpt lat="44.082814184948802" lon="10.482688061892986">
        <ele>338.521484375</ele>
        <time>2004-04-03T07:29:57Z</time>
      </trkpt>
      <trkpt lat="44.082708740606904" lon="10.482782442122698">
        <ele>338.521484375</ele>
        <time>2004-04-03T07:30:00Z</time>
      </trkpt>
      <trkpt lat="44.082600781694055" lon="10.482859723269939">
        <ele>338.521484375</ele>
        <time>2004-04-03T07:30:03Z</time>
      </trkpt>
      <trkpt lat="44.082486536353827" lon="10.482920072972775">
        <ele>338.040771484375</ele>
        <time>2004-04-03T07:30:06Z</time>
      </trkpt>
      <trkpt lat="44.082366591319442" lon="10.482951924204826">
        <ele>338.521484375</ele>
        <time>2004-04-03T07:30:09Z</time>
      </trkpt>
      <trkpt lat="44.082251759245992" lon="10.482975644990802">
        <ele>339.0020751953125</ele>
        <time>2004-04-03T07:30:12Z</time>
      </trkpt>
      <trkpt lat="44.082138435915112" lon="10.483006574213505">
        <ele>339.482666015625</ele>
        <time>2004-04-03T07:30:15Z</time>
      </trkpt>
      <trkpt lat="44.082076828926802" lon="10.483067343011498">
        <ele>339.482666015625</ele>
        <time>2004-04-03T07:30:17Z</time>
      </trkpt>
      <trkpt lat="44.082033075392246" lon="10.483219642192125">
        <ele>339.96337890625</ele>
        <time>2004-04-03T07:30:20Z</time>
      </trkpt>
      <trkpt lat="44.082043133676052" lon="10.483395662158728">
        <ele>339.482666015625</ele>
        <time>2004-04-03T07:30:23Z</time>
      </trkpt>
      <trkpt lat="44.082070542499423" lon="10.483570843935013">
        <ele>339.96337890625</ele>
        <time>2004-04-03T07:30:26Z</time>
      </trkpt>
      <trkpt lat="44.082101304084063" lon="10.483738230541348">
        <ele>339.482666015625</ele>
        <time>2004-04-03T07:30:29Z</time>
      </trkpt>
      <trkpt lat="44.082135166972876" lon="10.483904276043177">
        <ele>340.444091796875</ele>
        <time>2004-04-03T07:30:32Z</time>
      </trkpt>
      <trkpt lat="44.082183949649334" lon="10.484057916328311">
        <ele>340.444091796875</ele>
        <time>2004-04-03T07:30:35Z</time>
      </trkpt>
      <trkpt lat="44.08223457634449" lon="10.484206192195415">
        <ele>340.444091796875</ele>
        <time>2004-04-03T07:30:38Z</time>
      </trkpt>
      <trkpt lat="44.082287298515439" lon="10.484357569366693">
        <ele>340.9246826171875</ele>
        <time>2004-04-03T07:30:41Z</time>
      </trkpt>
      <trkpt lat="44.082342451438308" lon="10.484509952366352">
        <ele>341.4052734375</ele>
        <time>2004-04-03T07:30:44Z</time>
      </trkpt>
      <trkpt lat="44.082397101446986" lon="10.484666442498565">
        <ele>341.4052734375</ele>
        <time>2004-04-03T07:30:47Z</time>
      </trkpt>
      <trkpt lat="44.082448901608586" lon="10.484830727800727">
        <ele>341.4052734375</ele>
        <time>2004-04-03T07:30:50Z</time>
      </trkpt>
      <trkpt lat="44.082481088116765" lon="10.484940446913242">
        <ele>341.4052734375</ele>
        <time>2004-04-03T07:30:52Z</time>
      </trkpt>
      <trkpt lat="44.082499863579869" lon="10.48511428758502">
        <ele>341.4052734375</ele>
        <time>2004-04-03T07:30:55Z</time>
      </trkpt>
      <trkpt lat="44.082495253533125" lon="10.485288044437766">
        <ele>341.885986328125</ele>
        <time>2004-04-03T07:30:58Z</time>
      </trkpt>
      <trkpt lat="44.082471868023276" lon="10.485399188473821">
        <ele>342.36669921875</ele>
        <time>2004-04-03T07:31:00Z</time>
      </trkpt>
      <trkpt lat="44.082425264641643" lon="10.485559618100524">
        <ele>342.36669921875</ele>
        <time>2004-04-03T07:31:03Z</time>
      </trkpt>
      <trkpt lat="44.082378493621945" lon="10.485715186223388">
        <ele>342.8472900390625</ele>
        <time>2004-04-03T07:31:06Z</time>
      </trkpt>
      <trkpt lat="44.082337506115437" lon="10.485864887014031">
        <ele>342.8472900390625</ele>
        <time>2004-04-03T07:31:09Z</time>
      </trkpt>
      <trkpt lat="44.082295596599579" lon="10.486015677452087">
        <ele>343.327880859375</ele>
        <time>2004-04-03T07:31:12Z</time>
      </trkpt>
      <trkpt lat="44.082255950197577" lon="10.486166048794985">
        <ele>343.80859375</ele>
        <time>2004-04-03T07:31:15Z</time>
      </trkpt>
      <trkpt lat="44.082253854721785" lon="10.486327148973942">
        <ele>344.77001953125</ele>
        <time>2004-04-03T07:31:18Z</time>
      </trkpt>
      <trkpt lat="44.082316467538476" lon="10.486476179212332">
        <ele>344.2894287109375</ele>
        <time>2004-04-03T07:31:21Z</time>
      </trkpt>
      <trkpt lat="44.082399532198906" lon="10.486596710979939">
        <ele>344.77001953125</ele>
        <time>2004-04-03T07:31:24Z</time>
      </trkpt>
      <trkpt lat="44.082479411736131" lon="10.486706681549549">
        <ele>345.2506103515625</ele>
        <time>2004-04-03T07:31:27Z</time>
      </trkpt>
      <trkpt lat="44.082557866349816" lon="10.486805588006973">
        <ele>345.7313232421875</ele>
        <time>2004-04-03T07:31:30Z</time>
      </trkpt>
      <trkpt lat="44.082629699259996" lon="10.486898375675082">
        <ele>346.2120361328125</ele>
        <time>2004-04-03T07:31:33Z</time>
      </trkpt>
      <trkpt lat="44.082697089761496" lon="10.486987978219986">
        <ele>346.692626953125</ele>
        <time>2004-04-03T07:31:36Z</time>
      </trkpt>
      <trkpt lat="44.082765402272344" lon="10.487077413126826">
        <ele>346.692626953125</ele>
        <time>2004-04-03T07:31:39Z</time>
      </trkpt>
      <trkpt lat="44.082838827744126" lon="10.487170033156872">
        <ele>347.1732177734375</ele>
        <time>2004-04-03T07:31:42Z</time>
      </trkpt>
      <trkpt lat="44.082909738644958" lon="10.487268185243011">
        <ele>348.1346435546875</ele>
        <time>2004-04-03T07:31:45Z</time>
      </trkpt>
      <trkpt lat="44.082982493564487" lon="10.487387208268046">
        <ele>348.1346435546875</ele>
        <time>2004-04-03T07:31:48Z</time>
      </trkpt>
      <trkpt lat="44.083052901551127" lon="10.4875173792243">
        <ele>348.1346435546875</ele>
        <time>2004-04-03T07:31:51Z</time>
      </trkpt>
      <trkpt lat="44.083118280395865" lon="10.48764243721962">
        <ele>349.5765380859375</ele>
        <time>2004-04-03T07:31:54Z</time>
      </trkpt>
      <trkpt lat="44.08318055793643" lon="10.487765064463019">
        <ele>349.5765380859375</ele>
        <time>2004-04-03T07:31:57Z</time>
      </trkpt>
      <trkpt lat="44.083243757486343" lon="10.487886602059007">
        <ele>350.0572509765625</ele>
        <time>2004-04-03T07:32:00Z</time>
      </trkpt>
      <trkpt lat="44.083304358646274" lon="10.4880181979388">
        <ele>350.537841796875</ele>
        <time>2004-04-03T07:32:03Z</time>
      </trkpt>
      <trkpt lat="44.083342999219894" lon="10.488148955628276">
        <ele>351.0184326171875</ele>
        <time>2004-04-03T07:32:06Z</time>
      </trkpt>
      <trkpt lat="44.08337845467031" lon="10.488266972824931">
        <ele>351.4991455078125</ele>
        <time>2004-04-03T07:32:09Z</time>
      </trkpt>
      <trkpt lat="44.083423968404531" lon="10.488419020548463">
        <ele>351.9798583984375</ele>
        <time>2004-04-03T07:32:13Z</time>
      </trkpt>
      <trkpt lat="44.083464201539755" lon="10.488572744652629">
        <ele>351.9798583984375</ele>
        <time>2004-04-03T07:32:17Z</time>
      </trkpt>
      <trkpt lat="44.083501668646932" lon="10.488712638616562">
        <ele>352.4605712890625</ele>
        <time>2004-04-03T07:32:21Z</time>
      </trkpt>
      <trkpt lat="44.083529831841588" lon="10.488845324143767">
        <ele>352.941162109375</ele>
        <time>2004-04-03T07:32:27Z</time>
      </trkpt>
      <trkpt lat="44.083476439118385" lon="10.488947751000524">
        <ele>352.941162109375</ele>
        <time>2004-04-03T07:32:34Z</time>
      </trkpt>
      <trkpt lat="44.08341608941555" lon="10.489060990512371">
        <ele>352.941162109375</ele>
        <time>2004-04-03T07:32:41Z</time>
      </trkpt>
      <trkpt lat="44.083376359194517" lon="10.48917330801487">
        <ele>352.4605712890625</ele>
        <time>2004-04-03T07:32:49Z</time>
      </trkpt>
      <trkpt lat="44.08332179300487" lon="10.489302221685648">
        <ele>353.421875</ele>
        <time>2004-04-03T07:32:54Z</time>
      </trkpt>
      <trkpt lat="44.083283403888345" lon="10.489440942183137">
        <ele>353.902587890625</ele>
        <time>2004-04-03T07:32:58Z</time>
      </trkpt>
      <trkpt lat="44.083339478820562" lon="10.489595839753747">
        <ele>353.902587890625</ele>
        <time>2004-04-03T07:33:02Z</time>
      </trkpt>
      <trkpt lat="44.083395386114717" lon="10.489708660170436">
        <ele>354.3831787109375</ele>
        <time>2004-04-03T07:33:05Z</time>
      </trkpt>
      <trkpt lat="44.083454394713044" lon="10.489811757579446">
        <ele>354.86376953125</ele>
        <time>2004-04-03T07:33:08Z</time>
      </trkpt>
      <trkpt lat="44.083522539585829" lon="10.489909071475267">
        <ele>355.8251953125</ele>
        <time>2004-04-03T07:33:11Z</time>
      </trkpt>
      <trkpt lat="44.08359101973474" lon="10.490008816123009">
        <ele>356.3057861328125</ele>
        <time>2004-04-03T07:33:14Z</time>
      </trkpt>
      <trkpt lat="44.083662685006857" lon="10.490102777257562">
        <ele>356.3057861328125</ele>
        <time>2004-04-03T07:33:17Z</time>
      </trkpt>
      <trkpt lat="44.083733428269625" lon="10.490186763927341">
        <ele>356.3057861328125</ele>
        <time>2004-04-03T07:33:20Z</time>
      </trkpt>
      <trkpt lat="44.083812050521374" lon="10.490261446684599">
        <ele>357.26708984375</ele>
        <time>2004-04-03T07:33:23Z</time>
      </trkpt>
      <trkpt lat="44.083896037191153" lon="10.49033286049962">
        <ele>357.26708984375</ele>
        <time>2004-04-03T07:33:26Z</time>
      </trkpt>
      <trkpt lat="44.083969295024872" lon="10.490434365347028">
        <ele>357.747802734375</ele>
        <time>2004-04-03T07:33:29Z</time>
      </trkpt>
      <trkpt lat="44.084027297794819" lon="10.4905497841537">
        <ele>358.708984375</ele>
        <time>2004-04-03T07:33:32Z</time>
      </trkpt>
      <trkpt lat="44.084061831235886" lon="10.490680960938334">
        <ele>358.2283935546875</ele>
        <time>2004-04-03T07:33:35Z</time>
      </trkpt>
      <trkpt lat="44.084084630012512" lon="10.490815993398428">
        <ele>358.2283935546875</ele>
        <time>2004-04-03T07:33:38Z</time>
      </trkpt>
      <trkpt lat="44.084102651104331" lon="10.490950187668204">
        <ele>359.189697265625</ele>
        <time>2004-04-03T07:33:41Z</time>
      </trkpt>
      <trkpt lat="44.084129137918353" lon="10.491074994206429">
        <ele>359.189697265625</ele>
        <time>2004-04-03T07:33:44Z</time>
      </trkpt>
      <trkpt lat="44.084191499277949" lon="10.491169458255172">
        <ele>360.151123046875</ele>
        <time>2004-04-03T07:33:47Z</time>
      </trkpt>
      <trkpt lat="44.084270121529698" lon="10.49125486984849">
        <ele>360.6317138671875</ele>
        <time>2004-04-03T07:33:50Z</time>
      </trkpt>
      <trkpt lat="44.084347570315003" lon="10.491344220936298">
        <ele>360.6317138671875</ele>
        <time>2004-04-03T07:33:53Z</time>
      </trkpt>
      <trkpt lat="44.08442510291934" lon="10.491433655843139">
        <ele>360.6317138671875</ele>
        <time>2004-04-03T07:33:56Z</time>
      </trkpt>
      <trkpt lat="44.084502551704645" lon="10.491523006930947">
        <ele>360.6317138671875</ele>
        <time>2004-04-03T07:33:59Z</time>
      </trkpt>
      <trkpt lat="44.084575558081269" lon="10.491617051884532">
        <ele>361.1124267578125</ele>
        <time>2004-04-03T07:34:02Z</time>
      </trkpt>
      <trkpt lat="44.0846464689821" lon="10.491712857037783">
        <ele>362.07373046875</ele>
        <time>2004-04-03T07:34:05Z</time>
      </trkpt>
      <trkpt lat="44.084714697673917" lon="10.491812936961651">
        <ele>362.07373046875</ele>
        <time>2004-04-03T07:34:08Z</time>
      </trkpt>
      <trkpt lat="44.084778819233179" lon="10.491915950551629">
        <ele>362.5543212890625</ele>
        <time>2004-04-03T07:34:11Z</time>
      </trkpt>
      <trkpt lat="44.084830451756716" lon="10.492031536996365">
        <ele>362.5543212890625</ele>
        <time>2004-04-03T07:34:14Z</time>
      </trkpt>
      <trkpt lat="44.084886945784092" lon="10.492145279422402">
        <ele>362.5543212890625</ele>
        <time>2004-04-03T07:34:17Z</time>
      </trkpt>
      <trkpt lat="44.084947966039181" lon="10.492248376831412">
        <ele>363.0350341796875</ele>
        <time>2004-04-03T07:34:20Z</time>
      </trkpt>
      <trkpt lat="44.08501292578876" lon="10.492343679070473">
        <ele>363.5157470703125</ele>
        <time>2004-04-03T07:34:23Z</time>
      </trkpt>
      <trkpt lat="44.08507838845253" lon="10.492435377091169">
        <ele>363.0350341796875</ele>
        <time>2004-04-03T07:34:26Z</time>
      </trkpt>
      <trkpt lat="44.085143934935331" lon="10.4925218783319">
        <ele>363.5157470703125</ele>
        <time>2004-04-03T07:34:29Z</time>
      </trkpt>
      <trkpt lat="44.085232280194759" lon="10.492632603272796">
        <ele>363.0350341796875</ele>
        <time>2004-04-03T07:34:33Z</time>
      </trkpt>
      <trkpt lat="44.085318278521299" lon="10.492744501680136">
        <ele>363.996337890625</ele>
        <time>2004-04-03T07:34:37Z</time>
      </trkpt>
      <trkpt lat="44.085362367331982" lon="10.492754308506846">
        <ele>363.996337890625</ele>
        <time>2004-04-03T07:34:41Z</time>
      </trkpt>
      <trkpt lat="44.085254995152354" lon="10.492601757869124">
        <ele>364.9576416015625</ele>
        <time>2004-04-03T07:35:13Z</time>
      </trkpt>
      <trkpt lat="44.085192549973726" lon="10.492479801177979">
        <ele>365.4383544921875</ele>
        <time>2004-04-03T07:35:21Z</time>
      </trkpt>
      <trkpt lat="44.085129015147686" lon="10.492376452311873">
        <ele>366.8802490234375</ele>
        <time>2004-04-03T07:35:28Z</time>
      </trkpt>
      <trkpt lat="44.085059864446521" lon="10.492263967171311">
        <ele>368.802978515625</ele>
        <time>2004-04-03T07:35:36Z</time>
      </trkpt>
      <trkpt lat="44.08501049503684" lon="10.492143770679832">
        <ele>370.7255859375</ele>
        <time>2004-04-03T07:35:43Z</time>
      </trkpt>
      <trkpt lat="44.085069755092263" lon="10.492103202268481">
        <ele>371.6868896484375</ele>
        <time>2004-04-03T07:35:49Z</time>
      </trkpt>
      <trkpt lat="44.085127674043179" lon="10.492195319384336">
        <ele>373.12890625</ele>
        <time>2004-04-03T07:35:56Z</time>
      </trkpt>
      <trkpt lat="44.085179222747684" lon="10.492294561117887">
        <ele>374.090087890625</ele>
        <time>2004-04-03T07:36:03Z</time>
      </trkpt>
      <trkpt lat="44.08525331877172" lon="10.492267487570643">
        <ele>375.5321044921875</ele>
        <time>2004-04-03T07:36:11Z</time>
      </trkpt>
      <trkpt lat="44.085236806422472" lon="10.492147877812386">
        <ele>377.9354248046875</ele>
        <time>2004-04-03T07:36:18Z</time>
      </trkpt>
      <trkpt lat="44.08521568402648" lon="10.492003792896867">
        <ele>379.37744140625</ele>
        <time>2004-04-03T07:36:26Z</time>
      </trkpt>
      <trkpt lat="44.08518441952765" lon="10.491882255300879">
        <ele>381.300048828125</ele>
        <time>2004-04-03T07:36:34Z</time>
      </trkpt>
      <trkpt lat="44.085114262998104" lon="10.491788294166327">
        <ele>383.22265625</ele>
        <time>2004-04-03T07:36:42Z</time>
      </trkpt>
      <trkpt lat="44.085013680160046" lon="10.491720987483859">
        <ele>384.18408203125</ele>
        <time>2004-04-03T07:36:50Z</time>
      </trkpt>
      <trkpt lat="44.084935393184423" lon="10.491622667759657">
        <ele>386.58740234375</ele>
        <time>2004-04-03T07:36:58Z</time>
      </trkpt>
      <trkpt lat="44.08492592163384" lon="10.491497190669179">
        <ele>388.029296875</ele>
        <time>2004-04-03T07:37:05Z</time>
      </trkpt>
      <trkpt lat="44.084952911362052" lon="10.491371043026447">
        <ele>389.47119140625</ele>
        <time>2004-04-03T07:37:13Z</time>
      </trkpt>
      <trkpt lat="44.085037987679243" lon="10.491358889266849">
        <ele>390.4326171875</ele>
        <time>2004-04-03T07:37:21Z</time>
      </trkpt>
      <trkpt lat="44.08511895686388" lon="10.491424016654491">
        <ele>391.87451171875</ele>
        <time>2004-04-03T07:37:28Z</time>
      </trkpt>
      <trkpt lat="44.085202105343342" lon="10.491484198719263">
        <ele>394.2779541015625</ele>
        <time>2004-04-03T07:37:36Z</time>
      </trkpt>
      <trkpt lat="44.08528508618474" lon="10.491546811535954">
        <ele>395.2391357421875</ele>
        <time>2004-04-03T07:37:44Z</time>
      </trkpt>
      <trkpt lat="44.08537108451128" lon="10.491620069369674">
        <ele>398.1231689453125</ele>
        <time>2004-04-03T07:37:52Z</time>
      </trkpt>
      <trkpt lat="44.085440319031477" lon="10.49170489422977">
        <ele>399.5650634765625</ele>
        <time>2004-04-03T07:37:59Z</time>
      </trkpt>
      <trkpt lat="44.085520282387733" lon="10.491795921698213">
        <ele>400.5264892578125</ele>
        <time>2004-04-03T07:38:07Z</time>
      </trkpt>
      <trkpt lat="44.085595468059182" lon="10.491904970258474">
        <ele>401.968505859375</ele>
        <time>2004-04-03T07:38:14Z</time>
      </trkpt>
      <trkpt lat="44.085670402273536" lon="10.491996668279171">
        <ele>403.89111328125</ele>
        <time>2004-04-03T07:38:21Z</time>
      </trkpt>
      <trkpt lat="44.085705522447824" lon="10.492130191996694">
        <ele>405.3330078125</ele>
        <time>2004-04-03T07:38:29Z</time>
      </trkpt>
      <trkpt lat="44.08572144806385" lon="10.492257261648774">
        <ele>406.77490234375</ele>
        <time>2004-04-03T07:38:36Z</time>
      </trkpt>
      <trkpt lat="44.085762184113264" lon="10.492369579151273">
        <ele>408.217041015625</ele>
        <time>2004-04-03T07:38:43Z</time>
      </trkpt>
      <trkpt lat="44.085824964568019" lon="10.492469910532236">
        <ele>409.6590576171875</ele>
        <time>2004-04-03T07:38:50Z</time>
      </trkpt>
      <trkpt lat="44.085897132754326" lon="10.492572169750929">
        <ele>410.1396484375</ele>
        <time>2004-04-03T07:38:58Z</time>
      </trkpt>
      <trkpt lat="44.085970809683204" lon="10.492653474211693">
        <ele>412.062255859375</ele>
        <time>2004-04-03T07:39:05Z</time>
      </trkpt>
      <trkpt lat="44.086060496047139" lon="10.492738718166947">
        <ele>413.5042724609375</ele>
        <time>2004-04-03T07:39:13Z</time>
      </trkpt>
      <trkpt lat="44.086141129955649" lon="10.492809126153588">
        <ele>414.4654541015625</ele>
        <time>2004-04-03T07:39:20Z</time>
      </trkpt>
      <trkpt lat="44.086238360032439" lon="10.492869475856423">
        <ele>416.38818359375</ele>
        <time>2004-04-03T07:39:28Z</time>
      </trkpt>
      <trkpt lat="44.086326872929931" lon="10.492911972105503">
        <ele>418.310791015625</ele>
        <time>2004-04-03T07:39:36Z</time>
      </trkpt>
      <trkpt lat="44.08642896451056" lon="10.492928232997656">
        <ele>419.7528076171875</ele>
        <time>2004-04-03T07:39:44Z</time>
      </trkpt>
      <trkpt lat="44.086531056091189" lon="10.492955641821027">
        <ele>421.6754150390625</ele>
        <time>2004-04-03T07:39:52Z</time>
      </trkpt>
      <trkpt lat="44.086635913699865" lon="10.492977099493146">
        <ele>422.63671875</ele>
        <time>2004-04-03T07:39:59Z</time>
      </trkpt>
      <trkpt lat="44.086730880662799" lon="10.492984559386969">
        <ele>423.5980224609375</ele>
        <time>2004-04-03T07:40:06Z</time>
      </trkpt>
      <trkpt lat="44.086808413267136" lon="10.493075754493475">
        <ele>425.0401611328125</ele>
        <time>2004-04-03T07:40:15Z</time>
      </trkpt>
      <trkpt lat="44.086881335824728" lon="10.493167536333203">
        <ele>425.0401611328125</ele>
        <time>2004-04-03T07:40:22Z</time>
      </trkpt>
      <trkpt lat="44.086946127936244" lon="10.493266358971596">
        <ele>425.0401611328125</ele>
        <time>2004-04-03T07:40:29Z</time>
      </trkpt>
      <trkpt lat="44.08702458254993" lon="10.493381107226014">
        <ele>426.0013427734375</ele>
        <time>2004-04-03T07:40:36Z</time>
      </trkpt>
      <trkpt lat="44.087107814848423" lon="10.493420921266079">
        <ele>426.4820556640625</ele>
        <time>2004-04-03T07:40:41Z</time>
      </trkpt>
      <trkpt lat="44.087189706042409" lon="10.493502896279097">
        <ele>426.4820556640625</ele>
        <time>2004-04-03T07:40:46Z</time>
      </trkpt>
      <trkpt lat="44.087255168706179" lon="10.4935890622437">
        <ele>426.4820556640625</ele>
        <time>2004-04-03T07:40:51Z</time>
      </trkpt>
      <trkpt lat="44.087316021323204" lon="10.493687884882092">
        <ele>427.443359375</ele>
        <time>2004-04-03T07:40:57Z</time>
      </trkpt>
      <trkpt lat="44.087376371026039" lon="10.493784444406629">
        <ele>428.4046630859375</ele>
        <time>2004-04-03T07:41:03Z</time>
      </trkpt>
      <trkpt lat="44.087376873940229" lon="10.49392132088542">
        <ele>429.8465576171875</ele>
        <time>2004-04-03T07:41:11Z</time>
      </trkpt>
      <trkpt lat="44.087447952479124" lon="10.494014024734497">
        <ele>431.28857421875</ele>
        <time>2004-04-03T07:41:20Z</time>
      </trkpt>
      <trkpt lat="44.087482066825032" lon="10.494148219004273">
        <ele>431.28857421875</ele>
        <time>2004-04-03T07:41:27Z</time>
      </trkpt>
      <trkpt lat="44.087499836459756" lon="10.49428828060627">
        <ele>432.730712890625</ele>
        <time>2004-04-03T07:41:34Z</time>
      </trkpt>
      <trkpt lat="44.087527664378285" lon="10.494405040517449">
        <ele>433.69189453125</ele>
        <time>2004-04-03T07:41:40Z</time>
      </trkpt>
      <trkpt lat="44.087598575279117" lon="10.494493721053004">
        <ele>435.614501953125</ele>
        <time>2004-04-03T07:41:48Z</time>
      </trkpt>
      <trkpt lat="44.087682142853737" lon="10.494566895067692">
        <ele>436.09521484375</ele>
        <time>2004-04-03T07:41:56Z</time>
      </trkpt>
      <trkpt lat="44.087763028219342" lon="10.494629424065351">
        <ele>438.49853515625</ele>
        <time>2004-04-03T07:42:04Z</time>
      </trkpt>
      <trkpt lat="44.087841399013996" lon="10.494682649150491">
        <ele>439.9404296875</ele>
        <time>2004-04-03T07:42:12Z</time>
      </trkpt>
      <trkpt lat="44.087920691817999" lon="10.494745513424277">
        <ele>441.3824462890625</ele>
        <time>2004-04-03T07:42:20Z</time>
      </trkpt>
      <trkpt lat="44.087991435080767" lon="10.494827991351485">
        <ele>442.824462890625</ele>
        <time>2004-04-03T07:42:28Z</time>
      </trkpt>
      <trkpt lat="44.088074080646038" lon="10.49490007571876">
        <ele>445.2276611328125</ele>
        <time>2004-04-03T07:42:37Z</time>
      </trkpt>
      <trkpt lat="44.088172484189272" lon="10.49494500271976">
        <ele>447.1502685546875</ele>
        <time>2004-04-03T07:42:46Z</time>
      </trkpt>
      <trkpt lat="44.088267451152205" lon="10.494982553645968">
        <ele>447.6309814453125</ele>
        <time>2004-04-03T07:42:54Z</time>
      </trkpt>
      <trkpt lat="44.088362753391266" lon="10.495020775124431">
        <ele>449.5537109375</ele>
        <time>2004-04-03T07:43:02Z</time>
      </trkpt>
      <trkpt lat="44.088465264067054" lon="10.495034689083695">
        <ele>450.5150146484375</ele>
        <time>2004-04-03T07:43:10Z</time>
      </trkpt>
      <trkpt lat="44.088547239080071" lon="10.495081711560488">
        <ele>450.99560546875</ele>
        <time>2004-04-03T07:43:17Z</time>
      </trkpt>
      <trkpt lat="44.088629968464375" lon="10.495123704895377">
        <ele>452.4376220703125</ele>
        <time>2004-04-03T07:43:24Z</time>
      </trkpt>
      <trkpt lat="44.088698029518127" lon="10.495221605524421">
        <ele>452.4376220703125</ele>
        <time>2004-04-03T07:43:31Z</time>
      </trkpt>
      <trkpt lat="44.088762737810612" lon="10.495329312980175">
        <ele>452.918212890625</ele>
        <time>2004-04-03T07:43:38Z</time>
      </trkpt>
      <trkpt lat="44.088835828006268" lon="10.495400307700038">
        <ele>453.39892578125</ele>
        <time>2004-04-03T07:43:46Z</time>
      </trkpt>
      <trkpt lat="44.08893221989274" lon="10.49544389359653">
        <ele>454.8408203125</ele>
        <time>2004-04-03T07:43:58Z</time>
      </trkpt>
      <trkpt lat="44.089011177420616" lon="10.495517067611217">
        <ele>456.7635498046875</ele>
        <time>2004-04-03T07:44:08Z</time>
      </trkpt>
      <trkpt lat="44.089099103584886" lon="10.495573310181499">
        <ele>459.1668701171875</ele>
        <time>2004-04-03T07:44:19Z</time>
      </trkpt>
      <trkpt lat="44.089137157425284" lon="10.495447246357799">
        <ele>460.128173828125</ele>
        <time>2004-04-03T07:44:42Z</time>
      </trkpt>
      <trkpt lat="44.089088374748826" lon="10.495344651862979">
        <ele>461.0894775390625</ele>
        <time>2004-04-03T07:44:51Z</time>
      </trkpt>
      <trkpt lat="44.089019978418946" lon="10.495245410129428">
        <ele>463.0120849609375</ele>
        <time>2004-04-03T07:45:00Z</time>
      </trkpt>
      <trkpt lat="44.088957784697413" lon="10.495165782049298">
        <ele>463.973388671875</ele>
        <time>2004-04-03T07:45:09Z</time>
      </trkpt>
      <trkpt lat="44.088904224336147" lon="10.495075592771173">
        <ele>465.8961181640625</ele>
        <time>2004-04-03T07:45:18Z</time>
      </trkpt>
      <trkpt lat="44.088875390589237" lon="10.49495724029839">
        <ele>467.338134765625</ele>
        <time>2004-04-03T07:45:27Z</time>
      </trkpt>
      <trkpt lat="44.088808000087738" lon="10.494831008836627">
        <ele>468.29931640625</ele>
        <time>2004-04-03T07:45:37Z</time>
      </trkpt>
      <trkpt lat="44.088752092793584" lon="10.494711818173528">
        <ele>470.221923828125</ele>
        <time>2004-04-03T07:45:47Z</time>
      </trkpt>
      <trkpt lat="44.088664753362536" lon="10.494620623067021">
        <ele>471.6639404296875</ele>
        <time>2004-04-03T07:45:57Z</time>
      </trkpt>
      <trkpt lat="44.088593842461705" lon="10.494523392990232">
        <ele>472.6253662109375</ele>
        <time>2004-04-03T07:46:08Z</time>
      </trkpt>
      <trkpt lat="44.08853692933917" lon="10.494407052174211">
        <ele>474.5479736328125</ele>
        <time>2004-04-03T07:46:19Z</time>
      </trkpt>
      <trkpt lat="44.088488146662712" lon="10.494302529841661">
        <ele>477.431884765625</ele>
        <time>2004-04-03T07:46:30Z</time>
      </trkpt>
      <trkpt lat="44.088510777801275" lon="10.49417051486671">
        <ele>479.3544921875</ele>
        <time>2004-04-03T07:46:41Z</time>
      </trkpt>
      <trkpt lat="44.088525949046016" lon="10.494043612852693">
        <ele>481.7578125</ele>
        <time>2004-04-03T07:46:56Z</time>
      </trkpt>
      <trkpt lat="44.088531229645014" lon="10.493916794657707">
        <ele>483.1998291015625</ele>
        <time>2004-04-03T07:47:07Z</time>
      </trkpt>
      <trkpt lat="44.088543131947517" lon="10.493763070553541">
        <ele>484.1611328125</ele>
        <time>2004-04-03T07:47:21Z</time>
      </trkpt>
      <trkpt lat="44.08857355825603" lon="10.493560396134853">
        <ele>487.0450439453125</ele>
        <time>2004-04-03T07:49:28Z</time>
      </trkpt>
      <trkpt lat="44.088540785014629" lon="10.493393847718835">
        <ele>489.4483642578125</ele>
        <time>2004-04-03T07:49:56Z</time>
      </trkpt>
      <trkpt lat="44.088525110855699" lon="10.493249511346221">
        <ele>490.4097900390625</ele>
        <time>2004-04-03T07:50:06Z</time>
      </trkpt>
      <trkpt lat="44.088471299037337" lon="10.493111377581954">
        <ele>490.890380859375</ele>
        <time>2004-04-03T07:50:15Z</time>
      </trkpt>
      <trkpt lat="44.088397789746523" lon="10.492985481396317">
        <ele>491.8516845703125</ele>
        <time>2004-04-03T07:50:24Z</time>
      </trkpt>
      <trkpt lat="44.088346157222986" lon="10.492848940193653">
        <ele>492.81298828125</ele>
        <time>2004-04-03T07:50:33Z</time>
      </trkpt>
      <trkpt lat="44.088295446708798" lon="10.492726061493158">
        <ele>494.735595703125</ele>
        <time>2004-04-03T07:50:41Z</time>
      </trkpt>
      <trkpt lat="44.088267032057047" lon="10.492597231641412">
        <ele>496.177734375</ele>
        <time>2004-04-03T07:50:49Z</time>
      </trkpt>
      <trkpt lat="44.088259069249034" lon="10.492452140897512">
        <ele>498.100341796875</ele>
        <time>2004-04-03T07:50:59Z</time>
      </trkpt>
      <trkpt lat="44.088280443102121" lon="10.492318281903863">
        <ele>500.5035400390625</ele>
        <time>2004-04-03T07:51:09Z</time>
      </trkpt>
      <trkpt lat="44.088308773934841" lon="10.492170425131917">
        <ele>501.945556640625</ele>
        <time>2004-04-03T07:51:19Z</time>
      </trkpt>
      <trkpt lat="44.088363088667393" lon="10.492120468989015">
        <ele>503.8681640625</ele>
        <time>2004-04-03T07:51:30Z</time>
      </trkpt>
      <trkpt lat="44.088392006233335" lon="10.492223231121898">
        <ele>504.8294677734375</ele>
        <time>2004-04-03T07:51:42Z</time>
      </trkpt>
      <trkpt lat="44.088411619886756" lon="10.49234451726079">
        <ele>506.7520751953125</ele>
        <time>2004-04-03T07:51:53Z</time>
      </trkpt>
      <trkpt lat="44.088462330400944" lon="10.492463959380984">
        <ele>507.7135009765625</ele>
        <time>2004-04-03T07:52:04Z</time>
      </trkpt>
      <trkpt lat="44.08851002342999" lon="10.492542497813702">
        <ele>510.11669921875</ele>
        <time>2004-04-03T07:52:16Z</time>
      </trkpt>
      <trkpt lat="44.088532235473394" lon="10.492412326857448">
        <ele>511.0780029296875</ele>
        <time>2004-04-03T07:52:26Z</time>
      </trkpt>
      <trkpt lat="44.088526703417301" lon="10.492271007969975">
        <ele>513.4814453125</ele>
        <time>2004-04-03T07:52:38Z</time>
      </trkpt>
      <trkpt lat="44.088549669831991" lon="10.492125414311886">
        <ele>514.442626953125</ele>
        <time>2004-04-03T07:52:51Z</time>
      </trkpt>
      <trkpt lat="44.088572720065713" lon="10.491985352709889">
        <ele>516.845947265625</ele>
        <time>2004-04-03T07:53:02Z</time>
      </trkpt>
      <trkpt lat="44.088601134717464" lon="10.491860546171665">
        <ele>518.287841796875</ele>
        <time>2004-04-03T07:53:12Z</time>
      </trkpt>
      <trkpt lat="44.088640864938498" lon="10.491738170385361">
        <ele>520.2105712890625</ele>
        <time>2004-04-03T07:53:23Z</time>
      </trkpt>
      <trkpt lat="44.088681768625975" lon="10.491606406867504">
        <ele>521.1719970703125</ele>
        <time>2004-04-03T07:53:33Z</time>
      </trkpt>
      <trkpt lat="44.088727030903101" lon="10.491475649178028">
        <ele>521.1719970703125</ele>
        <time>2004-04-03T07:53:44Z</time>
      </trkpt>
      <trkpt lat="44.088769275695086" lon="10.491347070783377">
        <ele>523.0946044921875</ele>
        <time>2004-04-03T07:53:55Z</time>
      </trkpt>
      <trkpt lat="44.088811101391912" lon="10.49121187068522">
        <ele>525.0172119140625</ele>
        <time>2004-04-03T07:54:05Z</time>
      </trkpt>
      <trkpt lat="44.088857537135482" lon="10.491102822124958">
        <ele>525.9783935546875</ele>
        <time>2004-04-03T07:54:13Z</time>
      </trkpt>
      <trkpt lat="44.088922580704093" lon="10.4910022392869">
        <ele>527.42041015625</ele>
        <time>2004-04-03T07:54:22Z</time>
      </trkpt>
      <trkpt lat="44.089003885164857" lon="10.490931244567037">
        <ele>529.82373046875</ele>
        <time>2004-04-03T07:54:33Z</time>
      </trkpt>
      <trkpt lat="44.089056188240647" lon="10.490807443857193">
        <ele>531.2657470703125</ele>
        <time>2004-04-03T07:54:44Z</time>
      </trkpt>
      <trkpt lat="44.089094158262014" lon="10.490673752501607">
        <ele>532.707763671875</ele>
        <time>2004-04-03T07:54:53Z</time>
      </trkpt>
      <trkpt lat="44.08913204446435" lon="10.490544084459543">
        <ele>534.63037109375</ele>
        <time>2004-04-03T07:55:03Z</time>
      </trkpt>
      <trkpt lat="44.089166158810258" lon="10.490421624854207">
        <ele>536.0723876953125</ele>
        <time>2004-04-03T07:55:12Z</time>
      </trkpt>
      <trkpt lat="44.089211085811257" lon="10.490302769467235">
        <ele>536.5531005859375</ele>
        <time>2004-04-03T07:55:22Z</time>
      </trkpt>
      <trkpt lat="44.089270597323775" lon="10.490201096981764">
        <ele>538.956298828125</ele>
        <time>2004-04-03T07:55:33Z</time>
      </trkpt>
      <trkpt lat="44.089337736368179" lon="10.490102358162403">
        <ele>540.87890625</ele>
        <time>2004-04-03T07:55:45Z</time>
      </trkpt>
      <trkpt lat="44.089401019737124" lon="10.490013845264912">
        <ele>542.3209228515625</ele>
        <time>2004-04-03T07:55:56Z</time>
      </trkpt>
      <trkpt lat="44.08948726952076" lon="10.489949136972427">
        <ele>545.204833984375</ele>
        <time>2004-04-03T07:56:09Z</time>
      </trkpt>
      <trkpt lat="44.089582907035947" lon="10.489933546632528">
        <ele>547.608154296875</ele>
        <time>2004-04-03T07:56:22Z</time>
      </trkpt>
      <trkpt lat="44.089677454903722" lon="10.48991703428328">
        <ele>550.011474609375</ele>
        <time>2004-04-03T07:56:36Z</time>
      </trkpt>
      <trkpt lat="44.089773762971163" lon="10.489846961572766">
        <ele>551.93408203125</ele>
        <time>2004-04-03T07:56:50Z</time>
      </trkpt>
      <trkpt lat="44.089806117117405" lon="10.489670941606164">
        <ele>552.895263671875</ele>
        <time>2004-04-03T07:57:20Z</time>
      </trkpt>
      <trkpt lat="44.089822545647621" lon="10.489537920802832">
        <ele>554.81787109375</ele>
        <time>2004-04-03T07:57:32Z</time>
      </trkpt>
      <trkpt lat="44.089844841510057" lon="10.489414958283305">
        <ele>556.260009765625</ele>
        <time>2004-04-03T07:57:43Z</time>
      </trkpt>
      <trkpt lat="44.089862275868654" lon="10.4892891459167">
        <ele>557.7021484375</ele>
        <time>2004-04-03T07:57:55Z</time>
      </trkpt>
      <trkpt lat="44.089839393272996" lon="10.489164842292666">
        <ele>560.105224609375</ele>
        <time>2004-04-03T07:58:08Z</time>
      </trkpt>
      <trkpt lat="44.089798657223582" lon="10.489060152322054">
        <ele>562.9892578125</ele>
        <time>2004-04-03T07:58:21Z</time>
      </trkpt>
      <trkpt lat="44.089702181518078" lon="10.488998629152775">
        <ele>565.392578125</ele>
        <time>2004-04-03T07:58:34Z</time>
      </trkpt>
      <trkpt lat="44.089625738561153" lon="10.488921599462628">
        <ele>567.315185546875</ele>
        <time>2004-04-03T07:58:47Z</time>
      </trkpt>
      <trkpt lat="44.08953026868403" lon="10.488860076293349">
        <ele>569.23779296875</ele>
        <time>2004-04-03T07:59:00Z</time>
      </trkpt>
      <trkpt lat="44.089547619223595" lon="10.488737616688013">
        <ele>571.160400390625</ele>
        <time>2004-04-03T07:59:14Z</time>
      </trkpt>
      <trkpt lat="44.089667145162821" lon="10.488737365230918">
        <ele>574.04443359375</ele>
        <time>2004-04-03T07:59:54Z</time>
      </trkpt>
      <trkpt lat="44.08976580016315" lon="10.488800900056958">
        <ele>575.967041015625</ele>
        <time>2004-04-03T08:00:05Z</time>
      </trkpt>
      <trkpt lat="44.089874094352126" lon="10.488852448761463">
        <ele>577.4091796875</ele>
        <time>2004-04-03T08:00:17Z</time>
      </trkpt>
      <trkpt lat="44.08996419981122" lon="10.488905506208539">
        <ele>579.33154296875</ele>
        <time>2004-04-03T08:00:30Z</time>
      </trkpt>
      <trkpt lat="44.090056819841266" lon="10.488947834819555">
        <ele>581.73486328125</ele>
        <time>2004-04-03T08:00:44Z</time>
      </trkpt>
      <trkpt lat="44.090154636651278" lon="10.488983877003193">
        <ele>582.6962890625</ele>
        <time>2004-04-03T08:00:56Z</time>
      </trkpt>
      <trkpt lat="44.090247424319386" lon="10.489032827317715">
        <ele>584.618896484375</ele>
        <time>2004-04-03T08:01:08Z</time>
      </trkpt>
      <trkpt lat="44.090316407382488" lon="10.489217815920711">
        <ele>587.502685546875</ele>
        <time>2004-04-03T08:03:25Z</time>
      </trkpt>
      <trkpt lat="44.090406596660614" lon="10.489359134808183">
        <ele>589.90625</ele>
        <time>2004-04-03T08:03:51Z</time>
      </trkpt>
      <trkpt lat="44.090520003810525" lon="10.489437589421868">
        <ele>590.867431640625</ele>
        <time>2004-04-03T08:04:17Z</time>
      </trkpt>
      <trkpt lat="44.090594435110688" lon="10.489558205008507">
        <ele>593.270751953125</ele>
        <time>2004-04-03T08:04:33Z</time>
      </trkpt>
      <trkpt lat="44.090698957443237" lon="10.48968099988997">
        <ele>595.674072265625</ele>
        <time>2004-04-03T08:04:46Z</time>
      </trkpt>
      <trkpt lat="44.090767605230212" lon="10.489792479202151">
        <ele>597.115966796875</ele>
        <time>2004-04-03T08:04:58Z</time>
      </trkpt>
      <trkpt lat="44.090819070115685" lon="10.489966152235866">
        <ele>600.961181640625</ele>
        <time>2004-04-03T08:05:16Z</time>
      </trkpt>
      <trkpt lat="44.090830720961094" lon="10.490106297656894">
        <ele>603.84521484375</ele>
        <time>2004-04-03T08:05:29Z</time>
      </trkpt>
      <trkpt lat="44.090810352936387" lon="10.490259518846869">
        <ele>605.287353515625</ele>
        <time>2004-04-03T08:05:41Z</time>
      </trkpt>
      <trkpt lat="44.090806664898992" lon="10.490418104454875">
        <ele>607.2099609375</ele>
        <time>2004-04-03T08:05:54Z</time>
      </trkpt>
      <trkpt lat="44.09076408483088" lon="10.490588340908289">
        <ele>609.132568359375</ele>
        <time>2004-04-03T08:06:10Z</time>
      </trkpt>
      <trkpt lat="44.090721001848578" lon="10.490740723907948">
        <ele>612.0166015625</ele>
        <time>2004-04-03T08:06:23Z</time>
      </trkpt>
      <trkpt lat="44.090632991865277" lon="10.490855723619461">
        <ele>613.93896484375</ele>
        <time>2004-04-03T08:06:36Z</time>
      </trkpt>
      <trkpt lat="44.090571468695998" lon="10.490982374176383">
        <ele>616.34228515625</ele>
        <time>2004-04-03T08:06:49Z</time>
      </trkpt>
      <trkpt lat="44.090537521988153" lon="10.491123357787728">
        <ele>618.264892578125</ele>
        <time>2004-04-03T08:07:03Z</time>
      </trkpt>
      <trkpt lat="44.090487398207188" lon="10.491248164325953">
        <ele>619.70703125</ele>
        <time>2004-04-03T08:07:16Z</time>
      </trkpt>
      <trkpt lat="44.090503491461277" lon="10.491334330290556">
        <ele>621.629638671875</ele>
        <time>2004-04-03T08:08:29Z</time>
      </trkpt>
      <trkpt lat="44.090596111491323" lon="10.491301724687219">
        <ele>623.552490234375</ele>
        <time>2004-04-03T08:08:44Z</time>
      </trkpt>
      <trkpt lat="44.090685211122036" lon="10.49126610159874">
        <ele>625.474853515625</ele>
        <time>2004-04-03T08:08:58Z</time>
      </trkpt>
      <trkpt lat="44.090755619108677" lon="10.49125730060041">
        <ele>629.320068359375</ele>
        <time>2004-04-03T08:13:29Z</time>
      </trkpt>
      <trkpt lat="44.090826446190476" lon="10.491349333897233">
        <ele>632.2041015625</ele>
        <time>2004-04-03T08:13:41Z</time>
      </trkpt>
      <trkpt lat="44.090915629640222" lon="10.491395685821772">
        <ele>635.088134765625</ele>
        <time>2004-04-03T08:13:53Z</time>
      </trkpt>
      <trkpt lat="44.090996934100986" lon="10.491469698026776">
        <ele>636.5302734375</ele>
        <time>2004-04-03T08:14:06Z</time>
      </trkpt>
      <trkpt lat="44.091077651828527" lon="10.491531221196055">
        <ele>639.4140625</ele>
        <time>2004-04-03T08:14:19Z</time>
      </trkpt>
      <trkpt lat="44.091143952682614" lon="10.491582183167338">
        <ele>641.336669921875</ele>
        <time>2004-04-03T08:15:12Z</time>
      </trkpt>
      <trkpt lat="44.091227101162076" lon="10.491605568677187">
        <ele>643.25927734375</ele>
        <time>2004-04-03T08:15:24Z</time>
      </trkpt>
      <trkpt lat="44.091321062296629" lon="10.491618644446135">
        <ele>645.66259765625</ele>
        <time>2004-04-03T08:15:37Z</time>
      </trkpt>
      <trkpt lat="44.091420974582434" lon="10.49163306131959">
        <ele>647.585205078125</ele>
        <time>2004-04-03T08:15:52Z</time>
      </trkpt>
      <trkpt lat="44.091502027586102" lon="10.491563826799393">
        <ele>650.46923828125</ele>
        <time>2004-04-03T08:16:06Z</time>
      </trkpt>
      <trkpt lat="44.091596826910973" lon="10.491499956697226">
        <ele>651.430419921875</ele>
        <time>2004-04-03T08:16:21Z</time>
      </trkpt>
      <trkpt lat="44.091692548245192" lon="10.491474559530616">
        <ele>653.833984375</ele>
        <time>2004-04-03T08:16:36Z</time>
      </trkpt>
      <trkpt lat="44.091779049485922" lon="10.491463243961334">
        <ele>657.198486328125</ele>
        <time>2004-04-03T08:16:53Z</time>
      </trkpt>
      <trkpt lat="44.091867143288255" lon="10.491459975019097">
        <ele>658.159912109375</ele>
        <time>2004-04-03T08:17:06Z</time>
      </trkpt>
      <trkpt lat="44.091963367536664" lon="10.491443211212754">
        <ele>661.043701171875</ele>
        <time>2004-04-03T08:17:24Z</time>
      </trkpt>
      <trkpt lat="44.092073338106275" lon="10.491426698863506">
        <ele>665.36962890625</ele>
        <time>2004-04-03T08:18:05Z</time>
      </trkpt>
      <trkpt lat="44.09215958788991" lon="10.491454275324941">
        <ele>667.772705078125</ele>
        <time>2004-04-03T08:18:19Z</time>
      </trkpt>
      <trkpt lat="44.092214908450842" lon="10.491541782394052">
        <ele>669.69580078125</ele>
        <time>2004-04-03T08:18:55Z</time>
      </trkpt>
      <trkpt lat="44.092292608693242" lon="10.491650914773345">
        <ele>670.656982421875</ele>
        <time>2004-04-03T08:19:04Z</time>
      </trkpt>
      <trkpt lat="44.09238045103848" lon="10.491700368002057">
        <ele>672.098876953125</ele>
        <time>2004-04-03T08:19:14Z</time>
      </trkpt>
      <trkpt lat="44.092491092160344" lon="10.49169315956533">
        <ele>673.060302734375</ele>
        <time>2004-04-03T08:19:22Z</time>
      </trkpt>
      <trkpt lat="44.092604499310255" lon="10.491660051047802">
        <ele>673.060302734375</ele>
        <time>2004-04-03T08:19:30Z</time>
      </trkpt>
      <trkpt lat="44.092694101855159" lon="10.49161302857101">
        <ele>674.98291015625</ele>
        <time>2004-04-03T08:19:37Z</time>
      </trkpt>
      <trkpt lat="44.092791164293885" lon="10.491571957245469">
        <ele>675.46337890625</ele>
        <time>2004-04-03T08:19:45Z</time>
      </trkpt>
      <trkpt lat="44.092889064922929" lon="10.491551840677857">
        <ele>677.86669921875</ele>
        <time>2004-04-03T08:20:02Z</time>
      </trkpt>
      <trkpt lat="44.092963328585029" lon="10.491643622517586">
        <ele>680.750732421875</ele>
        <time>2004-04-03T08:20:21Z</time>
      </trkpt>
      <trkpt lat="44.093036334961653" lon="10.491742109879851">
        <ele>683.15380859375</ele>
        <time>2004-04-03T08:20:37Z</time>
      </trkpt>
      <trkpt lat="44.093134067952633" lon="10.49172836355865">
        <ele>685.557373046875</ele>
        <time>2004-04-03T08:20:48Z</time>
      </trkpt>
      <trkpt lat="44.09323314204812" lon="10.491755353286862">
        <ele>686.518798828125</ele>
        <time>2004-04-03T08:20:59Z</time>
      </trkpt>
      <trkpt lat="44.093318050727248" lon="10.491814110428095">
        <ele>687.47998046875</ele>
        <time>2004-04-03T08:21:11Z</time>
      </trkpt>
      <trkpt lat="44.093404887244105" lon="10.491892229765654">
        <ele>687.960693359375</ele>
        <time>2004-04-03T08:21:50Z</time>
      </trkpt>
      <trkpt lat="44.093485018238425" lon="10.491984095424414">
        <ele>687.47998046875</ele>
        <time>2004-04-03T08:21:55Z</time>
      </trkpt>
      <trkpt lat="44.093554588034749" lon="10.492071099579334">
        <ele>688.44140625</ele>
        <time>2004-04-03T08:22:00Z</time>
      </trkpt>
      <trkpt lat="44.093636982142925" lon="10.492160869762301">
        <ele>688.922119140625</ele>
        <time>2004-04-03T08:22:06Z</time>
      </trkpt>
      <trkpt lat="44.093741169199347" lon="10.492225997149944">
        <ele>690.364013671875</ele>
        <time>2004-04-03T08:22:13Z</time>
      </trkpt>
      <trkpt lat="44.093828424811363" lon="10.492271510884166">
        <ele>691.3251953125</ele>
        <time>2004-04-03T08:22:19Z</time>
      </trkpt>
      <trkpt lat="44.093935545533895" lon="10.49230202101171">
        <ele>693.728515625</ele>
        <time>2004-04-03T08:22:27Z</time>
      </trkpt>
      <trkpt lat="44.094035541638732" lon="10.492339488118887">
        <ele>695.651123046875</ele>
        <time>2004-04-03T08:22:40Z</time>
      </trkpt>
      <trkpt lat="44.094094801694155" lon="10.492437556385994">
        <ele>696.612548828125</ele>
        <time>2004-04-03T08:22:48Z</time>
      </trkpt>
      <trkpt lat="44.094108967110515" lon="10.492559429258108">
        <ele>698.534912109375</ele>
        <time>2004-04-03T08:22:56Z</time>
      </trkpt>
      <trkpt lat="44.09408331848681" lon="10.49268021248281">
        <ele>699.97705078125</ele>
        <time>2004-04-03T08:23:04Z</time>
      </trkpt>
      <trkpt lat="44.094058675691485" lon="10.492793703451753">
        <ele>701.89990234375</ele>
        <time>2004-04-03T08:23:12Z</time>
      </trkpt>
      <trkpt lat="44.09408331848681" lon="10.49292404204607">
        <ele>703.341796875</ele>
        <time>2004-04-03T08:23:20Z</time>
      </trkpt>
      <trkpt lat="44.09417468123138" lon="10.492833014577627">
        <ele>703.341796875</ele>
        <time>2004-04-03T08:24:16Z</time>
      </trkpt>
      <trkpt lat="44.0941839851439" lon="10.492691025137901">
        <ele>702.861083984375</ele>
        <time>2004-04-03T08:24:22Z</time>
      </trkpt>
      <trkpt lat="44.094216506928205" lon="10.492566721513867">
        <ele>703.341796875</ele>
        <time>2004-04-03T08:24:27Z</time>
      </trkpt>
      <trkpt lat="44.094279790297151" lon="10.492481142282486">
        <ele>703.822509765625</ele>
        <time>2004-04-03T08:24:33Z</time>
      </trkpt>
      <trkpt lat="44.09437651745975" lon="10.492437556385994">
        <ele>703.822509765625</ele>
        <time>2004-04-03T08:24:42Z</time>
      </trkpt>
      <trkpt lat="44.09445421770215" lon="10.492506120353937">
        <ele>704.30322265625</ele>
        <time>2004-04-03T08:24:52Z</time>
      </trkpt>
      <trkpt lat="44.094526553526521" lon="10.492674596607685">
        <ele>704.30322265625</ele>
        <time>2004-04-03T08:25:00Z</time>
      </trkpt>
      <trkpt lat="44.094594614580274" lon="10.492808371782303">
        <ele>704.30322265625</ele>
        <time>2004-04-03T08:25:08Z</time>
      </trkpt>
      <trkpt lat="44.094692096114159" lon="10.492924712598324">
        <ele>705.264404296875</ele>
        <time>2004-04-03T08:25:16Z</time>
      </trkpt>
      <trkpt lat="44.094804916530848" lon="10.493072904646397">
        <ele>705.7451171875</ele>
        <time>2004-04-03T08:25:24Z</time>
      </trkpt>
      <trkpt lat="44.094897955656052" lon="10.493214055895805">
        <ele>706.706298828125</ele>
        <time>2004-04-03T08:25:32Z</time>
      </trkpt>
      <trkpt lat="44.09496727399528" lon="10.493336683139205">
        <ele>707.18701171875</ele>
        <time>2004-04-03T08:25:40Z</time>
      </trkpt>
      <trkpt lat="44.095014380291104" lon="10.493468698114157">
        <ele>709.109619140625</ele>
        <time>2004-04-03T08:25:49Z</time>
      </trkpt>
      <trkpt lat="44.095060816034675" lon="10.493600377812982">
        <ele>710.551513671875</ele>
        <time>2004-04-03T08:25:58Z</time>
      </trkpt>
      <trkpt lat="44.095758777111769" lon="10.494050569832325">
        <ele>711.0322265625</ele>
        <time>2004-04-03T08:26:07Z</time>
      </trkpt>
      <trkpt lat="44.095780737698078" lon="10.494173280894756">
        <ele>711.99365234375</ele>
        <time>2004-04-03T08:26:15Z</time>
      </trkpt>
      <trkpt lat="44.095853995531797" lon="10.494316527619958">
        <ele>712.954833984375</ele>
        <time>2004-04-03T08:26:23Z</time>
      </trkpt>
      <trkpt lat="44.095921637490392" lon="10.494445189833641">
        <ele>714.396728515625</ele>
        <time>2004-04-03T08:26:31Z</time>
      </trkpt>
      <trkpt lat="44.095986429601908" lon="10.494529847055674">
        <ele>715.8388671875</ele>
        <time>2004-04-03T08:26:40Z</time>
      </trkpt>
      <trkpt lat="44.096064800396562" lon="10.494448877871037">
        <ele>716.319580078125</ele>
        <time>2004-04-03T08:26:48Z</time>
      </trkpt>
      <trkpt lat="44.096154654398561" lon="10.494393138214946">
        <ele>717.761474609375</ele>
        <time>2004-04-03T08:26:56Z</time>
      </trkpt>
      <trkpt lat="44.096243754029274" lon="10.494349217042327">
        <ele>718.722900390625</ele>
        <time>2004-04-03T08:27:04Z</time>
      </trkpt>
      <trkpt lat="44.096345342695713" lon="10.494342930614948">
        <ele>720.6455078125</ele>
        <time>2004-04-03T08:27:13Z</time>
      </trkpt>
      <trkpt lat="44.096448440104723" lon="10.49435131251812">
        <ele>721.606689453125</ele>
        <time>2004-04-03T08:27:21Z</time>
      </trkpt>
      <trkpt lat="44.096564278006554" lon="10.494407722726464">
        <ele>722.568115234375</ele>
        <time>2004-04-03T08:27:30Z</time>
      </trkpt>
      <trkpt lat="44.096650360152125" lon="10.494500007480383">
        <ele>724.971435546875</ele>
        <time>2004-04-03T08:27:40Z</time>
      </trkpt>
      <trkpt lat="44.09672437235713" lon="10.494596650823951">
        <ele>725.9326171875</ele>
        <time>2004-04-03T08:27:50Z</time>
      </trkpt>
      <trkpt lat="44.096814729273319" lon="10.494688516482711">
        <ele>727.855224609375</ele>
        <time>2004-04-03T08:28:00Z</time>
      </trkpt>
      <trkpt lat="44.096912210807204" lon="10.494768647477031">
        <ele>729.297119140625</ele>
        <time>2004-04-03T08:28:11Z</time>
      </trkpt>
      <trkpt lat="44.097036765888333" lon="10.494837462902069">
        <ele>730.7392578125</ele>
        <time>2004-04-03T08:28:24Z</time>
      </trkpt>
      <trkpt lat="44.097149251028895" lon="10.494937459006906">
        <ele>733.142578125</ele>
        <time>2004-04-03T08:28:37Z</time>
      </trkpt>
      <trkpt lat="44.097284870222211" lon="10.495034102350473">
        <ele>734.10400390625</ele>
        <time>2004-04-03T08:28:48Z</time>
      </trkpt>
      <trkpt lat="44.097379837185144" lon="10.495125465095043">
        <ele>735.5458984375</ele>
        <time>2004-04-03T08:28:57Z</time>
      </trkpt>
      <trkpt lat="44.097474468871951" lon="10.495241722092032">
        <ele>736.50732421875</ele>
        <time>2004-04-03T08:29:06Z</time>
      </trkpt>
      <trkpt lat="44.097552001476288" lon="10.495353536680341">
        <ele>737.468505859375</ele>
        <time>2004-04-03T08:29:15Z</time>
      </trkpt>
      <trkpt lat="44.097628947347403" lon="10.495451437309384">
        <ele>738.91064453125</ele>
        <time>2004-04-03T08:29:27Z</time>
      </trkpt>
      <trkpt lat="44.097794573754072" lon="10.495487982407212">
        <ele>740.3525390625</ele>
        <time>2004-04-03T08:29:39Z</time>
      </trkpt>
      <trkpt lat="44.097799099981785" lon="10.495574735105038">
        <ele>741.313720703125</ele>
        <time>2004-04-03T08:29:47Z</time>
      </trkpt>
      <trkpt lat="44.097725925967097" lon="10.495572807267308">
        <ele>741.79443359375</ele>
        <time>2004-04-03T08:29:53Z</time>
      </trkpt>
      <trkpt lat="44.097632048651576" lon="10.495566939935088">
        <ele>741.79443359375</ele>
        <time>2004-04-03T08:29:59Z</time>
      </trkpt>
      <trkpt lat="44.097534231841564" lon="10.495556714013219">
        <ele>742.275146484375</ele>
        <time>2004-04-03T08:30:06Z</time>
      </trkpt>
      <trkpt lat="44.097447395324707" lon="10.495527209714055">
        <ele>742.755859375</ele>
        <time>2004-04-03T08:30:14Z</time>
      </trkpt>
      <trkpt lat="44.097414873540401" lon="10.495569119229913">
        <ele>742.275146484375</ele>
        <time>2004-04-03T08:31:08Z</time>
      </trkpt>
      <trkpt lat="44.097441611811519" lon="10.495672719553113">
        <ele>743.717041015625</ele>
        <time>2004-04-03T08:31:20Z</time>
      </trkpt>
      <trkpt lat="44.097564406692982" lon="10.49571068957448">
        <ele>744.67822265625</ele>
        <time>2004-04-03T08:31:33Z</time>
      </trkpt>
      <trkpt lat="44.09769281744957" lon="10.495718568563461">
        <ele>747.08154296875</ele>
        <time>2004-04-03T08:31:46Z</time>
      </trkpt>
      <trkpt lat="44.097820809110999" lon="10.49573658965528">
        <ele>748.523681640625</ele>
        <time>2004-04-03T08:31:57Z</time>
      </trkpt>
      <trkpt lat="44.097929773852229" lon="10.495782941579819">
        <ele>749.9658203125</ele>
        <time>2004-04-03T08:32:06Z</time>
      </trkpt>
      <trkpt lat="44.098034044727683" lon="10.495818899944425">
        <ele>751.40771484375</ele>
        <time>2004-04-03T08:32:15Z</time>
      </trkpt>
      <trkpt lat="44.098165724426508" lon="10.495907664299011">
        <ele>753.330322265625</ele>
        <time>2004-04-03T08:32:27Z</time>
      </trkpt>
      <trkpt lat="44.098280724138021" lon="10.495970444753766">
        <ele>753.81103515625</ele>
        <time>2004-04-03T08:32:37Z</time>
      </trkpt>
      <trkpt lat="44.098429335281253" lon="10.49598284997046">
        <ele>755.2529296875</ele>
        <time>2004-04-03T08:32:46Z</time>
      </trkpt>
      <trkpt lat="44.098560679703951" lon="10.495977234095335">
        <ele>756.214111328125</ele>
        <time>2004-04-03T08:32:55Z</time>
      </trkpt>
      <trkpt lat="44.098684228956699" lon="10.496010594069958">
        <ele>757.175537109375</ele>
        <time>2004-04-03T08:33:04Z</time>
      </trkpt>
      <trkpt lat="44.098787326365709" lon="10.496093071997166">
        <ele>759.09814453125</ele>
        <time>2004-04-03T08:33:12Z</time>
      </trkpt>
      <trkpt lat="44.098876006901264" lon="10.496213184669614">
        <ele>760.059326171875</ele>
        <time>2004-04-03T08:33:22Z</time>
      </trkpt>
      <trkpt lat="44.098995113745332" lon="10.496272528544068">
        <ele>761.982177734375</ele>
        <time>2004-04-03T08:33:33Z</time>
      </trkpt>
      <trkpt lat="44.099083291366696" lon="10.496379816904664">
        <ele>762.943359375</ele>
        <time>2004-04-03T08:33:43Z</time>
      </trkpt>
      <trkpt lat="44.099149676039815" lon="10.4964954033494">
        <ele>764.385498046875</ele>
        <time>2004-04-03T08:33:51Z</time>
      </trkpt>
      <trkpt lat="44.09926425665617" lon="10.496576959267259">
        <ele>765.82763671875</ele>
        <time>2004-04-03T08:34:00Z</time>
      </trkpt>
      <trkpt lat="44.099385375156999" lon="10.496587352827191">
        <ele>766.788818359375</ele>
        <time>2004-04-03T08:34:09Z</time>
      </trkpt>
      <trkpt lat="44.099510097876191" lon="10.496573438867927">
        <ele>768.71142578125</ele>
        <time>2004-04-03T08:34:18Z</time>
      </trkpt>
      <trkpt lat="44.099615793675184" lon="10.496635297313333">
        <ele>770.1533203125</ele>
        <time>2004-04-03T08:34:27Z</time>
      </trkpt>
      <trkpt lat="44.099655859172344" lon="10.496760942041874">
        <ele>771.59521484375</ele>
        <time>2004-04-03T08:34:38Z</time>
      </trkpt>
      <trkpt lat="44.099732469767332" lon="10.496881809085608">
        <ele>772.556640625</ele>
        <time>2004-04-03T08:34:48Z</time>
      </trkpt>
      <trkpt lat="44.099926678463817" lon="10.496967304497957">
        <ele>774.9599609375</ele>
        <time>2004-04-03T08:35:34Z</time>
      </trkpt>
      <trkpt lat="44.100082749500871" lon="10.49691466614604">
        <ele>775.4404296875</ele>
        <time>2004-04-03T08:35:54Z</time>
      </trkpt>
      <trkpt lat="44.100180817767978" lon="10.496850376948714">
        <ele>776.40185546875</ele>
        <time>2004-04-03T08:36:01Z</time>
      </trkpt>
      <trkpt lat="44.100293889641762" lon="10.496855741366744">
        <ele>777.84375</ele>
        <time>2004-04-03T08:36:10Z</time>
      </trkpt>
      <trkpt lat="44.100390700623393" lon="10.496853142976761">
        <ele>778.324462890625</ele>
        <time>2004-04-03T08:36:23Z</time>
      </trkpt>
      <trkpt lat="44.100487511605024" lon="10.496816765516996">
        <ele>779.28564453125</ele>
        <time>2004-04-03T08:36:35Z</time>
      </trkpt>
      <trkpt lat="44.100580466911197" lon="10.496798157691956">
        <ele>780.72802734375</ele>
        <time>2004-04-03T08:36:48Z</time>
      </trkpt>
      <trkpt lat="44.100697981193662" lon="10.496806539595127">
        <ele>782.169921875</ele>
        <time>2004-04-03T08:37:01Z</time>
      </trkpt>
      <trkpt lat="44.100822452455759" lon="10.496867978945374">
        <ele>783.61181640625</ele>
        <time>2004-04-03T08:37:17Z</time>
      </trkpt>
      <trkpt lat="44.101024121046066" lon="10.496952719986439">
        <ele>786.01513671875</ele>
        <time>2004-04-03T08:37:55Z</time>
      </trkpt>
      <trkpt lat="44.10111372359097" lon="10.497059337794781">
        <ele>786.495849609375</ele>
        <time>2004-04-03T08:38:04Z</time>
      </trkpt>
      <trkpt lat="44.101180443540215" lon="10.497167212888598">
        <ele>787.45703125</ele>
        <time>2004-04-03T08:38:12Z</time>
      </trkpt>
      <trkpt lat="44.101267280057073" lon="10.497264778241515">
        <ele>789.379638671875</ele>
        <time>2004-04-03T08:38:20Z</time>
      </trkpt>
      <trkpt lat="44.101364510133862" lon="10.497295623645186">
        <ele>790.341064453125</ele>
        <time>2004-04-03T08:38:28Z</time>
      </trkpt>
      <trkpt lat="44.101462075486779" lon="10.497330827638507">
        <ele>791.782958984375</ele>
        <time>2004-04-03T08:38:36Z</time>
      </trkpt>
      <trkpt lat="44.101543044671416" lon="10.497380783781409">
        <ele>792.263671875</ele>
        <time>2004-04-03T08:38:42Z</time>
      </trkpt>
      <trkpt lat="44.101633904501796" lon="10.497422106564045">
        <ele>793.224853515625</ele>
        <time>2004-04-03T08:38:49Z</time>
      </trkpt>
      <trkpt lat="44.101745970547199" lon="10.497431997209787">
        <ele>794.666748046875</ele>
        <time>2004-04-03T08:38:59Z</time>
      </trkpt>
      <trkpt lat="44.101827945560217" lon="10.497482540085912">
        <ele>795.628173828125</ele>
        <time>2004-04-03T08:39:08Z</time>
      </trkpt>
      <trkpt lat="44.101928193122149" lon="10.497553534805775">
        <ele>796.58984375</ele>
        <time>2004-04-03T08:39:15Z</time>
      </trkpt>
      <trkpt lat="44.102012012153864" lon="10.49764271825552">
        <ele>798.03173828125</ele>
        <time>2004-04-03T08:39:22Z</time>
      </trkpt>
      <trkpt lat="44.102100692689419" lon="10.497717149555683">
        <ele>798.992919921875</ele>
        <time>2004-04-03T08:39:29Z</time>
      </trkpt>
      <trkpt lat="44.102184092625976" lon="10.497794849798083">
        <ele>798.992919921875</ele>
        <time>2004-04-03T08:39:36Z</time>
      </trkpt>
      <trkpt lat="44.102261709049344" lon="10.497881853953004">
        <ele>800.43505859375</ele>
        <time>2004-04-03T08:39:43Z</time>
      </trkpt>
      <trkpt lat="44.102354077622294" lon="10.497975312173367">
        <ele>801.396240234375</ele>
        <time>2004-04-03T08:39:50Z</time>
      </trkpt>
      <trkpt lat="44.102425407618284" lon="10.498084025457501">
        <ele>803.31884765625</ele>
        <time>2004-04-03T08:39:59Z</time>
      </trkpt>
      <trkpt lat="44.102466143667698" lon="10.498203635215759">
        <ele>803.799560546875</ele>
        <time>2004-04-03T08:40:06Z</time>
      </trkpt>
      <trkpt lat="44.10254635848105" lon="10.498296339064837">
        <ele>804.7607421875</ele>
        <time>2004-04-03T08:40:13Z</time>
      </trkpt>
      <trkpt lat="44.10257519222796" lon="10.498438747599721">
        <ele>806.20263671875</ele>
        <time>2004-04-03T08:40:21Z</time>
      </trkpt>
      <trkpt lat="44.102648617699742" lon="10.498524159193039">
        <ele>806.683349609375</ele>
        <time>2004-04-03T08:40:28Z</time>
      </trkpt>
      <trkpt lat="44.102734448388219" lon="10.498600853607059">
        <ele>807.1640625</ele>
        <time>2004-04-03T08:40:35Z</time>
      </trkpt>
      <trkpt lat="44.102838970720768" lon="10.498639242723584">
        <ele>809.086669921875</ele>
        <time>2004-04-03T08:40:44Z</time>
      </trkpt>
      <trkpt lat="44.102924717590213" lon="10.498636560514569">
        <ele>809.5673828125</ele>
        <time>2004-04-03T08:40:53Z</time>
      </trkpt>
      <trkpt lat="44.103030748665333" lon="10.498659694567323">
        <ele>811.970703125</ele>
        <time>2004-04-03T08:41:07Z</time>
      </trkpt>
      <trkpt lat="44.103132002055645" lon="10.498717362061143">
        <ele>813.412841796875</ele>
        <time>2004-04-03T08:41:20Z</time>
      </trkpt>
      <trkpt lat="44.103273823857307" lon="10.498754912987351">
        <ele>813.893310546875</ele>
        <time>2004-04-03T08:41:46Z</time>
      </trkpt>
      <trkpt lat="44.103389494121075" lon="10.498814508318901">
        <ele>814.854736328125</ele>
        <time>2004-04-03T08:41:58Z</time>
      </trkpt>
      <trkpt lat="44.103440707549453" lon="10.498895393684506">
        <ele>815.816162109375</ele>
        <time>2004-04-03T08:42:45Z</time>
      </trkpt>
      <trkpt lat="44.103544894605875" lon="10.498953396454453">
        <ele>817.258056640625</ele>
        <time>2004-04-03T08:42:54Z</time>
      </trkpt>
      <trkpt lat="44.103636341169477" lon="10.499026905745268">
        <ele>818.699951171875</ele>
        <time>2004-04-03T08:43:04Z</time>
      </trkpt>
      <trkpt lat="44.103755028918386" lon="10.499068144708872">
        <ele>819.661376953125</ele>
        <time>2004-04-03T08:43:14Z</time>
      </trkpt>
      <trkpt lat="44.103874219581485" lon="10.499093793332577">
        <ele>821.103271484375</ele>
        <time>2004-04-03T08:43:29Z</time>
      </trkpt>
      <trkpt lat="44.103982010856271" lon="10.499115083366632">
        <ele>821.583740234375</ele>
        <time>2004-04-03T08:43:36Z</time>
      </trkpt>
      <trkpt lat="44.104083431884646" lon="10.499153975397348">
        <ele>822.545166015625</ele>
        <time>2004-04-03T08:43:43Z</time>
      </trkpt>
      <trkpt lat="44.104184433817863" lon="10.499193454161286">
        <ele>824.4677734375</ele>
        <time>2004-04-03T08:43:50Z</time>
      </trkpt>
      <trkpt lat="44.104295242577791" lon="10.499174175783992">
        <ele>825.428955078125</ele>
        <time>2004-04-03T08:43:57Z</time>
      </trkpt>
      <trkpt lat="44.104387443512678" lon="10.499130254611373">
        <ele>826.390380859375</ele>
        <time>2004-04-03T08:44:36Z</time>
      </trkpt>
      <trkpt lat="44.104520212858915" lon="10.499026821926236">
        <ele>826.87109375</ele>
        <time>2004-04-03T08:45:13Z</time>
      </trkpt>
      <trkpt lat="44.104633703827858" lon="10.499003101140261">
        <ele>828.7939453125</ele>
        <time>2004-04-03T08:45:24Z</time>
      </trkpt>
      <trkpt lat="44.104747110977769" lon="10.498967980965972">
        <ele>830.716552734375</ele>
        <time>2004-04-03T08:45:38Z</time>
      </trkpt>
      <trkpt lat="44.104847777634859" lon="10.498893382027745">
        <ele>832.158447265625</ele>
        <time>2004-04-03T08:45:47Z</time>
      </trkpt>
      <trkpt lat="44.10495188087225" lon="10.498865973204374">
        <ele>834.0810546875</ele>
        <time>2004-04-03T08:45:57Z</time>
      </trkpt>
      <trkpt lat="44.105060091242194" lon="10.49884669482708">
        <ele>835.04248046875</ele>
        <time>2004-04-03T08:46:06Z</time>
      </trkpt>
      <trkpt lat="44.105160254985094" lon="10.49879833124578">
        <ele>836.003662109375</ele>
        <time>2004-04-03T08:46:14Z</time>
      </trkpt>
      <trkpt lat="44.10525874234736" lon="10.498746866360307">
        <ele>837.445556640625</ele>
        <time>2004-04-03T08:46:23Z</time>
      </trkpt>
      <trkpt lat="44.105361169204116" lon="10.498672435060143">
        <ele>837.92626953125</ele>
        <time>2004-04-03T08:46:32Z</time>
      </trkpt>
      <trkpt lat="44.105447083711624" lon="10.498587274923921">
        <ele>839.3681640625</ele>
        <time>2004-04-03T08:46:41Z</time>
      </trkpt>
      <trkpt lat="44.105511456727982" lon="10.498496582731605">
        <ele>841.290771484375</ele>
        <time>2004-04-03T08:46:51Z</time>
      </trkpt>
      <trkpt lat="44.105620924383402" lon="10.498443190008402">
        <ele>841.771484375</ele>
        <time>2004-04-03T08:47:12Z</time>
      </trkpt>
      <trkpt lat="44.105721255764365" lon="10.498483926057816">
        <ele>843.21337890625</ele>
        <time>2004-04-03T08:47:19Z</time>
      </trkpt>
      <trkpt lat="44.10581337288022" lon="10.498562129214406">
        <ele>844.175048828125</ele>
        <time>2004-04-03T08:47:26Z</time>
      </trkpt>
      <trkpt lat="44.105929546058178" lon="10.498608816415071">
        <ele>846.578369140625</ele>
        <time>2004-04-03T08:47:34Z</time>
      </trkpt>
      <trkpt lat="44.106049407273531" lon="10.498583167791367">
        <ele>847.058837890625</ele>
        <time>2004-04-03T08:47:46Z</time>
      </trkpt>
      <trkpt lat="44.106142949312925" lon="10.49860336817801">
        <ele>847.53955078125</ele>
        <time>2004-04-03T08:47:54Z</time>
      </trkpt>
      <trkpt lat="44.106229450553656" lon="10.49863706342876">
        <ele>848.9814453125</ele>
        <time>2004-04-03T08:48:04Z</time>
      </trkpt>
      <trkpt lat="44.106347635388374" lon="10.498666735365987">
        <ele>850.904052734375</ele>
        <time>2004-04-03T08:48:30Z</time>
      </trkpt>
      <trkpt lat="44.106440674513578" lon="10.498651396483183">
        <ele>851.865478515625</ele>
        <time>2004-04-03T08:48:42Z</time>
      </trkpt>
      <trkpt lat="44.106532456353307" lon="10.498636728152633">
        <ele>852.82666015625</ele>
        <time>2004-04-03T08:48:52Z</time>
      </trkpt>
      <trkpt lat="44.106625830754638" lon="10.498634381219745">
        <ele>854.749267578125</ele>
        <time>2004-04-03T08:49:01Z</time>
      </trkpt>
      <trkpt lat="44.106716522946954" lon="10.498656090348959">
        <ele>856.191162109375</ele>
        <time>2004-04-03T08:49:10Z</time>
      </trkpt>
      <trkpt lat="44.106806209310889" lon="10.498686516657472">
        <ele>857.63330078125</ele>
        <time>2004-04-03T08:49:20Z</time>
      </trkpt>
      <trkpt lat="44.10689665004611" lon="10.498628178611398">
        <ele>859.555908203125</ele>
        <time>2004-04-03T08:49:28Z</time>
      </trkpt>
      <trkpt lat="44.106952976435423" lon="10.498522398993373">
        <ele>860.517333984375</ele>
        <time>2004-04-03T08:49:39Z</time>
      </trkpt>
      <trkpt lat="44.107032939791679" lon="10.498468251898885">
        <ele>860.998046875</ele>
        <time>2004-04-03T08:49:50Z</time>
      </trkpt>
      <trkpt lat="44.10713461227715" lon="10.498491302132607">
        <ele>862.43994140625</ele>
        <time>2004-04-03T08:50:01Z</time>
      </trkpt>
      <trkpt lat="44.107229830697179" lon="10.498497672379017">
        <ele>863.8818359375</ele>
        <time>2004-04-03T08:50:10Z</time>
      </trkpt>
      <trkpt lat="44.107316164299846" lon="10.498429108411074">
        <ele>865.323974609375</ele>
        <time>2004-04-03T08:50:20Z</time>
      </trkpt>
      <trkpt lat="44.107423452660441" lon="10.498382672667503">
        <ele>866.765869140625</ele>
        <time>2004-04-03T08:50:39Z</time>
      </trkpt>
      <trkpt lat="44.107522526755929" lon="10.498380912467837">
        <ele>867.24658203125</ele>
        <time>2004-04-03T08:50:49Z</time>
      </trkpt>
      <trkpt lat="44.10759293474257" lon="10.498464815318584">
        <ele>869.169189453125</ele>
        <time>2004-04-03T08:52:00Z</time>
      </trkpt>
      <trkpt lat="44.107685219496489" lon="10.498532708734274">
        <ele>870.13037109375</ele>
        <time>2004-04-03T08:52:10Z</time>
      </trkpt>
      <trkpt lat="44.10778203047812" lon="10.498596746474504">
        <ele>871.572265625</ele>
        <time>2004-04-03T08:52:21Z</time>
      </trkpt>
      <trkpt lat="44.107886217534542" lon="10.498594148084521">
        <ele>873.014404296875</ele>
        <time>2004-04-03T08:52:31Z</time>
      </trkpt>
      <trkpt lat="44.107976574450731" lon="10.498590460047126">
        <ele>874.93701171875</ele>
        <time>2004-04-03T08:52:41Z</time>
      </trkpt>
      <trkpt lat="44.108073050156236" lon="10.498600853607059">
        <ele>875.41748046875</ele>
        <time>2004-04-03T08:52:55Z</time>
      </trkpt>
      <trkpt lat="44.1081577911973" lon="10.498546287417412">
        <ele>877.340576171875</ele>
        <time>2004-04-03T08:53:03Z</time>
      </trkpt>
      <trkpt lat="44.108203304931521" lon="10.4983742069453">
        <ele>878.3017578125</ele>
        <time>2004-04-03T08:53:21Z</time>
      </trkpt>
      <trkpt lat="44.108351496979594" lon="10.498265577480197">
        <ele>879.262939453125</ele>
        <time>2004-04-03T08:54:01Z</time>
      </trkpt>
      <trkpt lat="44.108445877209306" lon="10.498208831995726">
        <ele>881.185791015625</ele>
        <time>2004-04-03T08:54:09Z</time>
      </trkpt>
      <trkpt lat="44.10855358466506" lon="10.498172957450151">
        <ele>882.627685546875</ele>
        <time>2004-04-03T08:54:17Z</time>
      </trkpt>
      <trkpt lat="44.108646539971232" lon="10.498188799247146">
        <ele>883.5888671875</ele>
        <time>2004-04-03T08:54:25Z</time>
      </trkpt>
      <trkpt lat="44.108735639601946" lon="10.498128617182374">
        <ele>884.55029296875</ele>
        <time>2004-04-03T08:54:36Z</time>
      </trkpt>
      <trkpt lat="44.10883747972548" lon="10.498071117326617">
        <ele>885.9921875</ele>
        <time>2004-04-03T08:54:47Z</time>
      </trkpt>
      <trkpt lat="44.108922891318798" lon="10.498012946918607">
        <ele>886.472900390625</ele>
        <time>2004-04-03T08:54:57Z</time>
      </trkpt>
      <trkpt lat="44.109007464721799" lon="10.497949831187725">
        <ele>886.953369140625</ele>
        <time>2004-04-03T08:55:07Z</time>
      </trkpt>
      <trkpt lat="44.109082147479057" lon="10.497887134552002">
        <ele>887.43408203125</ele>
        <time>2004-04-03T08:55:16Z</time>
      </trkpt>
      <trkpt lat="44.109144173562527" lon="10.497780349105597">
        <ele>888.3955078125</ele>
        <time>2004-04-03T08:55:28Z</time>
      </trkpt>
      <trkpt lat="44.109205529093742" lon="10.497664595022798">
        <ele>889.356689453125</ele>
        <time>2004-04-03T08:55:38Z</time>
      </trkpt>
      <trkpt lat="44.109250791370869" lon="10.497544482350349">
        <ele>891.279296875</ele>
        <time>2004-04-03T08:55:49Z</time>
      </trkpt>
      <trkpt lat="44.109306028112769" lon="10.497422441840172">
        <ele>892.240966796875</ele>
        <time>2004-04-03T08:56:00Z</time>
      </trkpt>
      <trkpt lat="44.109378615394235" lon="10.497303334996104">
        <ele>893.2021484375</ele>
        <time>2004-04-03T08:56:15Z</time>
      </trkpt>
      <trkpt lat="44.109475007280707" lon="10.497242566198111">
        <ele>893.682861328125</ele>
        <time>2004-04-03T08:56:24Z</time>
      </trkpt>
      <trkpt lat="44.109521526843309" lon="10.497173499315977">
        <ele>893.682861328125</ele>
        <time>2004-04-03T08:56:57Z</time>
      </trkpt>
      <trkpt lat="44.109435025602579" lon="10.49711792729795">
        <ele>893.682861328125</ele>
        <time>2004-04-03T08:57:09Z</time>
      </trkpt>
      <trkpt lat="44.109337208792567" lon="10.497038885951042">
        <ele>894.64404296875</ele>
        <time>2004-04-03T08:57:33Z</time>
      </trkpt>
      <trkpt lat="44.109245426952839" lon="10.496995719149709">
        <ele>895.60546875</ele>
        <time>2004-04-03T08:57:39Z</time>
      </trkpt>
      <trkpt lat="44.109148029237986" lon="10.496987253427505">
        <ele>896.086181640625</ele>
        <time>2004-04-03T08:57:44Z</time>
      </trkpt>
      <trkpt lat="44.109048787504435" lon="10.497031509876251">
        <ele>896.56689453125</ele>
        <time>2004-04-03T08:57:49Z</time>
      </trkpt>
      <trkpt lat="44.108961364254355" lon="10.497059589251876">
        <ele>897.04736328125</ele>
        <time>2004-04-03T08:57:54Z</time>
      </trkpt>
      <trkpt lat="44.108860613778234" lon="10.49704072996974">
        <ele>898.0087890625</ele>
        <time>2004-04-03T08:58:00Z</time>
      </trkpt>
      <trkpt lat="44.108762294054031" lon="10.497002676129341">
        <ele>899.45068359375</ele>
        <time>2004-04-03T08:58:07Z</time>
      </trkpt>
      <trkpt lat="44.108653077855706" lon="10.496939392760396">
        <ele>899.931396484375</ele>
        <time>2004-04-03T08:58:15Z</time>
      </trkpt>
      <trkpt lat="44.10855894908309" lon="10.496875941753387">
        <ele>900.892578125</ele>
        <time>2004-04-03T08:58:22Z</time>
      </trkpt>
      <trkpt lat="44.108464820310473" lon="10.49681450240314">
        <ele>901.373291015625</ele>
        <time>2004-04-03T08:58:29Z</time>
      </trkpt>
      <trkpt lat="44.108377397060394" lon="10.496744178235531">
        <ele>901.85400390625</ele>
        <time>2004-04-03T08:58:37Z</time>
      </trkpt>
      <trkpt lat="44.108289135619998" lon="10.496646193787456">
        <ele>903.2958984375</ele>
        <time>2004-04-03T08:58:45Z</time>
      </trkpt>
      <trkpt lat="44.10819148644805" lon="10.496594980359077">
        <ele>903.776611328125</ele>
        <time>2004-04-03T08:58:52Z</time>
      </trkpt>
      <trkpt lat="44.108088975772262" lon="10.496531864628196">
        <ele>904.25732421875</ele>
        <time>2004-04-03T08:59:00Z</time>
      </trkpt>
      <trkpt lat="44.107977412641048" lon="10.496482411399484">
        <ele>905.69921875</ele>
        <time>2004-04-03T08:59:07Z</time>
      </trkpt>
      <trkpt lat="44.107875488698483" lon="10.496419379487634">
        <ele>906.1796875</ele>
        <time>2004-04-03T08:59:14Z</time>
      </trkpt>
      <trkpt lat="44.107786891981959" lon="10.496331369504333">
        <ele>907.621826171875</ele>
        <time>2004-04-03T08:59:21Z</time>
      </trkpt>
      <trkpt lat="44.107723105698824" lon="10.496198767796159">
        <ele>908.102783203125</ele>
        <time>2004-04-03T08:59:29Z</time>
      </trkpt>
      <trkpt lat="44.10772536881268" lon="10.496055772528052">
        <ele>909.06396484375</ele>
        <time>2004-04-03T08:59:37Z</time>
      </trkpt>
      <trkpt lat="44.107714053243399" lon="10.495907329022884">
        <ele>909.544677734375</ele>
        <time>2004-04-03T08:59:44Z</time>
      </trkpt>
      <trkpt lat="44.107720926403999" lon="10.495750503614545">
        <ele>910.986572265625</ele>
        <time>2004-04-03T08:59:51Z</time>
      </trkpt>
      <trkpt lat="44.107722099870443" lon="10.495612286031246">
        <ele>911.947998046875</ele>
        <time>2004-04-03T08:59:58Z</time>
      </trkpt>
      <trkpt lat="44.107646578922868" lon="10.495520085096359">
        <ele>913.389892578125</ele>
        <time>2004-04-03T09:00:05Z</time>
      </trkpt>
      <trkpt lat="44.107553707435727" lon="10.495469123125076">
        <ele>913.870361328125</ele>
        <time>2004-04-03T09:00:11Z</time>
      </trkpt>
      <trkpt lat="44.107470558956265" lon="10.49538136459887">
        <ele>915.3125</ele>
        <time>2004-04-03T09:00:18Z</time>
      </trkpt>
      <trkpt lat="44.107369724661112" lon="10.49538379535079">
        <ele>916.273681640625</ele>
        <time>2004-04-03T09:00:24Z</time>
      </trkpt>
      <trkpt lat="44.107274590060115" lon="10.495420508086681">
        <ele>917.235107421875</ele>
        <time>2004-04-03T09:00:30Z</time>
      </trkpt>
      <trkpt lat="44.107172833755612" lon="10.495461747050285">
        <ele>918.1962890625</ele>
        <time>2004-04-03T09:00:37Z</time>
      </trkpt>
      <trkpt lat="44.107048194855452" lon="10.495472894981503">
        <ele>918.1962890625</ele>
        <time>2004-04-03T09:01:08Z</time>
      </trkpt>
      <trkpt lat="44.106947276741266" lon="10.495470799505711">
        <ele>920.118896484375</ele>
        <time>2004-04-03T09:01:36Z</time>
      </trkpt>
      <trkpt lat="44.106847699731588" lon="10.495512709021568">
        <ele>922.04150390625</ele>
        <time>2004-04-03T09:01:47Z</time>
      </trkpt>
      <trkpt lat="44.106758935377002" lon="10.495522767305374">
        <ele>923.964111328125</ele>
        <time>2004-04-03T09:01:57Z</time>
      </trkpt>
      <trkpt lat="44.106669332832098" lon="10.495478259399533">
        <ele>924.445068359375</ele>
        <time>2004-04-03T09:02:08Z</time>
      </trkpt>
      <trkpt lat="44.106600601226091" lon="10.495351860299706">
        <ele>925.40625</ele>
        <time>2004-04-03T09:02:21Z</time>
      </trkpt>
      <trkpt lat="44.106580736115575" lon="10.495201908051968">
        <ele>927.3291015625</ele>
        <time>2004-04-03T09:02:34Z</time>
      </trkpt>
      <trkpt lat="44.106593895703554" lon="10.495039131492376">
        <ele>929.25146484375</ele>
        <time>2004-04-03T09:02:47Z</time>
      </trkpt>
      <trkpt lat="44.106606300920248" lon="10.494911642745137">
        <ele>931.17431640625</ele>
        <time>2004-04-03T09:02:59Z</time>
      </trkpt>
      <trkpt lat="44.106667572632432" lon="10.494717266410589">
        <ele>934.05810546875</ele>
        <time>2004-04-03T09:03:28Z</time>
      </trkpt>
      <trkpt lat="44.106692718341947" lon="10.494569996371865">
        <ele>935.01953125</ele>
        <time>2004-04-03T09:03:40Z</time>
      </trkpt>
      <trkpt lat="44.106691461056471" lon="10.49441535025835">
        <ele>935.5</ele>
        <time>2004-04-03T09:03:53Z</time>
      </trkpt>
      <trkpt lat="44.106710404157639" lon="10.494262548163533">
        <ele>936.94189453125</ele>
        <time>2004-04-03T09:04:05Z</time>
      </trkpt>
      <trkpt lat="44.106717361137271" lon="10.494108069688082">
        <ele>938.384033203125</ele>
        <time>2004-04-03T09:04:17Z</time>
      </trkpt>
      <trkpt lat="44.106687270104885" lon="10.493963314220309">
        <ele>938.384033203125</ele>
        <time>2004-04-03T09:04:28Z</time>
      </trkpt>
      <trkpt lat="44.106589369475842" lon="10.493928613141179">
        <ele>938.86474609375</ele>
        <time>2004-04-03T09:04:38Z</time>
      </trkpt>
      <trkpt lat="44.106491049751639" lon="10.493916207924485">
        <ele>939.825927734375</ele>
        <time>2004-04-03T09:04:48Z</time>
      </trkpt>
      <trkpt lat="44.106397172436118" lon="10.493860635906458">
        <ele>942.2294921875</ele>
        <time>2004-04-03T09:05:00Z</time>
      </trkpt>
      <trkpt lat="44.106305222958326" lon="10.493805231526494">
        <ele>943.190673828125</ele>
        <time>2004-04-03T09:05:13Z</time>
      </trkpt>
      <trkpt lat="44.106208411976695" lon="10.493747228756547">
        <ele>944.632568359375</ele>
        <time>2004-04-03T09:05:26Z</time>
      </trkpt>
      <trkpt lat="44.106116630136967" lon="10.493713617324829">
        <ele>945.11328125</ele>
        <time>2004-04-03T09:05:37Z</time>
      </trkpt>
      <trkpt lat="44.106029542163014" lon="10.493664080277085">
        <ele>946.555419921875</ele>
        <time>2004-04-03T09:05:49Z</time>
      </trkpt>
      <trkpt lat="44.10593843087554" lon="10.493614124134183">
        <ele>947.5166015625</ele>
        <time>2004-04-03T09:06:24Z</time>
      </trkpt>
      <trkpt lat="44.105853103101254" lon="10.493574058637023">
        <ele>948.477783203125</ele>
        <time>2004-04-03T09:06:36Z</time>
      </trkpt>
      <trkpt lat="44.10576157271862" lon="10.493539189919829">
        <ele>950.400634765625</ele>
        <time>2004-04-03T09:06:48Z</time>
      </trkpt>
      <trkpt lat="44.105662414804101" lon="10.493521923199296">
        <ele>951.36181640625</ele>
        <time>2004-04-03T09:06:58Z</time>
      </trkpt>
      <trkpt lat="44.105569124221802" lon="10.493476158007979">
        <ele>952.322998046875</ele>
        <time>2004-04-03T09:07:08Z</time>
      </trkpt>
      <trkpt lat="44.105493184179068" lon="10.493399798870087">
        <ele>953.284423828125</ele>
        <time>2004-04-03T09:07:17Z</time>
      </trkpt>
      <trkpt lat="44.105436690151691" lon="10.493294605985284">
        <ele>954.245849609375</ele>
        <time>2004-04-03T09:07:27Z</time>
      </trkpt>
      <trkpt lat="44.105410035699606" lon="10.493178348988295">
        <ele>956.16845703125</ele>
        <time>2004-04-03T09:07:39Z</time>
      </trkpt>
      <trkpt lat="44.105385476723313" lon="10.49304130487144">
        <ele>956.649169921875</ele>
        <time>2004-04-03T09:07:51Z</time>
      </trkpt>
      <trkpt lat="44.105346668511629" lon="10.492909541353583">
        <ele>958.57177734375</ele>
        <time>2004-04-03T09:08:03Z</time>
      </trkpt>
      <trkpt lat="44.105314817279577" lon="10.49277987331152">
        <ele>960.013671875</ele>
        <time>2004-04-03T09:08:14Z</time>
      </trkpt>
      <trkpt lat="44.105298556387424" lon="10.492639560252428">
        <ele>960.97509765625</ele>
        <time>2004-04-03T09:08:26Z</time>
      </trkpt>
      <trkpt lat="44.105286402627826" lon="10.492474688217044">
        <ele>962.897705078125</ele>
        <time>2004-04-03T09:08:43Z</time>
      </trkpt>
      <trkpt lat="44.105253545567393" lon="10.492334794253111">
        <ele>963.37841796875</ele>
        <time>2004-04-03T09:08:53Z</time>
      </trkpt>
      <trkpt lat="44.10518984310329" lon="10.492228846997023">
        <ele>965.78173828125</ele>
        <time>2004-04-03T09:09:06Z</time>
      </trkpt>
      <trkpt lat="44.105114573612809" lon="10.492152823135257">
        <ele>967.2236328125</ele>
        <time>2004-04-03T09:09:17Z</time>
      </trkpt>
      <trkpt lat="44.105019690468907" lon="10.492096915841103">
        <ele>969.146240234375</ele>
        <time>2004-04-03T09:09:45Z</time>
      </trkpt>
      <trkpt lat="44.104943918064237" lon="10.492022233083844">
        <ele>970.107421875</ele>
        <time>2004-04-03T09:09:56Z</time>
      </trkpt>
      <trkpt lat="44.10486345179379" lon="10.491945454850793">
        <ele>971.06884765625</ele>
        <time>2004-04-03T09:10:07Z</time>
      </trkpt>
      <trkpt lat="44.104787427932024" lon="10.491867754608393">
        <ele>972.99169921875</ele>
        <time>2004-04-03T09:10:16Z</time>
      </trkpt>
      <trkpt lat="44.104715595021844" lon="10.49176356755197">
        <ele>972.510986328125</ele>
        <time>2004-04-03T09:10:25Z</time>
      </trkpt>
      <trkpt lat="44.104666225612164" lon="10.491651836782694">
        <ele>973.472412109375</ele>
        <time>2004-04-03T09:10:35Z</time>
      </trkpt>
      <trkpt lat="44.104673601686954" lon="10.491497525945306">
        <ele>974.43359375</ele>
        <time>2004-04-03T09:11:12Z</time>
      </trkpt>
      <trkpt lat="44.1047178581357" lon="10.491382526233792">
        <ele>976.8369140625</ele>
        <time>2004-04-03T09:11:33Z</time>
      </trkpt>
      <trkpt lat="44.104766976088285" lon="10.491276998072863">
        <ele>977.317626953125</ele>
        <time>2004-04-03T09:11:41Z</time>
      </trkpt>
      <trkpt lat="44.104831935837865" lon="10.491166776046157">
        <ele>979.239990234375</ele>
        <time>2004-04-03T09:11:50Z</time>
      </trkpt>
      <trkpt lat="44.104891447350383" lon="10.491056386381388">
        <ele>981.162841796875</ele>
        <time>2004-04-03T09:11:58Z</time>
      </trkpt>
      <trkpt lat="44.10495238378644" lon="10.490929484367371">
        <ele>982.1240234375</ele>
        <time>2004-04-03T09:12:06Z</time>
      </trkpt>
      <trkpt lat="44.10504668019712" lon="10.490882126614451">
        <ele>983.085205078125</ele>
        <time>2004-04-03T09:12:14Z</time>
      </trkpt>
      <trkpt lat="44.105142317712307" lon="10.490853963419795">
        <ele>984.046630859375</ele>
        <time>2004-04-03T09:12:21Z</time>
      </trkpt>
      <trkpt lat="44.105244660750031" lon="10.490812389180064">
        <ele>985.008056640625</ele>
        <time>2004-04-03T09:12:29Z</time>
      </trkpt>
      <trkpt lat="44.105333341285586" lon="10.490721613168716">
        <ele>986.449951171875</ele>
        <time>2004-04-03T09:12:37Z</time>
      </trkpt>
      <trkpt lat="44.105415819212794" lon="10.490604266524315">
        <ele>988.372802734375</ele>
        <time>2004-04-03T09:12:46Z</time>
      </trkpt>
      <trkpt lat="44.105488155037165" lon="10.490485914051533">
        <ele>989.814697265625</ele>
        <time>2004-04-03T09:12:55Z</time>
      </trkpt>
      <trkpt lat="44.10554900765419" lon="10.490338979288936">
        <ele>991.256591796875</ele>
        <time>2004-04-03T09:13:05Z</time>
      </trkpt>
      <trkpt lat="44.105602316558361" lon="10.490206042304635">
        <ele>991.256591796875</ele>
        <time>2004-04-03T09:13:13Z</time>
      </trkpt>
      <trkpt lat="44.105762494727969" lon="10.4899712651968">
        <ele>991.256591796875</ele>
        <time>2004-04-03T09:14:35Z</time>
      </trkpt>
      <trkpt lat="44.105858467519283" lon="10.489866575226188">
        <ele>992.218017578125</ele>
        <time>2004-04-03T09:15:13Z</time>
      </trkpt>
      <trkpt lat="44.105926780030131" lon="10.489770770072937">
        <ele>990.77587890625</ele>
        <time>2004-04-03T09:15:22Z</time>
      </trkpt>
      <trkpt lat="44.10597363486886" lon="10.489651663228869">
        <ele>989.814697265625</ele>
        <time>2004-04-03T09:15:28Z</time>
      </trkpt>
      <trkpt lat="44.105889229103923" lon="10.489576226100326">
        <ele>990.29541015625</ele>
        <time>2004-04-03T09:15:32Z</time>
      </trkpt>
      <trkpt lat="44.105782695114613" lon="10.489491987973452">
        <ele>990.29541015625</ele>
        <time>2004-04-03T09:15:36Z</time>
      </trkpt>
      <trkpt lat="44.105693008750677" lon="10.489391069859266">
        <ele>990.29541015625</ele>
        <time>2004-04-03T09:15:40Z</time>
      </trkpt>
      <trkpt lat="44.105637604370713" lon="10.489273220300674">
        <ele>989.814697265625</ele>
        <time>2004-04-03T09:15:44Z</time>
      </trkpt>
      <trkpt lat="44.105708515271544" lon="10.489155622199178">
        <ele>991.7373046875</ele>
        <time>2004-04-03T09:15:49Z</time>
      </trkpt>
      <trkpt lat="44.105785712599754" lon="10.489043975248933">
        <ele>993.659912109375</ele>
        <time>2004-04-03T09:15:55Z</time>
      </trkpt>
      <trkpt lat="44.105828125029802" lon="10.48884985037148">
        <ele>993.17919921875</ele>
        <time>2004-04-03T09:16:32Z</time>
      </trkpt>
      <trkpt lat="44.105929881334305" lon="10.488674668595195">
        <ele>992.218017578125</ele>
        <time>2004-04-03T09:23:04Z</time>
      </trkpt>
      <trkpt lat="44.105915548279881" lon="10.488554472103715">
        <ele>990.77587890625</ele>
        <time>2004-04-03T09:23:10Z</time>
      </trkpt>
      <trkpt lat="44.105857294052839" lon="10.488410638645291">
        <ele>988.853515625</ele>
        <time>2004-04-03T09:23:43Z</time>
      </trkpt>
      <trkpt lat="44.105892665684223" lon="10.488271918147802">
        <ele>987.891845703125</ele>
        <time>2004-04-03T09:23:47Z</time>
      </trkpt>
      <trkpt lat="44.105954943224788" lon="10.488142166286707">
        <ele>986.449951171875</ele>
        <time>2004-04-03T09:23:51Z</time>
      </trkpt>
      <trkpt lat="44.106040438637137" lon="10.488046025857329">
        <ele>985.96923828125</ele>
        <time>2004-04-03T09:23:55Z</time>
      </trkpt>
      <trkpt lat="44.106145380064845" lon="10.487989615648985">
        <ele>985.96923828125</ele>
        <time>2004-04-03T09:23:59Z</time>
      </trkpt>
      <trkpt lat="44.106239005923271" lon="10.487950807437301">
        <ele>986.449951171875</ele>
        <time>2004-04-03T09:24:03Z</time>
      </trkpt>
      <trkpt lat="44.106355765834451" lon="10.487930607050657">
        <ele>986.449951171875</ele>
        <time>2004-04-03T09:24:08Z</time>
      </trkpt>
      <trkpt lat="44.10646079108119" lon="10.48789263702929">
        <ele>985.96923828125</ele>
        <time>2004-04-03T09:24:12Z</time>
      </trkpt>
      <trkpt lat="44.106561960652471" lon="10.487814685329795">
        <ele>985.96923828125</ele>
        <time>2004-04-03T09:24:16Z</time>
      </trkpt>
      <trkpt lat="44.106657933443785" lon="10.487740589305758">
        <ele>984.52734375</ele>
        <time>2004-04-03T09:24:20Z</time>
      </trkpt>
      <trkpt lat="44.106768406927586" lon="10.487682251259685">
        <ele>984.046630859375</ele>
        <time>2004-04-03T09:24:24Z</time>
      </trkpt>
      <trkpt lat="44.106896901503205" lon="10.487695913761854">
        <ele>982.604736328125</ele>
        <time>2004-04-03T09:24:28Z</time>
      </trkpt>
      <trkpt lat="44.107003686949611" lon="10.487762885168195">
        <ele>982.1240234375</ele>
        <time>2004-04-03T09:24:31Z</time>
      </trkpt>
      <trkpt lat="44.107099240645766" lon="10.487858941778541">
        <ele>981.162841796875</ele>
        <time>2004-04-03T09:24:34Z</time>
      </trkpt>
      <trkpt lat="44.107190268114209" lon="10.487950136885047">
        <ele>980.68212890625</ele>
        <time>2004-04-03T09:24:37Z</time>
      </trkpt>
      <trkpt lat="44.107301663607359" lon="10.487999590113759">
        <ele>980.201416015625</ele>
        <time>2004-04-03T09:24:40Z</time>
      </trkpt>
      <trkpt lat="44.10739554092288" lon="10.487903449684381">
        <ele>979.720703125</ele>
        <time>2004-04-03T09:24:44Z</time>
      </trkpt>
      <trkpt lat="44.107508361339569" lon="10.487882075831294">
        <ele>979.720703125</ele>
        <time>2004-04-03T09:24:48Z</time>
      </trkpt>
      <trkpt lat="44.107625707983971" lon="10.48789456486702">
        <ele>979.239990234375</ele>
        <time>2004-04-03T09:24:52Z</time>
      </trkpt>
      <trkpt lat="44.107739869505167" lon="10.487910909578204">
        <ele>979.239990234375</ele>
        <time>2004-04-03T09:24:56Z</time>
      </trkpt>
      <trkpt lat="44.107853276655078" lon="10.4878662340343">
        <ele>979.239990234375</ele>
        <time>2004-04-03T09:25:01Z</time>
      </trkpt>
      <trkpt lat="44.107948495075107" lon="10.487763052806258">
        <ele>978.27880859375</ele>
        <time>2004-04-03T09:25:05Z</time>
      </trkpt>
      <trkpt lat="44.108032817021012" lon="10.487662386149168">
        <ele>977.798095703125</ele>
        <time>2004-04-03T09:25:09Z</time>
      </trkpt>
      <trkpt lat="44.108107248321176" lon="10.48754864372313">
        <ele>976.8369140625</ele>
        <time>2004-04-03T09:25:13Z</time>
      </trkpt>
      <trkpt lat="44.108166927471757" lon="10.487459795549512">
        <ele>975.87548828125</ele>
        <time>2004-04-03T09:25:18Z</time>
      </trkpt>
      <trkpt lat="44.108254015445709" lon="10.487346975132823">
        <ele>973.472412109375</ele>
        <time>2004-04-03T09:25:37Z</time>
      </trkpt>
      <trkpt lat="44.108311431482434" lon="10.487244548276067">
        <ele>973.472412109375</ele>
        <time>2004-04-03T09:25:41Z</time>
      </trkpt>
      <trkpt lat="44.108372619375587" lon="10.487151509150863">
        <ele>972.510986328125</ele>
        <time>2004-04-03T09:25:45Z</time>
      </trkpt>
      <trkpt lat="44.108466831967235" lon="10.4870580509305">
        <ele>971.06884765625</ele>
        <time>2004-04-03T09:25:49Z</time>
      </trkpt>
      <trkpt lat="44.108546376228333" lon="10.487030055373907">
        <ele>970.107421875</ele>
        <time>2004-04-03T09:25:53Z</time>
      </trkpt>
      <trkpt lat="44.108651150017977" lon="10.487044304609299">
        <ele>970.107421875</ele>
        <time>2004-04-03T09:25:58Z</time>
      </trkpt>
      <trkpt lat="44.108746619895101" lon="10.487137595191598">
        <ele>968.184814453125</ele>
        <time>2004-04-03T09:26:02Z</time>
      </trkpt>
      <trkpt lat="44.108806382864714" lon="10.487233148887753">
        <ele>966.742919921875</ele>
        <time>2004-04-03T09:26:05Z</time>
      </trkpt>
      <trkpt lat="44.108860781416297" lon="10.487335994839668">
        <ele>965.78173828125</ele>
        <time>2004-04-03T09:26:08Z</time>
      </trkpt>
      <trkpt lat="44.108916604891419" lon="10.487455269321799">
        <ele>965.301025390625</ele>
        <time>2004-04-03T09:26:11Z</time>
      </trkpt>
      <trkpt lat="44.108980894088745" lon="10.487590972334146">
        <ele>963.85888671875</ele>
        <time>2004-04-03T09:26:14Z</time>
      </trkpt>
      <trkpt lat="44.109056079760194" lon="10.487720808014274">
        <ele>962.4169921875</ele>
        <time>2004-04-03T09:26:17Z</time>
      </trkpt>
      <trkpt lat="44.109150795266032" lon="10.487835891544819">
        <ele>960.97509765625</ele>
        <time>2004-04-03T09:26:20Z</time>
      </trkpt>
      <trkpt lat="44.109224807471037" lon="10.487833209335804">
        <ele>959.533203125</ele>
        <time>2004-04-03T09:26:24Z</time>
      </trkpt>
      <trkpt lat="44.109226483851671" lon="10.487722400575876">
        <ele>958.09130859375</ele>
        <time>2004-04-03T09:27:14Z</time>
      </trkpt>
      <trkpt lat="44.109158087521791" lon="10.487641096115112">
        <ele>957.1298828125</ele>
        <time>2004-04-03T09:27:18Z</time>
      </trkpt>
      <trkpt lat="44.109094720333815" lon="10.487520564347506">
        <ele>956.649169921875</ele>
        <time>2004-04-03T09:27:19Z</time>
      </trkpt>
      <trkpt lat="44.109068568795919" lon="10.487322499975562">
        <ele>955.20703125</ele>
        <time>2004-04-03T09:27:21Z</time>
      </trkpt>
      <trkpt lat="44.109046440571547" lon="10.487126531079412">
        <ele>953.284423828125</ele>
        <time>2004-04-03T09:27:23Z</time>
      </trkpt>
      <trkpt lat="44.109025485813618" lon="10.486956043168902">
        <ele>952.322998046875</ele>
        <time>2004-04-03T09:27:25Z</time>
      </trkpt>
      <trkpt lat="44.108998915180564" lon="10.486807683482766">
        <ele>951.842529296875</ele>
        <time>2004-04-03T09:27:27Z</time>
      </trkpt>
      <trkpt lat="44.108965890482068" lon="10.486672818660736">
        <ele>950.400634765625</ele>
        <time>2004-04-03T09:27:29Z</time>
      </trkpt>
      <trkpt lat="44.108902690932155" lon="10.486556477844715">
        <ele>947.035888671875</ele>
        <time>2004-04-03T09:27:31Z</time>
      </trkpt>
      <trkpt lat="44.108826080337167" lon="10.486467042937875">
        <ele>945.593994140625</ele>
        <time>2004-04-03T09:27:33Z</time>
      </trkpt>
      <trkpt lat="44.108715020120144" lon="10.48636469990015">
        <ele>944.632568359375</ele>
        <time>2004-04-03T09:27:36Z</time>
      </trkpt>
      <trkpt lat="44.108630446717143" lon="10.486279372125864">
        <ele>943.67138671875</ele>
        <time>2004-04-03T09:27:39Z</time>
      </trkpt>
      <trkpt lat="44.108527768403292" lon="10.486231008544564">
        <ele>943.67138671875</ele>
        <time>2004-04-03T09:27:43Z</time>
      </trkpt>
      <trkpt lat="44.108426347374916" lon="10.486223045736551">
        <ele>943.67138671875</ele>
        <time>2004-04-03T09:27:47Z</time>
      </trkpt>
      <trkpt lat="44.108318137004972" lon="10.486274091526866">
        <ele>943.190673828125</ele>
        <time>2004-04-03T09:27:52Z</time>
      </trkpt>
      <trkpt lat="44.108223505318165" lon="10.486342487856746">
        <ele>942.710205078125</ele>
        <time>2004-04-03T09:27:57Z</time>
      </trkpt>
      <trkpt lat="44.108168603852391" lon="10.486457655206323">
        <ele>942.2294921875</ele>
        <time>2004-04-03T09:28:02Z</time>
      </trkpt>
      <trkpt lat="44.108134489506483" lon="10.486603081226349">
        <ele>941.748779296875</ele>
        <time>2004-04-03T09:28:07Z</time>
      </trkpt>
      <trkpt lat="44.108087467029691" lon="10.486693270504475">
        <ele>941.26806640625</ele>
        <time>2004-04-03T09:28:13Z</time>
      </trkpt>
      <trkpt lat="44.107974814251065" lon="10.486847581341863">
        <ele>940.306884765625</ele>
        <time>2004-04-03T09:28:59Z</time>
      </trkpt>
      <trkpt lat="44.107882361859083" lon="10.486923772841692">
        <ele>939.34521484375</ele>
        <time>2004-04-03T09:29:03Z</time>
      </trkpt>
      <trkpt lat="44.107789155095816" lon="10.486979177221656">
        <ele>938.384033203125</ele>
        <time>2004-04-03T09:29:06Z</time>
      </trkpt>
      <trkpt lat="44.107711287215352" lon="10.487045394256711">
        <ele>938.384033203125</ele>
        <time>2004-04-03T09:29:09Z</time>
      </trkpt>
      <trkpt lat="44.107624785974622" lon="10.487153269350529">
        <ele>937.9033203125</ele>
        <time>2004-04-03T09:29:13Z</time>
      </trkpt>
      <trkpt lat="44.107527807354927" lon="10.487201130017638">
        <ele>935.5</ele>
        <time>2004-04-03T09:29:18Z</time>
      </trkpt>
      <trkpt lat="44.107408784329891" lon="10.487199872732162">
        <ele>935.5</ele>
        <time>2004-04-03T09:29:24Z</time>
      </trkpt>
      <trkpt lat="44.107323456555605" lon="10.487098284065723">
        <ele>934.538818359375</ele>
        <time>2004-04-03T09:29:30Z</time>
      </trkpt>
      <trkpt lat="44.107272913679481" lon="10.486901644617319">
        <ele>932.6162109375</ele>
        <time>2004-04-03T09:29:35Z</time>
      </trkpt>
      <trkpt lat="44.107250701636076" lon="10.48675462603569">
        <ele>932.135498046875</ele>
        <time>2004-04-03T09:29:38Z</time>
      </trkpt>
      <trkpt lat="44.107223963364959" lon="10.486611714586616">
        <ele>931.65478515625</ele>
        <time>2004-04-03T09:29:41Z</time>
      </trkpt>
      <trkpt lat="44.107181886211038" lon="10.486431503668427">
        <ele>930.212890625</ele>
        <time>2004-04-03T09:29:45Z</time>
      </trkpt>
      <trkpt lat="44.107128493487835" lon="10.486276187002659">
        <ele>928.77099609375</ele>
        <time>2004-04-03T09:29:49Z</time>
      </trkpt>
      <trkpt lat="44.107055906206369" lon="10.486120199784636">
        <ele>928.290283203125</ele>
        <time>2004-04-03T09:29:53Z</time>
      </trkpt>
      <trkpt lat="44.106986755505204" lon="10.486021209508181">
        <ele>927.3291015625</ele>
        <time>2004-04-03T09:29:56Z</time>
      </trkpt>
      <trkpt lat="44.10689665004611" lon="10.485968319699168">
        <ele>925.886962890625</ele>
        <time>2004-04-03T09:29:59Z</time>
      </trkpt>
      <trkpt lat="44.106823559850454" lon="10.486034788191319">
        <ele>924.92578125</ele>
        <time>2004-04-03T09:30:02Z</time>
      </trkpt>
      <trkpt lat="44.106755750253797" lon="10.48616093583405">
        <ele>923.964111328125</ele>
        <time>2004-04-03T09:30:05Z</time>
      </trkpt>
      <trkpt lat="44.106671763584018" lon="10.48628892749548">
        <ele>923.0029296875</ele>
        <time>2004-04-03T09:30:09Z</time>
      </trkpt>
      <trkpt lat="44.10660688765347" lon="10.48638766631484">
        <ele>922.04150390625</ele>
        <time>2004-04-03T09:30:12Z</time>
      </trkpt>
      <trkpt lat="44.106537317857146" lon="10.486487662419677">
        <ele>921.080322265625</ele>
        <time>2004-04-03T09:30:15Z</time>
      </trkpt>
      <trkpt lat="44.10644318908453" lon="10.486599896103144">
        <ele>919.15771484375</ele>
        <time>2004-04-03T09:30:19Z</time>
      </trkpt>
      <trkpt lat="44.106345372274518" lon="10.48669595271349">
        <ele>918.677001953125</ele>
        <time>2004-04-03T09:30:23Z</time>
      </trkpt>
      <trkpt lat="44.106246549636126" lon="10.486692013218999">
        <ele>917.715576171875</ele>
        <time>2004-04-03T09:30:27Z</time>
      </trkpt>
      <trkpt lat="44.106135489419103" lon="10.486586736515164">
        <ele>915.793212890625</ele>
        <time>2004-04-03T09:30:32Z</time>
      </trkpt>
      <trkpt lat="44.106071535497904" lon="10.486457822844386">
        <ele>913.870361328125</ele>
        <time>2004-04-03T09:30:35Z</time>
      </trkpt>
      <trkpt lat="44.106010599061847" lon="10.486327400431037">
        <ele>913.389892578125</ele>
        <time>2004-04-03T09:30:38Z</time>
      </trkpt>
      <trkpt lat="44.105947483330965" lon="10.486193038523197">
        <ele>911.947998046875</ele>
        <time>2004-04-03T09:30:41Z</time>
      </trkpt>
      <trkpt lat="44.10587782971561" lon="10.486052390187979">
        <ele>911.46728515625</ele>
        <time>2004-04-03T09:30:44Z</time>
      </trkpt>
      <trkpt lat="44.105786383152008" lon="10.485933618620038">
        <ele>910.025146484375</ele>
        <time>2004-04-03T09:30:47Z</time>
      </trkpt>
      <trkpt lat="44.105683453381062" lon="10.485850973054767">
        <ele>908.583251953125</ele>
        <time>2004-04-03T09:30:50Z</time>
      </trkpt>
      <trkpt lat="44.105589324608445" lon="10.485780145972967">
        <ele>907.621826171875</ele>
        <time>2004-04-03T09:30:53Z</time>
      </trkpt>
      <trkpt lat="44.105486897751689" lon="10.485677970573306">
        <ele>906.1796875</ele>
        <time>2004-04-03T09:30:57Z</time>
      </trkpt>
      <trkpt lat="44.105421015992761" lon="10.48556188121438">
        <ele>906.1796875</ele>
        <time>2004-04-03T09:31:01Z</time>
      </trkpt>
      <trkpt lat="44.105403833091259" lon="10.485387202352285">
        <ele>904.25732421875</ele>
        <time>2004-04-03T09:31:06Z</time>
      </trkpt>
      <trkpt lat="44.105412382632494" lon="10.485201710835099">
        <ele>902.815185546875</ele>
        <time>2004-04-03T09:31:10Z</time>
      </trkpt>
      <trkpt lat="44.105400312691927" lon="10.485049495473504">
        <ele>901.373291015625</ele>
        <time>2004-04-03T09:31:13Z</time>
      </trkpt>
      <trkpt lat="44.105351865291595" lon="10.484916977584362">
        <ele>900.412109375</ele>
        <time>2004-04-03T09:31:16Z</time>
      </trkpt>
      <trkpt lat="44.105279864743352" lon="10.484803821891546">
        <ele>899.931396484375</ele>
        <time>2004-04-03T09:31:19Z</time>
      </trkpt>
      <trkpt lat="44.105205601081252" lon="10.484714051708579">
        <ele>898.969970703125</ele>
        <time>2004-04-03T09:31:22Z</time>
      </trkpt>
      <trkpt lat="44.105123374611139" lon="10.484617324545979">
        <ele>897.04736328125</ele>
        <time>2004-04-03T09:31:25Z</time>
      </trkpt>
      <trkpt lat="44.105041734874249" lon="10.48451766371727">
        <ele>895.124755859375</ele>
        <time>2004-04-03T09:31:28Z</time>
      </trkpt>
      <trkpt lat="44.104957999661565" lon="10.484428061172366">
        <ele>893.682861328125</ele>
        <time>2004-04-03T09:31:31Z</time>
      </trkpt>
      <trkpt lat="44.104877365753055" lon="10.484338961541653">
        <ele>892.7216796875</ele>
        <time>2004-04-03T09:31:34Z</time>
      </trkpt>
      <trkpt lat="44.10479505546391" lon="10.484222788363695">
        <ele>892.240966796875</ele>
        <time>2004-04-03T09:31:38Z</time>
      </trkpt>
      <trkpt lat="44.104713834822178" lon="10.484109381213784">
        <ele>890.318115234375</ele>
        <time>2004-04-03T09:31:42Z</time>
      </trkpt>
      <trkpt lat="44.104640744626522" lon="10.483992956578732">
        <ele>889.356689453125</ele>
        <time>2004-04-03T09:31:46Z</time>
      </trkpt>
      <trkpt lat="44.10455659031868" lon="10.483894133940339">
        <ele>887.43408203125</ele>
        <time>2004-04-03T09:31:50Z</time>
      </trkpt>
      <trkpt lat="44.10445692948997" lon="10.483856499195099">
        <ele>885.9921875</ele>
        <time>2004-04-03T09:31:54Z</time>
      </trkpt>
      <trkpt lat="44.104354921728373" lon="10.483863623812795">
        <ele>885.031005859375</ele>
        <time>2004-04-03T09:31:58Z</time>
      </trkpt>
      <trkpt lat="44.104221314191818" lon="10.484007792547345">
        <ele>883.108154296875</ele>
        <time>2004-04-03T09:32:35Z</time>
      </trkpt>
      <trkpt lat="44.10410363227129" lon="10.484059760347009">
        <ele>883.108154296875</ele>
        <time>2004-04-03T09:32:40Z</time>
      </trkpt>
      <trkpt lat="44.104004725813866" lon="10.484078284353018">
        <ele>882.14697265625</ele>
        <time>2004-04-03T09:32:44Z</time>
      </trkpt>
      <trkpt lat="44.1039028018713" lon="10.484090270474553">
        <ele>881.185791015625</ele>
        <time>2004-04-03T09:32:48Z</time>
      </trkpt>
      <trkpt lat="44.103790568187833" lon="10.484094293788075">
        <ele>881.185791015625</ele>
        <time>2004-04-03T09:32:52Z</time>
      </trkpt>
      <trkpt lat="44.103684201836586" lon="10.484082391485572">
        <ele>879.74365234375</ele>
        <time>2004-04-03T09:32:56Z</time>
      </trkpt>
      <trkpt lat="44.103589234873652" lon="10.484036542475224">
        <ele>878.3017578125</ele>
        <time>2004-04-03T09:33:00Z</time>
      </trkpt>
      <trkpt lat="44.103488400578499" lon="10.483987424522638">
        <ele>877.821044921875</ele>
        <time>2004-04-03T09:33:04Z</time>
      </trkpt>
      <trkpt lat="44.10338731482625" lon="10.484040314331651">
        <ele>876.85986328125</ele>
        <time>2004-04-03T09:33:08Z</time>
      </trkpt>
      <trkpt lat="44.103333754464984" lon="10.484144669026136">
        <ele>876.379150390625</ele>
        <time>2004-04-03T09:33:11Z</time>
      </trkpt>
      <trkpt lat="44.103304920718074" lon="10.484289675951004">
        <ele>874.456298828125</ele>
        <time>2004-04-03T09:33:15Z</time>
      </trkpt>
      <trkpt lat="44.103288156911731" lon="10.484418086707592">
        <ele>873.014404296875</ele>
        <time>2004-04-03T09:33:18Z</time>
      </trkpt>
      <trkpt lat="44.103265274316072" lon="10.484568877145648">
        <ele>872.052978515625</ele>
        <time>2004-04-03T09:33:21Z</time>
      </trkpt>
      <trkpt lat="44.103230824694037" lon="10.484730899333954">
        <ele>870.13037109375</ele>
        <time>2004-04-03T09:33:24Z</time>
      </trkpt>
      <trkpt lat="44.103190507739782" lon="10.484899878501892">
        <ele>869.169189453125</ele>
        <time>2004-04-03T09:33:27Z</time>
      </trkpt>
      <trkpt lat="44.103126218542457" lon="10.48505905084312">
        <ele>868.6884765625</ele>
        <time>2004-04-03T09:33:30Z</time>
      </trkpt>
      <trkpt lat="44.102978026494384" lon="10.485071623697877">
        <ele>867.72705078125</ele>
        <time>2004-04-03T09:33:33Z</time>
      </trkpt>
      <trkpt lat="44.10287031903863" lon="10.485044717788696">
        <ele>867.72705078125</ele>
        <time>2004-04-03T09:33:35Z</time>
      </trkpt>
      <trkpt lat="44.102759007364511" lon="10.48502585850656">
        <ele>867.72705078125</ele>
        <time>2004-04-03T09:33:37Z</time>
      </trkpt>
      <trkpt lat="44.102657083421946" lon="10.485026361420751">
        <ele>867.24658203125</ele>
        <time>2004-04-03T09:33:39Z</time>
      </trkpt>
      <trkpt lat="44.102518614381552" lon="10.485092829912901">
        <ele>865.323974609375</ele>
        <time>2004-04-03T09:33:42Z</time>
      </trkpt>
      <trkpt lat="44.102439070120454" lon="10.485162734985352">
        <ele>863.8818359375</ele>
        <time>2004-04-03T09:33:44Z</time>
      </trkpt>
      <trkpt lat="44.102353826165199" lon="10.485214786604047">
        <ele>862.920654296875</ele>
        <time>2004-04-03T09:33:46Z</time>
      </trkpt>
      <trkpt lat="44.102225583046675" lon="10.485239010304213">
        <ele>860.517333984375</ele>
        <time>2004-04-03T09:33:49Z</time>
      </trkpt>
      <trkpt lat="44.102097675204277" lon="10.485140942037106">
        <ele>859.0751953125</ele>
        <time>2004-04-03T09:33:52Z</time>
      </trkpt>
      <trkpt lat="44.102017795667052" lon="10.48504245467484">
        <ele>858.114013671875</ele>
        <time>2004-04-03T09:33:54Z</time>
      </trkpt>
      <trkpt lat="44.101894246414304" lon="10.48494866117835">
        <ele>856.191162109375</ele>
        <time>2004-04-03T09:33:57Z</time>
      </trkpt>
      <trkpt lat="44.101746138185263" lon="10.484937764704227">
        <ele>854.749267578125</ele>
        <time>2004-04-03T09:34:00Z</time>
      </trkpt>
      <trkpt lat="44.101627534255385" lon="10.484943799674511">
        <ele>854.268798828125</ele>
        <time>2004-04-03T09:34:02Z</time>
      </trkpt>
      <trkpt lat="44.101505829021335" lon="10.484953438863158">
        <ele>852.345947265625</ele>
        <time>2004-04-03T09:34:04Z</time>
      </trkpt>
      <trkpt lat="44.101389655843377" lon="10.484974896535277">
        <ele>851.384765625</ele>
        <time>2004-04-03T09:34:06Z</time>
      </trkpt>
      <trkpt lat="44.101272812113166" lon="10.48501898534596">
        <ele>849.94287109375</ele>
        <time>2004-04-03T09:34:08Z</time>
      </trkpt>
      <trkpt lat="44.101157309487462" lon="10.48507179133594">
        <ele>848.9814453125</ele>
        <time>2004-04-03T09:34:10Z</time>
      </trkpt>
      <trkpt lat="44.101039627566934" lon="10.485116383060813">
        <ele>846.09765625</ele>
        <time>2004-04-03T09:34:12Z</time>
      </trkpt>
      <trkpt lat="44.100923789665103" lon="10.485127866268158">
        <ele>845.616943359375</ele>
        <time>2004-04-03T09:34:14Z</time>
      </trkpt>
      <trkpt lat="44.100804515182972" lon="10.485106576234102">
        <ele>844.175048828125</ele>
        <time>2004-04-03T09:34:16Z</time>
      </trkpt>
      <trkpt lat="44.100682893767953" lon="10.485051339492202">
        <ele>842.252197265625</ele>
        <time>2004-04-03T09:34:18Z</time>
      </trkpt>
      <trkpt lat="44.100564876571298" lon="10.484970789402723">
        <ele>840.81005859375</ele>
        <time>2004-04-03T09:34:20Z</time>
      </trkpt>
      <trkpt lat="44.100450463593006" lon="10.484869703650475">
        <ele>838.8876953125</ele>
        <time>2004-04-03T09:34:22Z</time>
      </trkpt>
      <trkpt lat="44.100335799157619" lon="10.484744142740965">
        <ele>837.445556640625</ele>
        <time>2004-04-03T09:34:24Z</time>
      </trkpt>
      <trkpt lat="44.100220967084169" lon="10.484612882137299">
        <ele>835.52294921875</ele>
        <time>2004-04-03T09:34:26Z</time>
      </trkpt>
      <trkpt lat="44.100101692602038" lon="10.484464187175035">
        <ele>833.600341796875</ele>
        <time>2004-04-03T09:34:28Z</time>
      </trkpt>
      <trkpt lat="44.099981831386685" lon="10.484325801953673">
        <ele>832.158447265625</ele>
        <time>2004-04-03T09:34:30Z</time>
      </trkpt>
      <trkpt lat="44.099861634895205" lon="10.484168054535985">
        <ele>830.716552734375</ele>
        <time>2004-04-03T09:34:32Z</time>
      </trkpt>
      <trkpt lat="44.09974604845047" lon="10.48400804400444">
        <ele>830.23583984375</ele>
        <time>2004-04-03T09:34:34Z</time>
      </trkpt>
      <trkpt lat="44.099637838080525" lon="10.483852894976735">
        <ele>828.7939453125</ele>
        <time>2004-04-03T09:34:36Z</time>
      </trkpt>
      <trkpt lat="44.09953985363245" lon="10.483711743727326">
        <ele>827.351806640625</ele>
        <time>2004-04-03T09:34:38Z</time>
      </trkpt>
      <trkpt lat="44.099437175318599" lon="10.483584087342024">
        <ele>825.428955078125</ele>
        <time>2004-04-03T09:34:40Z</time>
      </trkpt>
      <trkpt lat="44.099335167557001" lon="10.483444444835186">
        <ele>823.506591796875</ele>
        <time>2004-04-03T09:34:42Z</time>
      </trkpt>
      <trkpt lat="44.099234249442816" lon="10.483331372961402">
        <ele>822.545166015625</ele>
        <time>2004-04-03T09:34:44Z</time>
      </trkpt>
      <trkpt lat="44.099116902798414" lon="10.483281835913658">
        <ele>820.62255859375</ele>
        <time>2004-04-03T09:34:46Z</time>
      </trkpt>
      <trkpt lat="44.098995616659522" lon="10.483267502859235">
        <ele>819.661376953125</ele>
        <time>2004-04-03T09:34:48Z</time>
      </trkpt>
      <trkpt lat="44.09889386035502" lon="10.483264653012156">
        <ele>818.699951171875</ele>
        <time>2004-04-03T09:34:50Z</time>
      </trkpt>
      <trkpt lat="44.098809706047177" lon="10.483276890590787">
        <ele>817.738525390625</ele>
        <time>2004-04-03T09:34:52Z</time>
      </trkpt>
      <trkpt lat="44.098708285018802" lon="10.483277644962072">
        <ele>815.33544921875</ele>
        <time>2004-04-03T09:34:55Z</time>
      </trkpt>
      <trkpt lat="44.098630836233497" lon="10.483319219201803">
        <ele>813.893310546875</ele>
        <time>2004-04-03T09:34:59Z</time>
      </trkpt>
      <trkpt lat="44.098609713837504" lon="10.483357524499297">
        <ele>811.00927734375</ele>
        <time>2004-04-03T09:35:17Z</time>
      </trkpt>
      <trkpt lat="44.098602589219809" lon="10.483437152579427">
        <ele>811.00927734375</ele>
        <time>2004-04-03T09:35:22Z</time>
      </trkpt>
      <trkpt lat="44.098600996658206" lon="10.483463807031512">
        <ele>811.00927734375</ele>
        <time>2004-04-03T09:35:28Z</time>
      </trkpt>
      <trkpt lat="44.098569815978408" lon="10.483420975506306">
        <ele>810.0478515625</ele>
        <time>2004-04-03T09:36:00Z</time>
      </trkpt>
      <trkpt lat="44.098547184839845" lon="10.483520552515984">
        <ele>808.12548828125</ele>
        <time>2004-04-03T09:36:11Z</time>
      </trkpt>
      <trkpt lat="44.098576102405787" lon="10.483633708208799">
        <ele>807.644775390625</ele>
        <time>2004-04-03T09:36:17Z</time>
      </trkpt>
      <trkpt lat="44.09861147403717" lon="10.483746696263552">
        <ele>807.1640625</ele>
        <time>2004-04-03T09:36:22Z</time>
      </trkpt>
      <trkpt lat="44.098657071590424" lon="10.483846105635166">
        <ele>806.683349609375</ele>
        <time>2004-04-03T09:36:26Z</time>
      </trkpt>
      <trkpt lat="44.098694287240505" lon="10.483967559412122">
        <ele>804.2802734375</ele>
        <time>2004-04-03T09:36:31Z</time>
      </trkpt>
      <trkpt lat="44.098588591441512" lon="10.483979042619467">
        <ele>803.31884765625</ele>
        <time>2004-04-03T09:36:36Z</time>
      </trkpt>
      <trkpt lat="44.09846437163651" lon="10.483940737321973">
        <ele>801.396240234375</ele>
        <time>2004-04-03T09:36:40Z</time>
      </trkpt>
      <trkpt lat="44.098367476835847" lon="10.483914166688919">
        <ele>801.396240234375</ele>
        <time>2004-04-03T09:36:43Z</time>
      </trkpt>
      <trkpt lat="44.098253063857555" lon="10.483875945210457">
        <ele>800.91552734375</ele>
        <time>2004-04-03T09:36:47Z</time>
      </trkpt>
      <trkpt lat="44.098147787153721" lon="10.483841663226485">
        <ele>799.4736328125</ele>
        <time>2004-04-03T09:36:52Z</time>
      </trkpt>
      <trkpt lat="44.098050137981772" lon="10.483765136450529">
        <ele>797.551025390625</ele>
        <time>2004-04-03T09:36:58Z</time>
      </trkpt>
      <trkpt lat="44.097958523780107" lon="10.483640497550368">
        <ele>796.58984375</ele>
        <time>2004-04-03T09:37:03Z</time>
      </trkpt>
      <trkpt lat="44.097895240411162" lon="10.483524743467569">
        <ele>796.109130859375</ele>
        <time>2004-04-03T09:37:07Z</time>
      </trkpt>
      <trkpt lat="44.097820725291967" lon="10.483426423743367">
        <ele>794.186279296875</ele>
        <time>2004-04-03T09:37:11Z</time>
      </trkpt>
      <trkpt lat="44.097716454416513" lon="10.483335480093956">
        <ele>793.224853515625</ele>
        <time>2004-04-03T09:37:15Z</time>
      </trkpt>
      <trkpt lat="44.097606651484966" lon="10.483259540051222">
        <ele>792.263671875</ele>
        <time>2004-04-03T09:37:19Z</time>
      </trkpt>
      <trkpt lat="44.097510930150747" lon="10.483198435977101">
        <ele>791.782958984375</ele>
        <time>2004-04-03T09:37:23Z</time>
      </trkpt>
      <trkpt lat="44.097416633740067" lon="10.483129369094968">
        <ele>790.821533203125</ele>
        <time>2004-04-03T09:37:27Z</time>
      </trkpt>
      <trkpt lat="44.097321499139071" lon="10.483068516477942">
        <ele>790.341064453125</ele>
        <time>2004-04-03T09:37:30Z</time>
      </trkpt>
      <trkpt lat="44.097232148051262" lon="10.483016381040215">
        <ele>789.8603515625</ele>
        <time>2004-04-03T09:37:33Z</time>
      </trkpt>
      <trkpt lat="44.097122764214873" lon="10.482946308329701">
        <ele>788.899169921875</ele>
        <time>2004-04-03T09:37:37Z</time>
      </trkpt>
      <trkpt lat="44.09701899625361" lon="10.482885539531708">
        <ele>788.899169921875</ele>
        <time>2004-04-03T09:37:41Z</time>
      </trkpt>
      <trkpt lat="44.096911456435919" lon="10.482845054939389">
        <ele>788.41845703125</ele>
        <time>2004-04-03T09:37:46Z</time>
      </trkpt>
      <trkpt lat="44.096796456724405" lon="10.482789818197489">
        <ele>787.937744140625</ele>
        <time>2004-04-03T09:37:50Z</time>
      </trkpt>
      <trkpt lat="44.096693862229586" lon="10.482723014429212">
        <ele>787.45703125</ele>
        <time>2004-04-03T09:37:53Z</time>
      </trkpt>
      <trkpt lat="44.096599733456969" lon="10.482648080214858">
        <ele>786.495849609375</ele>
        <time>2004-04-03T09:37:56Z</time>
      </trkpt>
      <trkpt lat="44.096494540572166" lon="10.482550011947751">
        <ele>786.01513671875</ele>
        <time>2004-04-03T09:38:00Z</time>
      </trkpt>
      <trkpt lat="44.096393119543791" lon="10.482440544292331">
        <ele>785.534423828125</ele>
        <time>2004-04-03T09:38:04Z</time>
      </trkpt>
      <trkpt lat="44.096307372674346" lon="10.482362844049931">
        <ele>784.5732421875</ele>
        <time>2004-04-03T09:38:07Z</time>
      </trkpt>
      <trkpt lat="44.09620008431375" lon="10.482292771339417">
        <ele>783.131103515625</ele>
        <time>2004-04-03T09:38:11Z</time>
      </trkpt>
      <trkpt lat="44.096100591123104" lon="10.482240552082658">
        <ele>781.689208984375</ele>
        <time>2004-04-03T09:38:14Z</time>
      </trkpt>
      <trkpt lat="44.096008557826281" lon="10.482211383059621">
        <ele>779.28564453125</ele>
        <time>2004-04-03T09:38:18Z</time>
      </trkpt>
      <trkpt lat="44.095981316640973" lon="10.482329232618213">
        <ele>777.36328125</ele>
        <time>2004-04-03T09:38:23Z</time>
      </trkpt>
      <trkpt lat="44.095980143174529" lon="10.482445070520043">
        <ele>776.882568359375</ele>
        <time>2004-04-03T09:38:29Z</time>
      </trkpt>
      <trkpt lat="44.095984920859337" lon="10.482567865401506">
        <ele>777.36328125</ele>
        <time>2004-04-03T09:38:35Z</time>
      </trkpt>
      <trkpt lat="44.096033787354827" lon="10.482695605605841">
        <ele>777.36328125</ele>
        <time>2004-04-03T09:38:40Z</time>
      </trkpt>
      <trkpt lat="44.096077959984541" lon="10.482798870652914">
        <ele>776.882568359375</ele>
        <time>2004-04-03T09:38:44Z</time>
      </trkpt>
      <trkpt lat="44.096138477325439" lon="10.482890820130706">
        <ele>775.921142578125</ele>
        <time>2004-04-03T09:38:49Z</time>
      </trkpt>
      <trkpt lat="44.096199162304401" lon="10.482984110713005">
        <ele>774.9599609375</ele>
        <time>2004-04-03T09:38:53Z</time>
      </trkpt>
      <trkpt lat="44.096278371289372" lon="10.483085112646222">
        <ele>773.51806640625</ele>
        <time>2004-04-03T09:38:57Z</time>
      </trkpt>
      <trkpt lat="44.096358921378851" lon="10.483183180913329">
        <ele>771.59521484375</ele>
        <time>2004-04-03T09:39:01Z</time>
      </trkpt>
      <trkpt lat="44.09645271487534" lon="10.48327068798244">
        <ele>771.11474609375</ele>
        <time>2004-04-03T09:39:05Z</time>
      </trkpt>
      <trkpt lat="44.096546676009893" lon="10.483348639681935">
        <ele>770.634033203125</ele>
        <time>2004-04-03T09:39:09Z</time>
      </trkpt>
      <trkpt lat="44.096636781468987" lon="10.48342851921916">
        <ele>770.1533203125</ele>
        <time>2004-04-03T09:39:13Z</time>
      </trkpt>
      <trkpt lat="44.096728898584843" lon="10.483496664091945">
        <ele>769.6728515625</ele>
        <time>2004-04-03T09:39:17Z</time>
      </trkpt>
      <trkpt lat="44.096821937710047" lon="10.483535639941692">
        <ele>770.1533203125</ele>
        <time>2004-04-03T09:39:20Z</time>
      </trkpt>
      <trkpt lat="44.096923191100359" lon="10.483575370162725">
        <ele>769.6728515625</ele>
        <time>2004-04-03T09:39:23Z</time>
      </trkpt>
      <trkpt lat="44.097025282680988" lon="10.483621554449201">
        <ele>769.192138671875</ele>
        <time>2004-04-03T09:39:26Z</time>
      </trkpt>
      <trkpt lat="44.097106251865625" lon="10.48370311036706">
        <ele>768.71142578125</ele>
        <time>2004-04-03T09:39:29Z</time>
      </trkpt>
      <trkpt lat="44.097123183310032" lon="10.483837220817804">
        <ele>767.75</ele>
        <time>2004-04-03T09:39:33Z</time>
      </trkpt>
      <trkpt lat="44.097052942961454" lon="10.483934367075562">
        <ele>766.788818359375</ele>
        <time>2004-04-03T09:39:38Z</time>
      </trkpt>
      <trkpt lat="44.09696870483458" lon="10.483976695686579">
        <ele>764.8662109375</ele>
        <time>2004-04-03T09:39:42Z</time>
      </trkpt>
      <trkpt lat="44.096857476979494" lon="10.483968649059534">
        <ele>763.424072265625</ele>
        <time>2004-04-03T09:39:46Z</time>
      </trkpt>
      <trkpt lat="44.096753122285008" lon="10.483925314620137">
        <ele>761.020751953125</ele>
        <time>2004-04-03T09:39:49Z</time>
      </trkpt>
      <trkpt lat="44.096623789519072" lon="10.483870161697268">
        <ele>760.5400390625</ele>
        <time>2004-04-03T09:39:52Z</time>
      </trkpt>
      <trkpt lat="44.096483644098043" lon="10.483805453404784">
        <ele>759.578857421875</ele>
        <time>2004-04-03T09:39:55Z</time>
      </trkpt>
      <trkpt lat="44.096371913328767" lon="10.483733871951699">
        <ele>758.617431640625</ele>
        <time>2004-04-03T09:39:58Z</time>
      </trkpt>
      <trkpt lat="44.096258925274014" lon="10.483640329912305">
        <ele>758.136962890625</ele>
        <time>2004-04-03T09:40:02Z</time>
      </trkpt>
      <trkpt lat="44.096166808158159" lon="10.48355508595705">
        <ele>757.175537109375</ele>
        <time>2004-04-03T09:40:06Z</time>
      </trkpt>
      <trkpt lat="44.096086174249649" lon="10.483480570837855">
        <ele>757.175537109375</ele>
        <time>2004-04-03T09:40:09Z</time>
      </trkpt>
      <trkpt lat="44.095992967486382" lon="10.483413515612483">
        <ele>756.69482421875</ele>
        <time>2004-04-03T09:40:12Z</time>
      </trkpt>
      <trkpt lat="44.095899760723114" lon="10.48334201797843">
        <ele>756.69482421875</ele>
        <time>2004-04-03T09:40:15Z</time>
      </trkpt>
      <trkpt lat="44.095801776275039" lon="10.483305221423507">
        <ele>756.69482421875</ele>
        <time>2004-04-03T09:40:21Z</time>
      </trkpt>
      <trkpt lat="44.095699936151505" lon="10.483277477324009">
        <ele>755.733642578125</ele>
        <time>2004-04-03T09:40:26Z</time>
      </trkpt>
      <trkpt lat="44.095593402162194" lon="10.483235400170088">
        <ele>754.291748046875</ele>
        <time>2004-04-03T09:40:31Z</time>
      </trkpt>
      <trkpt lat="44.095495250076056" lon="10.483206063508987">
        <ele>752.368896484375</ele>
        <time>2004-04-03T09:40:35Z</time>
      </trkpt>
      <trkpt lat="44.095384944230318" lon="10.483157113194466">
        <ele>750.927001953125</ele>
        <time>2004-04-03T09:40:39Z</time>
      </trkpt>
      <trkpt lat="44.095288133248687" lon="10.483044711872935">
        <ele>750.446533203125</ele>
        <time>2004-04-03T09:40:42Z</time>
      </trkpt>
      <trkpt lat="44.095201380550861" lon="10.482908086851239">
        <ele>749.00439453125</ele>
        <time>2004-04-03T09:40:45Z</time>
      </trkpt>
      <trkpt lat="44.095162153244019" lon="10.482779759913683">
        <ele>748.523681640625</ele>
        <time>2004-04-03T09:40:47Z</time>
      </trkpt>
      <trkpt lat="44.095142958685756" lon="10.482644811272621">
        <ele>748.043212890625</ele>
        <time>2004-04-03T09:40:49Z</time>
      </trkpt>
      <trkpt lat="44.095134660601616" lon="10.482452446594834">
        <ele>747.08154296875</ele>
        <time>2004-04-03T09:40:52Z</time>
      </trkpt>
      <trkpt lat="44.095089063048363" lon="10.482317246496677">
        <ele>746.120361328125</ele>
        <time>2004-04-03T09:40:54Z</time>
      </trkpt>
      <trkpt lat="44.095003064721823" lon="10.482196044176817">
        <ele>745.158935546875</ele>
        <time>2004-04-03T09:40:56Z</time>
      </trkpt>
      <trkpt lat="44.094870463013649" lon="10.482224207371473">
        <ele>742.755859375</ele>
        <time>2004-04-03T09:40:58Z</time>
      </trkpt>
      <trkpt lat="44.094775496050715" lon="10.48234960064292">
        <ele>740.8330078125</ele>
        <time>2004-04-03T09:41:00Z</time>
      </trkpt>
      <trkpt lat="44.094747332856059" lon="10.482528889551759">
        <ele>740.3525390625</ele>
        <time>2004-04-03T09:41:02Z</time>
      </trkpt>
      <trkpt lat="44.094769796356559" lon="10.482704322785139">
        <ele>739.39111328125</ele>
        <time>2004-04-03T09:41:04Z</time>
      </trkpt>
      <trkpt lat="44.094818830490112" lon="10.482851676642895">
        <ele>738.91064453125</ele>
        <time>2004-04-03T09:41:06Z</time>
      </trkpt>
      <trkpt lat="44.094893094152212" lon="10.482971370220184">
        <ele>737.468505859375</ele>
        <time>2004-04-03T09:41:08Z</time>
      </trkpt>
      <trkpt lat="44.094982026144862" lon="10.48306692391634">
        <ele>736.98779296875</ele>
        <time>2004-04-03T09:41:10Z</time>
      </trkpt>
      <trkpt lat="44.095067605376244" lon="10.483171446248889">
        <ele>736.026611328125</ele>
        <time>2004-04-03T09:41:12Z</time>
      </trkpt>
      <trkpt lat="44.095152514055371" lon="10.483268508687615">
        <ele>735.5458984375</ele>
        <time>2004-04-03T09:41:14Z</time>
      </trkpt>
      <trkpt lat="44.09517053514719" lon="10.483413767069578">
        <ele>734.584716796875</ele>
        <time>2004-04-03T09:41:17Z</time>
      </trkpt>
      <trkpt lat="44.095061235129833" lon="10.483435979112983">
        <ele>734.584716796875</ele>
        <time>2004-04-03T09:41:20Z</time>
      </trkpt>
      <trkpt lat="44.094954952597618" lon="10.483332378789783">
        <ele>733.623291015625</ele>
        <time>2004-04-03T09:41:23Z</time>
      </trkpt>
      <trkpt lat="44.094865601509809" lon="10.483192233368754">
        <ele>732.181396484375</ele>
        <time>2004-04-03T09:41:26Z</time>
      </trkpt>
      <trkpt lat="44.094747332856059" lon="10.483075976371765">
        <ele>731.700439453125</ele>
        <time>2004-04-03T09:41:29Z</time>
      </trkpt>
      <trkpt lat="44.0946692135185" lon="10.482996935024858">
        <ele>731.219970703125</ele>
        <time>2004-04-03T09:41:31Z</time>
      </trkpt>
      <trkpt lat="44.094591429457068" lon="10.482910769060254">
        <ele>731.219970703125</ele>
        <time>2004-04-03T09:41:33Z</time>
      </trkpt>
      <trkpt lat="44.094514651224017" lon="10.482816556468606">
        <ele>730.7392578125</ele>
        <time>2004-04-03T09:41:35Z</time>
      </trkpt>
      <trkpt lat="44.094444075599313" lon="10.482718991115689">
        <ele>730.258544921875</ele>
        <time>2004-04-03T09:41:37Z</time>
      </trkpt>
      <trkpt lat="44.094375092536211" lon="10.482603069394827">
        <ele>729.297119140625</ele>
        <time>2004-04-03T09:41:39Z</time>
      </trkpt>
      <trkpt lat="44.09432957880199" lon="10.482456469908357">
        <ele>729.297119140625</ele>
        <time>2004-04-03T09:41:41Z</time>
      </trkpt>
      <trkpt lat="44.09431055188179" lon="10.482282713055611">
        <ele>728.816650390625</ele>
        <time>2004-04-03T09:41:43Z</time>
      </trkpt>
      <trkpt lat="44.094352042302489" lon="10.482106357812881">
        <ele>727.855224609375</ele>
        <time>2004-04-03T09:41:45Z</time>
      </trkpt>
      <trkpt lat="44.09438481554389" lon="10.481999907642603">
        <ele>726.89404296875</ele>
        <time>2004-04-03T09:41:47Z</time>
      </trkpt>
      <trkpt lat="44.094450613483787" lon="10.481863114982843">
        <ele>725.9326171875</ele>
        <time>2004-04-03T09:41:51Z</time>
      </trkpt>
      <trkpt lat="44.094519093632698" lon="10.481762615963817">
        <ele>724.49072265625</ele>
        <time>2004-04-03T09:41:54Z</time>
      </trkpt>
      <trkpt lat="44.094603415578604" lon="10.481651471927762">
        <ele>723.529541015625</ele>
        <time>2004-04-03T09:41:57Z</time>
      </trkpt>
      <trkpt lat="44.094677176326513" lon="10.481520798057318">
        <ele>722.568115234375</ele>
        <time>2004-04-03T09:42:00Z</time>
      </trkpt>
      <trkpt lat="44.094721432775259" lon="10.481382412835956">
        <ele>722.08740234375</ele>
        <time>2004-04-03T09:42:03Z</time>
      </trkpt>
      <trkpt lat="44.094730233773589" lon="10.481226090341806">
        <ele>722.08740234375</ele>
        <time>2004-04-03T09:42:06Z</time>
      </trkpt>
      <trkpt lat="44.094724869355559" lon="10.481057614088058">
        <ele>720.6455078125</ele>
        <time>2004-04-03T09:42:09Z</time>
      </trkpt>
      <trkpt lat="44.094719588756561" lon="10.480862818658352">
        <ele>720.6455078125</ele>
        <time>2004-04-03T09:42:12Z</time>
      </trkpt>
      <trkpt lat="44.094742303714156" lon="10.48068679869175">
        <ele>720.6455078125</ele>
        <time>2004-04-03T09:42:15Z</time>
      </trkpt>
      <trkpt lat="44.094799803569913" lon="10.48053340986371">
        <ele>719.684326171875</ele>
        <time>2004-04-03T09:42:18Z</time>
      </trkpt>
      <trkpt lat="44.094859985634685" lon="10.480440286919475">
        <ele>719.20361328125</ele>
        <time>2004-04-03T09:42:21Z</time>
      </trkpt>
      <trkpt lat="44.094870211556554" lon="10.480311876162887">
        <ele>718.722900390625</ele>
        <time>2004-04-03T09:42:49Z</time>
      </trkpt>
      <trkpt lat="44.094781363382936" lon="10.480235600844026">
        <ele>717.761474609375</ele>
        <time>2004-04-03T09:43:07Z</time>
      </trkpt>
      <trkpt lat="44.094663178548217" lon="10.480230823159218">
        <ele>717.281005859375</ele>
        <time>2004-04-03T09:43:11Z</time>
      </trkpt>
      <trkpt lat="44.094572486355901" lon="10.480248425155878">
        <ele>716.80029296875</ele>
        <time>2004-04-03T09:43:14Z</time>
      </trkpt>
      <trkpt lat="44.094467461109161" lon="10.480309445410967">
        <ele>714.87744140625</ele>
        <time>2004-04-03T09:43:18Z</time>
      </trkpt>
      <trkpt lat="44.09443125128746" lon="10.480457721278071">
        <ele>712.954833984375</ele>
        <time>2004-04-03T09:43:22Z</time>
      </trkpt>
      <trkpt lat="44.094456899911165" lon="10.480633489787579">
        <ele>710.551513671875</ele>
        <time>2004-04-03T09:43:25Z</time>
      </trkpt>
      <trkpt lat="44.094457905739546" lon="10.480811521410942">
        <ele>709.109619140625</ele>
        <time>2004-04-03T09:43:28Z</time>
      </trkpt>
      <trkpt lat="44.094436448067427" lon="10.480974968522787">
        <ele>708.1484375</ele>
        <time>2004-04-03T09:43:31Z</time>
      </trkpt>
      <trkpt lat="44.094410799443722" lon="10.481144031509757">
        <ele>707.667724609375</ele>
        <time>2004-04-03T09:43:34Z</time>
      </trkpt>
      <trkpt lat="44.094371823593974" lon="10.481320638209581">
        <ele>707.667724609375</ele>
        <time>2004-04-03T09:43:37Z</time>
      </trkpt>
      <trkpt lat="44.094298565760255" lon="10.481449970975518">
        <ele>707.667724609375</ele>
        <time>2004-04-03T09:43:40Z</time>
      </trkpt>
      <trkpt lat="44.094209130853415" lon="10.481539322063327">
        <ele>706.706298828125</ele>
        <time>2004-04-03T09:43:43Z</time>
      </trkpt>
      <trkpt lat="44.094098070636392" lon="10.481609981507063">
        <ele>706.706298828125</ele>
        <time>2004-04-03T09:43:46Z</time>
      </trkpt>
      <trkpt lat="44.093974102288485" lon="10.481685334816575">
        <ele>706.2255859375</ele>
        <time>2004-04-03T09:43:49Z</time>
      </trkpt>
      <trkpt lat="44.093856168910861" lon="10.481765465810895">
        <ele>705.264404296875</ele>
        <time>2004-04-03T09:43:52Z</time>
      </trkpt>
      <trkpt lat="44.093753574416041" lon="10.48184534534812">
        <ele>704.78369140625</ele>
        <time>2004-04-03T09:43:55Z</time>
      </trkpt>
      <trkpt lat="44.093660619109869" lon="10.481930337846279">
        <ele>704.30322265625</ele>
        <time>2004-04-03T09:43:58Z</time>
      </trkpt>
      <trkpt lat="44.093603873625398" lon="10.482057742774487">
        <ele>703.822509765625</ele>
        <time>2004-04-03T09:44:01Z</time>
      </trkpt>
      <trkpt lat="44.093584679067135" lon="10.482220770791173">
        <ele>703.822509765625</ele>
        <time>2004-04-03T09:44:04Z</time>
      </trkpt>
      <trkpt lat="44.093612674623728" lon="10.482377763837576">
        <ele>703.341796875</ele>
        <time>2004-04-03T09:44:07Z</time>
      </trkpt>
      <trkpt lat="44.093677969649434" lon="10.482534505426884">
        <ele>702.38037109375</ele>
        <time>2004-04-03T09:44:10Z</time>
      </trkpt>
      <trkpt lat="44.093752903863788" lon="10.482700634747744">
        <ele>702.38037109375</ele>
        <time>2004-04-03T09:44:13Z</time>
      </trkpt>
      <trkpt lat="44.093798585236073" lon="10.482815466821194">
        <ele>702.38037109375</ele>
        <time>2004-04-03T09:44:15Z</time>
      </trkpt>
      <trkpt lat="44.093826580792665" lon="10.482981763780117">
        <ele>700.9384765625</ele>
        <time>2004-04-03T09:44:18Z</time>
      </trkpt>
      <trkpt lat="44.09383462741971" lon="10.483142444863915">
        <ele>700.4580078125</ele>
        <time>2004-04-03T09:44:21Z</time>
      </trkpt>
      <trkpt lat="44.093829011544585" lon="10.483293235301971">
        <ele>699.496337890625</ele>
        <time>2004-04-03T09:44:24Z</time>
      </trkpt>
      <trkpt lat="44.093829430639744" lon="10.48343782313168">
        <ele>697.093017578125</ele>
        <time>2004-04-03T09:44:27Z</time>
      </trkpt>
      <trkpt lat="44.093854408711195" lon="10.4835369810462">
        <ele>695.651123046875</ele>
        <time>2004-04-03T09:44:31Z</time>
      </trkpt>
      <trkpt lat="44.093894306570292" lon="10.483641503378749">
        <ele>693.728515625</ele>
        <time>2004-04-03T09:44:36Z</time>
      </trkpt>
      <trkpt lat="44.093906711786985" lon="10.483751473948359">
        <ele>690.364013671875</ele>
        <time>2004-04-03T09:44:43Z</time>
      </trkpt>
      <trkpt lat="44.093937808647752" lon="10.483854152262211">
        <ele>687.960693359375</ele>
        <time>2004-04-03T09:44:53Z</time>
      </trkpt>
      <trkpt lat="44.093947783112526" lon="10.483982479199767">
        <ele>687.47998046875</ele>
        <time>2004-04-03T09:44:58Z</time>
      </trkpt>
      <trkpt lat="44.09379942342639" lon="10.483932523056865">
        <ele>687.47998046875</ele>
        <time>2004-04-03T09:45:27Z</time>
      </trkpt>
      <trkpt lat="44.093730608001351" lon="10.483825737610459">
        <ele>687.47998046875</ele>
        <time>2004-04-03T09:45:32Z</time>
      </trkpt>
      <trkpt lat="44.093662463128567" lon="10.483722975477576">
        <ele>687.960693359375</ele>
        <time>2004-04-03T09:45:36Z</time>
      </trkpt>
      <trkpt lat="44.093586523085833" lon="10.483622560277581">
        <ele>687.960693359375</ele>
        <time>2004-04-03T09:45:40Z</time>
      </trkpt>
      <trkpt lat="44.093501782044768" lon="10.483513092622161">
        <ele>687.960693359375</ele>
        <time>2004-04-03T09:45:44Z</time>
      </trkpt>
      <trkpt lat="44.093437325209379" lon="10.483413180336356">
        <ele>687.960693359375</ele>
        <time>2004-04-03T09:45:47Z</time>
      </trkpt>
      <trkpt lat="44.093369012698531" lon="10.483271777629852">
        <ele>688.44140625</ele>
        <time>2004-04-03T09:45:51Z</time>
      </trkpt>
      <trkpt lat="44.093335485085845" lon="10.483146049082279">
        <ele>687.47998046875</ele>
        <time>2004-04-03T09:45:54Z</time>
      </trkpt>
      <trkpt lat="44.093320649117231" lon="10.48300045542419">
        <ele>687.47998046875</ele>
        <time>2004-04-03T09:45:57Z</time>
      </trkpt>
      <trkpt lat="44.093306148424745" lon="10.482856957241893">
        <ele>687.960693359375</ele>
        <time>2004-04-03T09:46:00Z</time>
      </trkpt>
      <trkpt lat="44.093270190060139" lon="10.482715722173452">
        <ele>687.47998046875</ele>
        <time>2004-04-03T09:46:03Z</time>
      </trkpt>
      <trkpt lat="44.093212941661477" lon="10.48258856870234">
        <ele>687.47998046875</ele>
        <time>2004-04-03T09:46:06Z</time>
      </trkpt>
      <trkpt lat="44.093134989961982" lon="10.482475329190493">
        <ele>688.44140625</ele>
        <time>2004-04-03T09:46:09Z</time>
      </trkpt>
      <trkpt lat="44.093056786805391" lon="10.482361419126391">
        <ele>688.44140625</ele>
        <time>2004-04-03T09:46:12Z</time>
      </trkpt>
      <trkpt lat="44.092994006350636" lon="10.482229739427567">
        <ele>688.44140625</ele>
        <time>2004-04-03T09:46:15Z</time>
      </trkpt>
      <trkpt lat="44.092930806800723" lon="10.482103759422898">
        <ele>688.44140625</ele>
        <time>2004-04-03T09:46:18Z</time>
      </trkpt>
      <trkpt lat="44.092884622514248" lon="10.481975851580501">
        <ele>688.44140625</ele>
        <time>2004-04-03T09:46:21Z</time>
      </trkpt>
      <trkpt lat="44.092828799039125" lon="10.481849368661642">
        <ele>688.44140625</ele>
        <time>2004-04-03T09:46:24Z</time>
      </trkpt>
      <trkpt lat="44.092798875644803" lon="10.481691872701049">
        <ele>689.402587890625</ele>
        <time>2004-04-03T09:46:27Z</time>
      </trkpt>
      <trkpt lat="44.092804407700896" lon="10.481533370912075">
        <ele>688.922119140625</ele>
        <time>2004-04-03T09:46:30Z</time>
      </trkpt>
      <trkpt lat="44.092842126265168" lon="10.481388783082366">
        <ele>688.922119140625</ele>
        <time>2004-04-03T09:46:33Z</time>
      </trkpt>
      <trkpt lat="44.092896524816751" lon="10.481268251314759">
        <ele>689.88330078125</ele>
        <time>2004-04-03T09:46:36Z</time>
      </trkpt>
      <trkpt lat="44.093018062412739" lon="10.481146881356835">
        <ele>689.88330078125</ele>
        <time>2004-04-03T09:46:40Z</time>
      </trkpt>
      <trkpt lat="44.093110179528594" lon="10.481083430349827">
        <ele>688.922119140625</ele>
        <time>2004-04-03T09:46:43Z</time>
      </trkpt>
      <trkpt lat="44.093218054622412" lon="10.481006316840649">
        <ele>688.44140625</ele>
        <time>2004-04-03T09:46:47Z</time>
      </trkpt>
      <trkpt lat="44.093298939988017" lon="10.480948397889733">
        <ele>688.922119140625</ele>
        <time>2004-04-03T09:46:50Z</time>
      </trkpt>
      <trkpt lat="44.093400444835424" lon="10.480894837528467">
        <ele>688.44140625</ele>
        <time>2004-04-03T09:46:53Z</time>
      </trkpt>
      <trkpt lat="44.093512510880828" lon="10.480821076780558">
        <ele>688.44140625</ele>
        <time>2004-04-03T09:46:56Z</time>
      </trkpt>
      <trkpt lat="44.094056831672788" lon="10.480656707659364">
        <ele>688.44140625</ele>
        <time>2004-04-03T09:46:59Z</time>
      </trkpt>
      <trkpt lat="44.094054400920868" lon="10.480477837845683">
        <ele>688.44140625</ele>
        <time>2004-04-03T09:47:02Z</time>
      </trkpt>
      <trkpt lat="44.09394116140902" lon="10.480253454297781">
        <ele>688.44140625</ele>
        <time>2004-04-03T09:47:05Z</time>
      </trkpt>
      <trkpt lat="44.094044426456094" lon="10.480205090716481">
        <ele>688.44140625</ele>
        <time>2004-04-03T09:47:08Z</time>
      </trkpt>
      <trkpt lat="44.094001930207014" lon="10.480073075741529">
        <ele>688.44140625</ele>
        <time>2004-04-03T09:47:11Z</time>
      </trkpt>
      <trkpt lat="44.093919955193996" lon="10.479881213977933">
        <ele>688.44140625</ele>
        <time>2004-04-03T09:47:14Z</time>
      </trkpt>
      <trkpt lat="44.093917105346918" lon="10.479692285880446">
        <ele>688.922119140625</ele>
        <time>2004-04-03T09:47:17Z</time>
      </trkpt>
      <trkpt lat="44.093951219692826" lon="10.47951458953321">
        <ele>688.922119140625</ele>
        <time>2004-04-03T09:47:20Z</time>
      </trkpt>
      <trkpt lat="44.094039313495159" lon="10.47937436029315">
        <ele>688.922119140625</ele>
        <time>2004-04-03T09:47:23Z</time>
      </trkpt>
      <trkpt lat="44.094145512208343" lon="10.479284003376961">
        <ele>688.922119140625</ele>
        <time>2004-04-03T09:47:26Z</time>
      </trkpt>
      <trkpt lat="44.094253806397319" lon="10.479245195165277">
        <ele>689.402587890625</ele>
        <time>2004-04-03T09:47:29Z</time>
      </trkpt>
      <trkpt lat="44.094373332336545" lon="10.479233544319868">
        <ele>688.922119140625</ele>
        <time>2004-04-03T09:47:32Z</time>
      </trkpt>
      <trkpt lat="44.094496378675103" lon="10.479211583733559">
        <ele>687.960693359375</ele>
        <time>2004-04-03T09:47:35Z</time>
      </trkpt>
      <trkpt lat="44.094623029232025" lon="10.479148468002677">
        <ele>687.960693359375</ele>
        <time>2004-04-03T09:47:38Z</time>
      </trkpt>
      <trkpt lat="44.094735095277429" lon="10.479047214612365">
        <ele>687.47998046875</ele>
        <time>2004-04-03T09:47:41Z</time>
      </trkpt>
      <trkpt lat="44.094795612618327" lon="10.478894663974643">
        <ele>686.999267578125</ele>
        <time>2004-04-03T09:47:44Z</time>
      </trkpt>
      <trkpt lat="44.094775998964906" lon="10.478751668706536">
        <ele>687.960693359375</ele>
        <time>2004-04-03T09:47:46Z</time>
      </trkpt>
      <trkpt lat="44.09475470893085" lon="10.478618815541267">
        <ele>687.960693359375</ele>
        <time>2004-04-03T09:47:48Z</time>
      </trkpt>
      <trkpt lat="44.094746997579932" lon="10.478470036759973">
        <ele>688.44140625</ele>
        <time>2004-04-03T09:47:51Z</time>
      </trkpt>
      <trkpt lat="44.09476644359529" lon="10.478297201916575">
        <ele>688.922119140625</ele>
        <time>2004-04-03T09:47:55Z</time>
      </trkpt>
      <trkpt lat="44.094800390303135" lon="10.478148674592376">
        <ele>688.44140625</ele>
        <time>2004-04-03T09:47:59Z</time>
      </trkpt>
      <trkpt lat="44.094871385022998" lon="10.478042978793383">
        <ele>687.960693359375</ele>
        <time>2004-04-03T09:48:04Z</time>
      </trkpt>
      <trkpt lat="44.094846490770578" lon="10.477931331843138">
        <ele>685.557373046875</ele>
        <time>2004-04-03T09:48:11Z</time>
      </trkpt>
      <trkpt lat="44.094763258472085" lon="10.477843657135963">
        <ele>684.59619140625</ele>
        <time>2004-04-03T09:48:17Z</time>
      </trkpt>
      <trkpt lat="44.094674494117498" lon="10.477769561111927">
        <ele>682.67333984375</ele>
        <time>2004-04-03T09:48:22Z</time>
      </trkpt>
      <trkpt lat="44.094590088352561" lon="10.477675683796406">
        <ele>681.7119140625</ele>
        <time>2004-04-03T09:48:26Z</time>
      </trkpt>
      <trkpt lat="44.094493947923183" lon="10.477585410699248">
        <ele>679.789306640625</ele>
        <time>2004-04-03T09:48:30Z</time>
      </trkpt>
      <trkpt lat="44.094408620148897" lon="10.477511482313275">
        <ele>678.347412109375</ele>
        <time>2004-04-03T09:48:33Z</time>
      </trkpt>
      <trkpt lat="44.094296218827367" lon="10.477444846183062">
        <ele>676.4248046875</ele>
        <time>2004-04-03T09:48:36Z</time>
      </trkpt>
      <trkpt lat="44.094192450866103" lon="10.477407462894917">
        <ele>674.98291015625</ele>
        <time>2004-04-03T09:48:39Z</time>
      </trkpt>
      <trkpt lat="44.094069991260767" lon="10.477401679381728">
        <ele>674.98291015625</ele>
        <time>2004-04-03T09:48:43Z</time>
      </trkpt>
      <trkpt lat="44.09399438649416" lon="10.477505698800087">
        <ele>673.541015625</ele>
        <time>2004-04-03T09:48:48Z</time>
      </trkpt>
      <trkpt lat="44.093910232186317" lon="10.477597396820784">
        <ele>670.656982421875</ele>
        <time>2004-04-03T09:49:13Z</time>
      </trkpt>
      <trkpt lat="44.093806631863117" lon="10.477508213371038">
        <ele>667.772705078125</ele>
        <time>2004-04-03T09:49:18Z</time>
      </trkpt>
      <trkpt lat="44.093737816438079" lon="10.477428082376719">
        <ele>666.8115234375</ele>
        <time>2004-04-03T09:49:21Z</time>
      </trkpt>
      <trkpt lat="44.093672521412373" lon="10.477326074615121">
        <ele>665.850341796875</ele>
        <time>2004-04-03T09:49:24Z</time>
      </trkpt>
      <trkpt lat="44.09362013451755" lon="10.47719313763082">
        <ele>663.927490234375</ele>
        <time>2004-04-03T09:49:27Z</time>
      </trkpt>
      <trkpt lat="44.093579147011042" lon="10.477043353021145">
        <ele>662.96630859375</ele>
        <time>2004-04-03T09:49:30Z</time>
      </trkpt>
      <trkpt lat="44.093553246930242" lon="10.476895831525326">
        <ele>662.485595703125</ele>
        <time>2004-04-03T09:49:33Z</time>
      </trkpt>
      <trkpt lat="44.093545703217387" lon="10.476750321686268">
        <ele>662.005126953125</ele>
        <time>2004-04-03T09:49:36Z</time>
      </trkpt>
      <trkpt lat="44.093543104827404" lon="10.476605482399464">
        <ele>661.043701171875</ele>
        <time>2004-04-03T09:49:39Z</time>
      </trkpt>
      <trkpt lat="44.093547128140926" lon="10.476461397483945">
        <ele>660.082275390625</ele>
        <time>2004-04-03T09:49:42Z</time>
      </trkpt>
      <trkpt lat="44.093552995473146" lon="10.4763238504529">
        <ele>660.56298828125</ele>
        <time>2004-04-03T09:49:45Z</time>
      </trkpt>
      <trkpt lat="44.093574620783329" lon="10.476130731403828">
        <ele>659.12109375</ele>
        <time>2004-04-03T09:49:49Z</time>
      </trkpt>
      <trkpt lat="44.093589121475816" lon="10.475982455536723">
        <ele>658.640380859375</ele>
        <time>2004-04-03T09:49:52Z</time>
      </trkpt>
      <trkpt lat="44.093601610511541" lon="10.475837783887982">
        <ele>658.640380859375</ele>
        <time>2004-04-03T09:49:55Z</time>
      </trkpt>
      <trkpt lat="44.093615943565965" lon="10.475684395059943">
        <ele>657.67919921875</ele>
        <time>2004-04-03T09:49:58Z</time>
      </trkpt>
      <trkpt lat="44.093624744564295" lon="10.475528324022889">
        <ele>656.237060546875</ele>
        <time>2004-04-03T09:50:01Z</time>
      </trkpt>
      <trkpt lat="44.093628348782659" lon="10.475392788648605">
        <ele>654.314697265625</ele>
        <time>2004-04-03T09:50:04Z</time>
      </trkpt>
      <trkpt lat="44.093634635210037" lon="10.475222216919065">
        <ele>652.391845703125</ele>
        <time>2004-04-03T09:50:08Z</time>
      </trkpt>
      <trkpt lat="44.093641340732574" lon="10.475089531391859">
        <ele>650.94970703125</ele>
        <time>2004-04-03T09:50:11Z</time>
      </trkpt>
      <trkpt lat="44.093652404844761" lon="10.474941339343786">
        <ele>649.5078125</ele>
        <time>2004-04-03T09:50:14Z</time>
      </trkpt>
      <trkpt lat="44.093667240813375" lon="10.474763140082359">
        <ele>646.6240234375</ele>
        <time>2004-04-03T09:50:17Z</time>
      </trkpt>
      <trkpt lat="44.093672521412373" lon="10.47461025416851">
        <ele>645.181884765625</ele>
        <time>2004-04-03T09:50:20Z</time>
      </trkpt>
      <trkpt lat="44.093663217499852" lon="10.474456027150154">
        <ele>643.739990234375</ele>
        <time>2004-04-03T09:50:23Z</time>
      </trkpt>
      <trkpt lat="44.093644274398685" lon="10.474315462633967">
        <ele>642.77880859375</ele>
        <time>2004-04-03T09:50:26Z</time>
      </trkpt>
      <trkpt lat="44.093620050698519" lon="10.474150087684393">
        <ele>641.336669921875</ele>
        <time>2004-04-03T09:50:30Z</time>
      </trkpt>
      <trkpt lat="44.093565819784999" lon="10.474065598100424">
        <ele>639.894775390625</ele>
        <time>2004-04-03T09:50:33Z</time>
      </trkpt>
      <trkpt lat="44.093520473688841" lon="10.474204905331135">
        <ele>638.452880859375</ele>
        <time>2004-04-03T09:50:36Z</time>
      </trkpt>
      <trkpt lat="44.093497591093183" lon="10.474382601678371">
        <ele>637.491455078125</ele>
        <time>2004-04-03T09:50:39Z</time>
      </trkpt>
      <trkpt lat="44.09346230328083" lon="10.474551748484373">
        <ele>636.049560546875</ele>
        <time>2004-04-03T09:50:42Z</time>
      </trkpt>
      <trkpt lat="44.093429697677493" lon="10.474656689912081">
        <ele>635.088134765625</ele>
        <time>2004-04-03T09:50:44Z</time>
      </trkpt>
      <trkpt lat="44.093353925272822" lon="10.474811503663659">
        <ele>632.684814453125</ele>
        <time>2004-04-03T09:50:47Z</time>
      </trkpt>
      <trkpt lat="44.093299023807049" lon="10.474923904985189">
        <ele>631.242919921875</ele>
        <time>2004-04-03T09:50:49Z</time>
      </trkpt>
      <trkpt lat="44.093248900026083" lon="10.475035384297371">
        <ele>629.80078125</ele>
        <time>2004-04-03T09:50:51Z</time>
      </trkpt>
      <trkpt lat="44.093173211440444" lon="10.475160190835595">
        <ele>627.397705078125</ele>
        <time>2004-04-03T09:50:54Z</time>
      </trkpt>
      <trkpt lat="44.093085872009397" lon="10.475178128108382">
        <ele>625.474853515625</ele>
        <time>2004-04-03T09:50:58Z</time>
      </trkpt>
      <trkpt lat="44.093003813177347" lon="10.475044185295701">
        <ele>623.07177734375</ele>
        <time>2004-04-03T09:51:02Z</time>
      </trkpt>
      <trkpt lat="44.092918401584029" lon="10.474911499768496">
        <ele>621.149169921875</ele>
        <time>2004-04-03T09:51:05Z</time>
      </trkpt>
      <trkpt lat="44.092869535088539" lon="10.474743107333779">
        <ele>619.226318359375</ele>
        <time>2004-04-03T09:51:08Z</time>
      </trkpt>
      <trkpt lat="44.092874731868505" lon="10.474565410986543">
        <ele>617.3037109375</ele>
        <time>2004-04-03T09:51:11Z</time>
      </trkpt>
      <trkpt lat="44.092922508716583" lon="10.474399365484715">
        <ele>614.900390625</ele>
        <time>2004-04-03T09:51:14Z</time>
      </trkpt>
      <trkpt lat="44.092975482344627" lon="10.474228793755174">
        <ele>612.977783203125</ele>
        <time>2004-04-03T09:51:17Z</time>
      </trkpt>
      <trkpt lat="44.093028455972672" lon="10.474048079922795">
        <ele>612.0166015625</ele>
        <time>2004-04-03T09:51:20Z</time>
      </trkpt>
      <trkpt lat="44.093076400458813" lon="10.473907180130482">
        <ele>611.05517578125</ele>
        <time>2004-04-03T09:51:22Z</time>
      </trkpt>
      <trkpt lat="44.093123003840446" lon="10.473765023052692">
        <ele>610.09375</ele>
        <time>2004-04-03T09:51:24Z</time>
      </trkpt>
      <trkpt lat="44.093166757375002" lon="10.473633259534836">
        <ele>608.65185546875</ele>
        <time>2004-04-03T09:51:26Z</time>
      </trkpt>
      <trkpt lat="44.093210510909557" lon="10.473496885970235">
        <ele>607.2099609375</ele>
        <time>2004-04-03T09:51:28Z</time>
      </trkpt>
      <trkpt lat="44.093251246958971" lon="10.473334696143866">
        <ele>605.76806640625</ele>
        <time>2004-04-03T09:51:30Z</time>
      </trkpt>
      <trkpt lat="44.093300113454461" lon="10.473154233768582">
        <ele>604.806640625</ele>
        <time>2004-04-03T09:51:32Z</time>
      </trkpt>
      <trkpt lat="44.093334060162306" lon="10.473007801920176">
        <ele>603.364501953125</ele>
        <time>2004-04-03T09:51:34Z</time>
      </trkpt>
      <trkpt lat="44.093326684087515" lon="10.472882073372602">
        <ele>602.403076171875</ele>
        <time>2004-04-03T09:51:36Z</time>
      </trkpt>
      <trkpt lat="44.093247475102544" lon="10.472804959863424">
        <ele>600.480712890625</ele>
        <time>2004-04-03T09:51:39Z</time>
      </trkpt>
      <trkpt lat="44.093157956376672" lon="10.472898501902819">
        <ele>599.519287109375</ele>
        <time>2004-04-03T09:51:42Z</time>
      </trkpt>
      <trkpt lat="44.093117220327258" lon="10.47302657738328">
        <ele>598.557861328125</ele>
        <time>2004-04-03T09:51:44Z</time>
      </trkpt>
      <trkpt lat="44.093069359660149" lon="10.473166974261403">
        <ele>597.115966796875</ele>
        <time>2004-04-03T09:51:46Z</time>
      </trkpt>
      <trkpt lat="44.093010015785694" lon="10.473314998671412">
        <ele>595.674072265625</ele>
        <time>2004-04-03T09:51:48Z</time>
      </trkpt>
      <trkpt lat="44.09293751232326" lon="10.473440140485764">
        <ele>594.232177734375</ele>
        <time>2004-04-03T09:51:50Z</time>
      </trkpt>
      <trkpt lat="44.092865092679858" lon="10.473515158519149">
        <ele>593.75146484375</ele>
        <time>2004-04-03T09:51:52Z</time>
      </trkpt>
      <trkpt lat="44.092769455164671" lon="10.473454808816314">
        <ele>592.790283203125</ele>
        <time>2004-04-03T09:51:55Z</time>
      </trkpt>
      <trkpt lat="44.092734921723604" lon="10.47330217435956">
        <ele>590.867431640625</ele>
        <time>2004-04-03T09:51:58Z</time>
      </trkpt>
      <trkpt lat="44.092715978622437" lon="10.47314727678895">
        <ele>589.425537109375</ele>
        <time>2004-04-03T09:52:02Z</time>
      </trkpt>
      <trkpt lat="44.092703489586711" lon="10.473004532977939">
        <ele>588.46435546875</ele>
        <time>2004-04-03T09:52:07Z</time>
      </trkpt>
      <trkpt lat="44.092706087976694" lon="10.472856005653739">
        <ele>586.54150390625</ele>
        <time>2004-04-03T09:52:12Z</time>
      </trkpt>
      <trkpt lat="44.092708183452487" lon="10.472699347883463">
        <ele>585.099609375</ele>
        <time>2004-04-03T09:52:16Z</time>
      </trkpt>
      <trkpt lat="44.092707009986043" lon="10.472519975155592">
        <ele>582.6962890625</ele>
        <time>2004-04-03T09:52:20Z</time>
      </trkpt>
      <trkpt lat="44.09270491451025" lon="10.472355857491493">
        <ele>581.73486328125</ele>
        <time>2004-04-03T09:52:24Z</time>
      </trkpt>
      <trkpt lat="44.092697454616427" lon="10.472209509462118">
        <ele>580.773681640625</ele>
        <time>2004-04-03T09:52:28Z</time>
      </trkpt>
      <trkpt lat="44.092680690810084" lon="10.472088810056448">
        <ele>578.85107421875</ele>
        <time>2004-04-03T09:52:31Z</time>
      </trkpt>
      <trkpt lat="44.092645235359669" lon="10.47194380313158">
        <ele>576.928466796875</ele>
        <time>2004-04-03T09:52:34Z</time>
      </trkpt>
      <trkpt lat="44.092571306973696" lon="10.471773399040103">
        <ele>574.525146484375</ele>
        <time>2004-04-03T09:52:37Z</time>
      </trkpt>
      <trkpt lat="44.092526128515601" lon="10.471593523398042">
        <ele>573.083251953125</ele>
        <time>2004-04-03T09:52:40Z</time>
      </trkpt>
      <trkpt lat="44.09253191202879" lon="10.471403086557984">
        <ele>570.6796875</ele>
        <time>2004-04-03T09:52:43Z</time>
      </trkpt>
      <trkpt lat="44.092539036646485" lon="10.471210135146976">
        <ele>569.23779296875</ele>
        <time>2004-04-03T09:52:46Z</time>
      </trkpt>
      <trkpt lat="44.092496708035469" lon="10.471057584509254">
        <ele>567.315185546875</ele>
        <time>2004-04-03T09:52:49Z</time>
      </trkpt>
      <trkpt lat="44.092389084398746" lon="10.471004024147987">
        <ele>565.392578125</ele>
        <time>2004-04-03T09:52:52Z</time>
      </trkpt>
      <trkpt lat="44.09227441996336" lon="10.47109798528254">
        <ele>563.469970703125</ele>
        <time>2004-04-03T09:52:55Z</time>
      </trkpt>
      <trkpt lat="44.092205688357353" lon="10.471235113218427">
        <ele>561.54736328125</ele>
        <time>2004-04-03T09:52:58Z</time>
      </trkpt>
      <trkpt lat="44.092197054997087" lon="10.471388334408402">
        <ele>558.663330078125</ele>
        <time>2004-04-03T09:53:01Z</time>
      </trkpt>
      <trkpt lat="44.092220356687903" lon="10.471542226150632">
        <ele>557.7021484375</ele>
        <time>2004-04-03T09:53:04Z</time>
      </trkpt>
      <trkpt lat="44.092249777168036" lon="10.471689077094197">
        <ele>556.260009765625</ele>
        <time>2004-04-03T09:53:07Z</time>
      </trkpt>
      <trkpt lat="44.092276263982058" lon="10.471799885854125">
        <ele>554.81787109375</ele>
        <time>2004-04-03T09:53:10Z</time>
      </trkpt>
      <trkpt lat="44.092298224568367" lon="10.471910359337926">
        <ele>553.856689453125</ele>
        <time>2004-04-03T09:53:13Z</time>
      </trkpt>
      <trkpt lat="44.092307360842824" lon="10.472067352384329">
        <ele>551.93408203125</ele>
        <time>2004-04-03T09:53:17Z</time>
      </trkpt>
      <trkpt lat="44.092217925935984" lon="10.472134407609701">
        <ele>550.97265625</ele>
        <time>2004-04-03T09:53:22Z</time>
      </trkpt>
      <trkpt lat="44.092136034741998" lon="10.472205486148596">
        <ele>550.011474609375</ele>
        <time>2004-04-03T09:53:27Z</time>
      </trkpt>
      <trkpt lat="44.09207166172564" lon="10.472302800044417">
        <ele>550.97265625</ele>
        <time>2004-04-03T09:53:42Z</time>
      </trkpt>
      <trkpt lat="44.092029416933656" lon="10.472417464479804">
        <ele>552.41455078125</ele>
        <time>2004-04-03T09:53:53Z</time>
      </trkpt>
      <trkpt lat="44.091975605115294" lon="10.472456943243742">
        <ele>552.895263671875</ele>
        <time>2004-04-03T09:56:28Z</time>
      </trkpt>
      <trkpt lat="44.09194802865386" lon="10.472663724794984">
        <ele>552.41455078125</ele>
        <time>2004-04-03T09:56:38Z</time>
      </trkpt>
      <trkpt lat="44.091893965378404" lon="10.472768833860755">
        <ele>552.41455078125</ele>
        <time>2004-04-03T09:56:41Z</time>
      </trkpt>
      <trkpt lat="44.091809643432498" lon="10.472828177735209">
        <ele>551.93408203125</ele>
        <time>2004-04-03T09:56:44Z</time>
      </trkpt>
      <trkpt lat="44.091729009523988" lon="10.472911074757576">
        <ele>550.97265625</ele>
        <time>2004-04-03T09:56:47Z</time>
      </trkpt>
      <trkpt lat="44.091666396707296" lon="10.47300897538662">
        <ele>551.453369140625</ele>
        <time>2004-04-03T09:56:51Z</time>
      </trkpt>
      <trkpt lat="44.091600347310305" lon="10.473095057532191">
        <ele>552.41455078125</ele>
        <time>2004-04-03T09:57:05Z</time>
      </trkpt>
      <trkpt lat="44.091527843847871" lon="10.473185665905476">
        <ele>553.856689453125</ele>
        <time>2004-04-03T09:57:13Z</time>
      </trkpt>
      <trkpt lat="44.091490879654884" lon="10.47332271002233">
        <ele>554.33740234375</ele>
        <time>2004-04-03T09:57:25Z</time>
      </trkpt>
      <trkpt lat="44.091462297365069" lon="10.47346637584269">
        <ele>552.895263671875</ele>
        <time>2004-04-03T09:57:29Z</time>
      </trkpt>
      <trkpt lat="44.091461962088943" lon="10.473624458536506">
        <ele>551.93408203125</ele>
        <time>2004-04-03T09:57:32Z</time>
      </trkpt>
      <trkpt lat="44.091479144990444" lon="10.473770890384912">
        <ele>550.4921875</ele>
        <time>2004-04-03T09:57:35Z</time>
      </trkpt>
      <trkpt lat="44.091503955423832" lon="10.473897457122803">
        <ele>550.97265625</ele>
        <time>2004-04-03T09:57:38Z</time>
      </trkpt>
      <trkpt lat="44.091515438631177" lon="10.474042044952512">
        <ele>549.53076171875</ele>
        <time>2004-04-03T09:57:42Z</time>
      </trkpt>
      <trkpt lat="44.091534465551376" lon="10.474212700501084">
        <ele>548.5693359375</ele>
        <time>2004-04-03T09:57:46Z</time>
      </trkpt>
      <trkpt lat="44.091542679816484" lon="10.474340273067355">
        <ele>548.5693359375</ele>
        <time>2004-04-03T09:57:49Z</time>
      </trkpt>
      <trkpt lat="44.091553492471576" lon="10.474463235586882">
        <ele>549.050048828125</ele>
        <time>2004-04-03T09:57:52Z</time>
      </trkpt>
      <trkpt lat="44.091548547148705" lon="10.474606901407242">
        <ele>548.5693359375</ele>
        <time>2004-04-03T09:57:56Z</time>
      </trkpt>
      <trkpt lat="44.091533878818154" lon="10.474728103727102">
        <ele>549.050048828125</ele>
        <time>2004-04-03T09:58:00Z</time>
      </trkpt>
      <trkpt lat="44.09145500510931" lon="10.474841259419918">
        <ele>548.0888671875</ele>
        <time>2004-04-03T09:58:05Z</time>
      </trkpt>
      <trkpt lat="44.09137730486691" lon="10.474941004067659">
        <ele>546.166259765625</ele>
        <time>2004-04-03T09:58:18Z</time>
      </trkpt>
      <trkpt lat="44.091371018439531" lon="10.475080730393529">
        <ele>543.2821044921875</ele>
        <time>2004-04-03T09:58:24Z</time>
      </trkpt>
      <trkpt lat="44.091384513303638" lon="10.475222887471318">
        <ele>541.3594970703125</ele>
        <time>2004-04-03T09:58:29Z</time>
      </trkpt>
      <trkpt lat="44.091411419212818" lon="10.475369822233915">
        <ele>538.956298828125</ele>
        <time>2004-04-03T09:58:34Z</time>
      </trkpt>
      <trkpt lat="44.09141980111599" lon="10.475507788360119">
        <ele>538.4757080078125</ele>
        <time>2004-04-03T09:58:39Z</time>
      </trkpt>
      <trkpt lat="44.091321565210819" lon="10.475482726469636">
        <ele>537.03369140625</ele>
        <time>2004-04-03T09:58:47Z</time>
      </trkpt>
      <trkpt lat="44.091220060363412" lon="10.475407876074314">
        <ele>535.591552734375</ele>
        <time>2004-04-03T09:58:53Z</time>
      </trkpt>
      <trkpt lat="44.091110927984118" lon="10.475413156673312">
        <ele>535.1109619140625</ele>
        <time>2004-04-03T09:58:58Z</time>
      </trkpt>
      <trkpt lat="44.091011015698314" lon="10.475464873015881">
        <ele>534.63037109375</ele>
        <time>2004-04-03T09:59:02Z</time>
      </trkpt>
      <trkpt lat="44.090914120897651" lon="10.475544333457947">
        <ele>535.1109619140625</ele>
        <time>2004-04-03T09:59:06Z</time>
      </trkpt>
      <trkpt lat="44.090813118964434" lon="10.475614909082651">
        <ele>535.591552734375</ele>
        <time>2004-04-03T09:59:10Z</time>
      </trkpt>
      <trkpt lat="44.090719157829881" lon="10.475678276270628">
        <ele>536.0723876953125</ele>
        <time>2004-04-03T09:59:14Z</time>
      </trkpt>
      <trkpt lat="44.090624358505011" lon="10.47572823241353">
        <ele>535.591552734375</ele>
        <time>2004-04-03T09:59:18Z</time>
      </trkpt>
      <trkpt lat="44.090532660484314" lon="10.475671906024218">
        <ele>534.149658203125</ele>
        <time>2004-04-03T09:59:26Z</time>
      </trkpt>
      <trkpt lat="44.090587478131056" lon="10.475405612960458">
        <ele>532.22705078125</ele>
        <time>2004-04-03T09:59:47Z</time>
      </trkpt>
      <trkpt lat="44.090615976601839" lon="10.47527133487165">
        <ele>529.3431396484375</ele>
        <time>2004-04-03T09:59:54Z</time>
      </trkpt>
      <trkpt lat="44.090552777051926" lon="10.475140577182174">
        <ele>531.2657470703125</ele>
        <time>2004-04-03T10:00:01Z</time>
      </trkpt>
      <trkpt lat="44.090454541146755" lon="10.475118365138769">
        <ele>531.746337890625</ele>
        <time>2004-04-03T10:00:06Z</time>
      </trkpt>
      <trkpt lat="44.090362507849932" lon="10.475178211927414">
        <ele>532.707763671875</ele>
        <time>2004-04-03T10:00:10Z</time>
      </trkpt>
      <trkpt lat="44.090278437361121" lon="10.475235963240266">
        <ele>533.1883544921875</ele>
        <time>2004-04-03T10:00:14Z</time>
      </trkpt>
      <trkpt lat="44.090171903371811" lon="10.475295977666974">
        <ele>532.707763671875</ele>
        <time>2004-04-03T10:00:18Z</time>
      </trkpt>
      <trkpt lat="44.090078445151448" lon="10.475369319319725">
        <ele>532.707763671875</ele>
        <time>2004-04-03T10:00:22Z</time>
      </trkpt>
      <trkpt lat="44.090059585869312" lon="10.475501585751772">
        <ele>532.707763671875</ele>
        <time>2004-04-03T10:00:27Z</time>
      </trkpt>
      <trkpt lat="44.090009294450283" lon="10.47560803592205">
        <ele>531.2657470703125</ele>
        <time>2004-04-03T10:00:53Z</time>
      </trkpt>
      <trkpt lat="44.089922290295362" lon="10.475676348432899">
        <ele>529.82373046875</ele>
        <time>2004-04-03T10:01:00Z</time>
      </trkpt>
      <trkpt lat="44.089807290583849" lon="10.475692190229893">
        <ele>527.9010009765625</ele>
        <time>2004-04-03T10:01:05Z</time>
      </trkpt>
      <trkpt lat="44.089698577299714" lon="10.475676851347089">
        <ele>525.0172119140625</ele>
        <time>2004-04-03T10:01:09Z</time>
      </trkpt>
      <trkpt lat="44.089582320302725" lon="10.475636869668961">
        <ele>523.5751953125</ele>
        <time>2004-04-03T10:01:13Z</time>
      </trkpt>
      <trkpt lat="44.089473439380527" lon="10.475576771423221">
        <ele>522.6138916015625</ele>
        <time>2004-04-03T10:01:16Z</time>
      </trkpt>
      <trkpt lat="44.089369168505073" lon="10.475501921027899">
        <ele>522.1331787109375</ele>
        <time>2004-04-03T10:01:19Z</time>
      </trkpt>
      <trkpt lat="44.08929088152945" lon="10.475352639332414">
        <ele>521.652587890625</ele>
        <time>2004-04-03T10:01:23Z</time>
      </trkpt>
      <trkpt lat="44.089231202378869" lon="10.475211152806878">
        <ele>521.652587890625</ele>
        <time>2004-04-03T10:01:27Z</time>
      </trkpt>
      <trkpt lat="44.089172948151827" lon="10.475042844191194">
        <ele>521.1719970703125</ele>
        <time>2004-04-03T10:01:32Z</time>
      </trkpt>
      <trkpt lat="44.089133888483047" lon="10.47488241456449">
        <ele>517.8072509765625</ele>
        <time>2004-04-03T10:01:36Z</time>
      </trkpt>
      <trkpt lat="44.089105473831296" lon="10.474717877805233">
        <ele>515.8846435546875</ele>
        <time>2004-04-03T10:01:40Z</time>
      </trkpt>
      <trkpt lat="44.089084016159177" lon="10.474525345489383">
        <ele>513.4814453125</ele>
        <time>2004-04-03T10:01:44Z</time>
      </trkpt>
      <trkpt lat="44.089062390848994" lon="10.474349744617939">
        <ele>511.0780029296875</ele>
        <time>2004-04-03T10:01:48Z</time>
      </trkpt>
      <trkpt lat="44.089018888771534" lon="10.474330969154835">
        <ele>508.6746826171875</ele>
        <time>2004-04-03T10:01:51Z</time>
      </trkpt>
      <trkpt lat="44.088941942900419" lon="10.474441526457667">
        <ele>507.2327880859375</ele>
        <time>2004-04-03T10:01:53Z</time>
      </trkpt>
      <trkpt lat="44.088863069191575" lon="10.474536744877696">
        <ele>505.7908935546875</ele>
        <time>2004-04-03T10:01:55Z</time>
      </trkpt>
      <trkpt lat="44.0887719579041" lon="10.4746522475034">
        <ele>504.8294677734375</ele>
        <time>2004-04-03T10:01:58Z</time>
      </trkpt>
      <trkpt lat="44.088674476370215" lon="10.474769845604897">
        <ele>503.387451171875</ele>
        <time>2004-04-03T10:02:01Z</time>
      </trkpt>
      <trkpt lat="44.088564170524478" lon="10.474811838939786">
        <ele>502.4261474609375</ele>
        <time>2004-04-03T10:02:04Z</time>
      </trkpt>
      <trkpt lat="44.088463168591261" lon="10.474829943850636">
        <ele>501.46484375</ele>
        <time>2004-04-03T10:02:07Z</time>
      </trkpt>
      <trkpt lat="44.088351856917143" lon="10.474793817847967">
        <ele>500.02294921875</ele>
        <time>2004-04-03T10:02:10Z</time>
      </trkpt>
      <trkpt lat="44.088300140574574" lon="10.474759032949805">
        <ele>499.0615234375</ele>
        <time>2004-04-03T10:02:12Z</time>
      </trkpt>
      <trkpt lat="44.088437855243683" lon="10.474793650209904">
        <ele>498.100341796875</ele>
        <time>2004-04-03T10:02:13Z</time>
      </trkpt>
      <trkpt lat="44.088563835248351" lon="10.474810414016247">
        <ele>497.61962890625</ele>
        <time>2004-04-03T10:02:14Z</time>
      </trkpt>
      <trkpt lat="44.088050611317158" lon="10.47426232136786">
        <ele>496.177734375</ele>
        <time>2004-04-03T10:02:18Z</time>
      </trkpt>
      <trkpt lat="44.087909711524844" lon="10.474196607246995">
        <ele>493.7742919921875</ele>
        <time>2004-04-03T10:02:22Z</time>
      </trkpt>
      <trkpt lat="44.087736373767257" lon="10.474013546481729">
        <ele>490.890380859375</ele>
        <time>2004-04-03T10:02:26Z</time>
      </trkpt>
      <trkpt lat="44.087706953287125" lon="10.473936516791582">
        <ele>487.525634765625</ele>
        <time>2004-04-03T10:02:30Z</time>
      </trkpt>
      <trkpt lat="44.087661020457745" lon="10.473731411620975">
        <ele>485.60302734375</ele>
        <time>2004-04-03T10:02:34Z</time>
      </trkpt>
      <trkpt lat="44.087635707110167" lon="10.473564527928829">
        <ele>483.1998291015625</ele>
        <time>2004-04-03T10:02:37Z</time>
      </trkpt>
      <trkpt lat="44.087626738473773" lon="10.473395213484764">
        <ele>480.31591796875</ele>
        <time>2004-04-03T10:02:41Z</time>
      </trkpt>
      <trkpt lat="44.087559599429369" lon="10.473368726670742">
        <ele>478.3931884765625</ele>
        <time>2004-04-03T10:02:44Z</time>
      </trkpt>
      <trkpt lat="44.087470415979624" lon="10.473411306738853">
        <ele>475.50927734375</ele>
        <time>2004-04-03T10:02:48Z</time>
      </trkpt>
      <trkpt lat="44.087375868111849" lon="10.473412815481424">
        <ele>473.1060791015625</ele>
        <time>2004-04-03T10:02:52Z</time>
      </trkpt>
      <trkpt lat="44.087289702147245" lon="10.473395129665732">
        <ele>469.7413330078125</ele>
        <time>2004-04-03T10:02:56Z</time>
      </trkpt>
      <trkpt lat="44.087200267240405" lon="10.473401499912143">
        <ele>468.29931640625</ele>
        <time>2004-04-03T10:03:00Z</time>
      </trkpt>
      <trkpt lat="44.087130026891828" lon="10.473499316722155">
        <ele>465.41552734375</ele>
        <time>2004-04-03T10:03:03Z</time>
      </trkpt>
      <trkpt lat="44.087081411853433" lon="10.473662428557873">
        <ele>463.973388671875</ele>
        <time>2004-04-03T10:03:06Z</time>
      </trkpt>
      <trkpt lat="44.087027432397008" lon="10.473821852356195">
        <ele>462.5313720703125</ele>
        <time>2004-04-03T10:03:09Z</time>
      </trkpt>
      <trkpt lat="44.086992060765624" lon="10.47398236580193">
        <ele>460.6087646484375</ele>
        <time>2004-04-03T10:03:12Z</time>
      </trkpt>
      <trkpt lat="44.086931208148599" lon="10.47408546321094">
        <ele>459.1668701171875</ele>
        <time>2004-04-03T10:03:15Z</time>
      </trkpt>
      <trkpt lat="44.086834313347936" lon="10.474123600870371">
        <ele>457.7249755859375</ele>
        <time>2004-04-03T10:03:18Z</time>
      </trkpt>
      <trkpt lat="44.086755020543933" lon="10.47423348762095">
        <ele>456.282958984375</ele>
        <time>2004-04-03T10:03:21Z</time>
      </trkpt>
      <trkpt lat="44.086674302816391" lon="10.47435225918889">
        <ele>454.8408203125</ele>
        <time>2004-04-03T10:03:24Z</time>
      </trkpt>
      <trkpt lat="44.086590902879834" lon="10.474449656903744">
        <ele>453.879638671875</ele>
        <time>2004-04-03T10:03:27Z</time>
      </trkpt>
      <trkpt lat="44.086514627560973" lon="10.474562980234623">
        <ele>453.39892578125</ele>
        <time>2004-04-03T10:03:30Z</time>
      </trkpt>
      <trkpt lat="44.086448745802045" lon="10.474682757630944">
        <ele>452.918212890625</ele>
        <time>2004-04-03T10:03:33Z</time>
      </trkpt>
      <trkpt lat="44.086389904841781" lon="10.474779149517417">
        <ele>452.918212890625</ele>
        <time>2004-04-03T10:03:36Z</time>
      </trkpt>
      <trkpt lat="44.086322514340281" lon="10.47488434240222">
        <ele>452.4376220703125</ele>
        <time>2004-04-03T10:03:39Z</time>
      </trkpt>
      <trkpt lat="44.086239449679852" lon="10.474995654076338">
        <ele>452.4376220703125</ele>
        <time>2004-04-03T10:03:42Z</time>
      </trkpt>
      <trkpt lat="44.086146326735616" lon="10.475114760920405">
        <ele>451.95703125</ele>
        <time>2004-04-03T10:03:45Z</time>
      </trkpt>
      <trkpt lat="44.086049934849143" lon="10.475241579115391">
        <ele>451.476318359375</ele>
        <time>2004-04-03T10:03:48Z</time>
      </trkpt>
      <trkpt lat="44.085986902937293" lon="10.47532849945128">
        <ele>451.476318359375</ele>
        <time>2004-04-03T10:03:50Z</time>
      </trkpt>
      <trkpt lat="44.085930828005075" lon="10.475418604910374">
        <ele>450.99560546875</ele>
        <time>2004-04-03T10:03:52Z</time>
      </trkpt>
      <trkpt lat="44.085856145247817" lon="10.475566294044256">
        <ele>450.99560546875</ele>
        <time>2004-04-03T10:03:55Z</time>
      </trkpt>
      <trkpt lat="44.085784312337637" lon="10.475747175514698">
        <ele>450.5150146484375</ele>
        <time>2004-04-03T10:03:58Z</time>
      </trkpt>
      <trkpt lat="44.085740642622113" lon="10.475894613191485">
        <ele>450.5150146484375</ele>
        <time>2004-04-03T10:04:00Z</time>
      </trkpt>
      <trkpt lat="44.085680628195405" lon="10.476048169657588">
        <ele>449.072998046875</ele>
        <time>2004-04-03T10:04:03Z</time>
      </trkpt>
      <trkpt lat="44.085625978186727" lon="10.476196696981788">
        <ele>447.6309814453125</ele>
        <time>2004-04-03T10:04:06Z</time>
      </trkpt>
      <trkpt lat="44.085614662617445" lon="10.476375734433532">
        <ele>445.7083740234375</ele>
        <time>2004-04-03T10:04:09Z</time>
      </trkpt>
      <trkpt lat="44.085614997893572" lon="10.476535074412823">
        <ele>444.7470703125</ele>
        <time>2004-04-03T10:04:12Z</time>
      </trkpt>
      <trkpt lat="44.08554500900209" lon="10.476615121588111">
        <ele>444.2664794921875</ele>
        <time>2004-04-03T10:04:15Z</time>
      </trkpt>
      <trkpt lat="44.08546487800777" lon="10.476545551791787">
        <ele>443.3050537109375</ele>
        <time>2004-04-03T10:04:18Z</time>
      </trkpt>
      <trkpt lat="44.085416179150343" lon="10.476435413584113">
        <ele>441.8631591796875</ele>
        <time>2004-04-03T10:04:21Z</time>
      </trkpt>
      <trkpt lat="44.085370916873217" lon="10.476328711956739">
        <ele>440.4212646484375</ele>
        <time>2004-04-03T10:04:24Z</time>
      </trkpt>
      <trkpt lat="44.085336131975055" lon="10.476252101361752">
        <ele>439.459716796875</ele>
        <time>2004-04-03T10:04:30Z</time>
      </trkpt>
      <trkpt lat="44.085319703444839" lon="10.476083038374782">
        <ele>438.017822265625</ele>
        <time>2004-04-03T10:04:36Z</time>
      </trkpt>
      <trkpt lat="44.085338562726974" lon="10.475950352847576">
        <ele>437.537109375</ele>
        <time>2004-04-03T10:04:38Z</time>
      </trkpt>
      <trkpt lat="44.085376365110278" lon="10.475815823301673">
        <ele>437.0565185546875</ele>
        <time>2004-04-03T10:04:40Z</time>
      </trkpt>
      <trkpt lat="44.085403438657522" lon="10.475687915459275">
        <ele>436.09521484375</ele>
        <time>2004-04-03T10:04:42Z</time>
      </trkpt>
      <trkpt lat="44.085321212187409" lon="10.475604934617877">
        <ele>434.172607421875</ele>
        <time>2004-04-03T10:04:45Z</time>
      </trkpt>
      <trkpt lat="44.085219707340002" lon="10.475689508020878">
        <ele>432.25</ele>
        <time>2004-04-03T10:04:48Z</time>
      </trkpt>
      <trkpt lat="44.08515365794301" lon="10.475784223526716">
        <ele>430.3272705078125</ele>
        <time>2004-04-03T10:04:52Z</time>
      </trkpt>
      <trkpt lat="44.085074029862881" lon="10.475755305960774">
        <ele>428.8853759765625</ele>
        <time>2004-04-03T10:04:56Z</time>
      </trkpt>
      <trkpt lat="44.085065899416804" lon="10.475633349269629">
        <ele>426.0013427734375</ele>
        <time>2004-04-03T10:05:00Z</time>
      </trkpt>
      <trkpt lat="44.084972525015473" lon="10.475591188296676">
        <ele>423.5980224609375</ele>
        <time>2004-04-03T10:05:04Z</time>
      </trkpt>
      <trkpt lat="44.084887113422155" lon="10.475662937387824">
        <ele>422.63671875</ele>
        <time>2004-04-03T10:05:07Z</time>
      </trkpt>
      <trkpt lat="44.084830954670906" lon="10.47577902674675">
        <ele>419.7528076171875</ele>
        <time>2004-04-03T10:05:10Z</time>
      </trkpt>
      <trkpt lat="44.084746548905969" lon="10.47577709890902">
        <ele>417.8302001953125</ele>
        <time>2004-04-03T10:05:14Z</time>
      </trkpt>
      <trkpt lat="44.084725929424167" lon="10.47563879750669">
        <ele>415.907470703125</ele>
        <time>2004-04-03T10:05:18Z</time>
      </trkpt>
      <trkpt lat="44.084710674360394" lon="10.475498652085662">
        <ele>414.9461669921875</ele>
        <time>2004-04-03T10:05:21Z</time>
      </trkpt>
      <trkpt lat="44.084703549742699" lon="10.475337887182832">
        <ele>412.5428466796875</ele>
        <time>2004-04-03T10:05:24Z</time>
      </trkpt>
      <trkpt lat="44.084726348519325" lon="10.475216265767813">
        <ele>410.1396484375</ele>
        <time>2004-04-03T10:05:27Z</time>
      </trkpt>
      <trkpt lat="44.084797175601125" lon="10.475150551646948">
        <ele>406.2943115234375</ele>
        <time>2004-04-03T10:06:21Z</time>
      </trkpt>
      <trkpt lat="44.084818381816149" lon="10.474995989352465">
        <ele>406.2943115234375</ele>
        <time>2004-04-03T10:09:09Z</time>
      </trkpt>
      <trkpt lat="44.084892142564058" lon="10.47489657998085">
        <ele>406.2943115234375</ele>
        <time>2004-04-03T10:09:14Z</time>
      </trkpt>
      <trkpt lat="44.084966154769063" lon="10.474802115932107">
        <ele>405.813720703125</ele>
        <time>2004-04-03T10:09:18Z</time>
      </trkpt>
      <trkpt lat="44.085047543048859" lon="10.474681416526437">
        <ele>406.2943115234375</ele>
        <time>2004-04-03T10:09:22Z</time>
      </trkpt>
      <trkpt lat="44.085109233856201" lon="10.474582929164171">
        <ele>406.77490234375</ele>
        <time>2004-04-03T10:09:25Z</time>
      </trkpt>
      <trkpt lat="44.085171762853861" lon="10.474477401003242">
        <ele>406.77490234375</ele>
        <time>2004-04-03T10:09:28Z</time>
      </trkpt>
      <trkpt lat="44.08523278310895" lon="10.474368687719107">
        <ele>406.77490234375</ele>
        <time>2004-04-03T10:09:31Z</time>
      </trkpt>
      <trkpt lat="44.085292294621468" lon="10.474260309711099">
        <ele>406.2943115234375</ele>
        <time>2004-04-03T10:09:34Z</time>
      </trkpt>
      <trkpt lat="44.085351638495922" lon="10.474161738529801">
        <ele>407.255615234375</ele>
        <time>2004-04-03T10:09:37Z</time>
      </trkpt>
      <trkpt lat="44.085413999855518" lon="10.474066436290741">
        <ele>407.736328125</ele>
        <time>2004-04-03T10:09:40Z</time>
      </trkpt>
      <trkpt lat="44.085473092272878" lon="10.473969290032983">
        <ele>408.217041015625</ele>
        <time>2004-04-03T10:09:43Z</time>
      </trkpt>
      <trkpt lat="44.085536040365696" lon="10.473876167088747">
        <ele>409.1783447265625</ele>
        <time>2004-04-03T10:09:46Z</time>
      </trkpt>
      <trkpt lat="44.085608292371035" lon="10.473796539008617">
        <ele>409.1783447265625</ele>
        <time>2004-04-03T10:09:49Z</time>
      </trkpt>
      <trkpt lat="44.085675682872534" lon="10.473713558167219">
        <ele>410.6202392578125</ele>
        <time>2004-04-03T10:09:52Z</time>
      </trkpt>
      <trkpt lat="44.085765955969691" lon="10.473612220957875">
        <ele>410.6202392578125</ele>
        <time>2004-04-03T10:09:56Z</time>
      </trkpt>
      <trkpt lat="44.085852038115263" lon="10.47350300475955">
        <ele>412.062255859375</ele>
        <time>2004-04-03T10:10:00Z</time>
      </trkpt>
      <trkpt lat="44.085916830226779" lon="10.473416587337852">
        <ele>412.5428466796875</ele>
        <time>2004-04-03T10:10:03Z</time>
      </trkpt>
      <trkpt lat="44.085959661751986" lon="10.473304772749543">
        <ele>413.0235595703125</ele>
        <time>2004-04-03T10:10:06Z</time>
      </trkpt>
      <trkpt lat="44.085985561832786" lon="10.473177200183272">
        <ele>413.98486328125</ele>
        <time>2004-04-03T10:10:09Z</time>
      </trkpt>
      <trkpt lat="44.086004421114922" lon="10.473049208521843">
        <ele>414.9461669921875</ele>
        <time>2004-04-03T10:10:12Z</time>
      </trkpt>
      <trkpt lat="44.086016826331615" lon="10.472883246839046">
        <ele>415.4268798828125</ele>
        <time>2004-04-03T10:10:16Z</time>
      </trkpt>
      <trkpt lat="44.086028812453151" lon="10.472727008163929">
        <ele>415.4268798828125</ele>
        <time>2004-04-03T10:10:20Z</time>
      </trkpt>
      <trkpt lat="44.086037529632449" lon="10.47259608283639">
        <ele>415.907470703125</ele>
        <time>2004-04-03T10:10:26Z</time>
      </trkpt>
      <trkpt lat="44.086103746667504" lon="10.472499020397663">
        <ele>416.38818359375</ele>
        <time>2004-04-03T10:10:34Z</time>
      </trkpt>
      <trkpt lat="44.086134675890207" lon="10.472355773672462">
        <ele>416.38818359375</ele>
        <time>2004-04-03T10:10:42Z</time>
      </trkpt>
      <trkpt lat="44.0861557982862" lon="10.472225518897176">
        <ele>416.38818359375</ele>
        <time>2004-04-03T10:10:48Z</time>
      </trkpt>
      <trkpt lat="44.086205251514912" lon="10.472121415659785">
        <ele>419.272216796875</ele>
        <time>2004-04-03T10:10:54Z</time>
      </trkpt>
      <trkpt lat="44.08628580160439" lon="10.472069950774312">
        <ele>420.2333984375</ele>
        <time>2004-04-03T10:11:09Z</time>
      </trkpt>
      <trkpt lat="44.086369620636106" lon="10.472037428990006">
        <ele>421.19482421875</ele>
        <time>2004-04-03T10:11:20Z</time>
      </trkpt>
      <trkpt lat="44.086419912055135" lon="10.471944222226739">
        <ele>424.0787353515625</ele>
        <time>2004-04-03T10:11:30Z</time>
      </trkpt>
      <trkpt lat="44.086480680853128" lon="10.471823439002037">
        <ele>424.0787353515625</ele>
        <time>2004-04-03T10:11:52Z</time>
      </trkpt>
      <trkpt lat="44.086533403024077" lon="10.471673486754298">
        <ele>424.5594482421875</ele>
        <time>2004-04-03T10:11:58Z</time>
      </trkpt>
      <trkpt lat="44.08659023232758" lon="10.47153971157968">
        <ele>423.5980224609375</ele>
        <time>2004-04-03T10:12:04Z</time>
      </trkpt>
      <trkpt lat="44.086681343615055" lon="10.471471734344959">
        <ele>423.117431640625</ele>
        <time>2004-04-03T10:12:10Z</time>
      </trkpt>
      <trkpt lat="44.086797684431076" lon="10.471482379361987">
        <ele>423.117431640625</ele>
        <time>2004-04-03T10:12:15Z</time>
      </trkpt>
      <trkpt lat="44.086910923942924" lon="10.471491934731603">
        <ele>423.5980224609375</ele>
        <time>2004-04-03T10:12:21Z</time>
      </trkpt>
      <trkpt lat="44.086998933926225" lon="10.471510207280517">
        <ele>424.0787353515625</ele>
        <time>2004-04-03T10:12:27Z</time>
      </trkpt>
      <trkpt lat="44.087104294449091" lon="10.471504926681519">
        <ele>426.4820556640625</ele>
        <time>2004-04-03T10:12:33Z</time>
      </trkpt>
      <trkpt lat="44.087211079895496" lon="10.471514901146293">
        <ele>428.4046630859375</ele>
        <time>2004-04-03T10:12:40Z</time>
      </trkpt>
      <trkpt lat="44.087328761816025" lon="10.471517834812403">
        <ele>429.365966796875</ele>
        <time>2004-04-03T10:12:49Z</time>
      </trkpt>
      <trkpt lat="44.087429931387305" lon="10.471533006057143">
        <ele>430.8079833984375</ele>
        <time>2004-04-03T10:12:55Z</time>
      </trkpt>
      <trkpt lat="44.087529005482793" lon="10.471591260284185">
        <ele>431.28857421875</ele>
        <time>2004-04-03T10:13:01Z</time>
      </trkpt>
      <trkpt lat="44.087608549743891" lon="10.471691759303212">
        <ele>432.25</ele>
        <time>2004-04-03T10:13:08Z</time>
      </trkpt>
      <trkpt lat="44.087714329361916" lon="10.471721095964313">
        <ele>432.730712890625</ele>
        <time>2004-04-03T10:13:20Z</time>
      </trkpt>
      <trkpt lat="44.087824719026685" lon="10.471751019358635">
        <ele>434.6533203125</ele>
        <time>2004-04-03T10:13:34Z</time>
      </trkpt>
      <trkpt lat="44.087906777858734" lon="10.471835341304541">
        <ele>437.0565185546875</ele>
        <time>2004-04-03T10:13:48Z</time>
      </trkpt>
      <trkpt lat="44.087950447574258" lon="10.471961405128241">
        <ele>438.9791259765625</ele>
        <time>2004-04-03T10:14:00Z</time>
      </trkpt>
      <trkpt lat="44.087995542213321" lon="10.472075399011374">
        <ele>442.3438720703125</ele>
        <time>2004-04-03T10:14:11Z</time>
      </trkpt>
      <trkpt lat="44.088079780340195" lon="10.472065843641758">
        <ele>444.7470703125</ele>
        <time>2004-04-03T10:14:24Z</time>
      </trkpt>
      <trkpt lat="44.088132921606302" lon="10.471942378208041">
        <ele>444.7470703125</ele>
        <time>2004-04-03T10:14:36Z</time>
      </trkpt>
      <trkpt lat="44.088194193318486" lon="10.471838526427746">
        <ele>444.7470703125</ele>
        <time>2004-04-03T10:14:40Z</time>
      </trkpt>
      <trkpt lat="44.088287400081754" lon="10.471785301342607">
        <ele>445.2276611328125</ele>
        <time>2004-04-03T10:14:45Z</time>
      </trkpt>
      <trkpt lat="44.088401980698109" lon="10.471802987158298">
        <ele>444.7470703125</ele>
        <time>2004-04-03T10:14:54Z</time>
      </trkpt>
      <trkpt lat="44.08853055909276" lon="10.471884878352284">
        <ele>444.2664794921875</ele>
        <time>2004-04-03T10:15:01Z</time>
      </trkpt>
      <trkpt lat="44.088630471378565" lon="10.472013624384999">
        <ele>444.7470703125</ele>
        <time>2004-04-03T10:15:06Z</time>
      </trkpt>
      <trkpt lat="44.088712697848678" lon="10.472162738442421">
        <ele>444.7470703125</ele>
        <time>2004-04-03T10:15:11Z</time>
      </trkpt>
      <trkpt lat="44.088799115270376" lon="10.472291652113199">
        <ele>444.2664794921875</ele>
        <time>2004-04-03T10:15:15Z</time>
      </trkpt>
      <trkpt lat="44.08890925347805" lon="10.472412016242743">
        <ele>443.3050537109375</ele>
        <time>2004-04-03T10:15:19Z</time>
      </trkpt>
      <trkpt lat="44.088986115530133" lon="10.47249692492187">
        <ele>443.3050537109375</ele>
        <time>2004-04-03T10:15:22Z</time>
      </trkpt>
      <trkpt lat="44.089050991460681" lon="10.472576133906841">
        <ele>443.7857666015625</ele>
        <time>2004-04-03T10:15:25Z</time>
      </trkpt>
      <trkpt lat="44.089138247072697" lon="10.472678812220693">
        <ele>444.2664794921875</ele>
        <time>2004-04-03T10:15:29Z</time>
      </trkpt>
      <trkpt lat="44.089285181835294" lon="10.472652912139893">
        <ele>442.3438720703125</ele>
        <time>2004-04-03T10:16:09Z</time>
      </trkpt>
      <trkpt lat="44.089262299239635" lon="10.472510000690818">
        <ele>442.824462890625</ele>
        <time>2004-04-03T10:16:14Z</time>
      </trkpt>
      <trkpt lat="44.089230867102742" lon="10.472370525822043">
        <ele>442.824462890625</ele>
        <time>2004-04-03T10:16:18Z</time>
      </trkpt>
      <trkpt lat="44.089220473542809" lon="10.472234738990664">
        <ele>442.824462890625</ele>
        <time>2004-04-03T10:16:21Z</time>
      </trkpt>
      <trkpt lat="44.089240590110421" lon="10.472059724852443">
        <ele>441.8631591796875</ele>
        <time>2004-04-03T10:16:25Z</time>
      </trkpt>
      <trkpt lat="44.089264143258333" lon="10.471891667693853">
        <ele>441.3824462890625</ele>
        <time>2004-04-03T10:16:29Z</time>
      </trkpt>
      <trkpt lat="44.089305298402905" lon="10.47173760831356">
        <ele>439.459716796875</ele>
        <time>2004-04-03T10:16:33Z</time>
      </trkpt>
      <trkpt lat="44.089273028075695" lon="10.471603078767657">
        <ele>438.49853515625</ele>
        <time>2004-04-03T10:16:38Z</time>
      </trkpt>
      <trkpt lat="44.08922391012311" lon="10.471464861184359">
        <ele>438.017822265625</ele>
        <time>2004-04-03T10:16:43Z</time>
      </trkpt>
      <trkpt lat="44.089222820475698" lon="10.471332594752312">
        <ele>437.537109375</ele>
        <time>2004-04-03T10:16:48Z</time>
      </trkpt>
      <trkpt lat="44.089292054995894" lon="10.471223965287209">
        <ele>438.017822265625</ele>
        <time>2004-04-03T10:16:53Z</time>
      </trkpt>
      <trkpt lat="44.089297922328115" lon="10.471069989725947">
        <ele>439.459716796875</ele>
        <time>2004-04-03T10:17:05Z</time>
      </trkpt>
      <trkpt lat="44.089326504617929" lon="10.470924228429794">
        <ele>441.8631591796875</ele>
        <time>2004-04-03T10:17:17Z</time>
      </trkpt>
      <trkpt lat="44.089374700561166" lon="10.470796907320619">
        <ele>443.3050537109375</ele>
        <time>2004-04-03T10:17:27Z</time>
      </trkpt>
      <trkpt lat="44.089456843212247" lon="10.470703952014446">
        <ele>445.2276611328125</ele>
        <time>2004-04-03T10:17:37Z</time>
      </trkpt>
      <trkpt lat="44.089554576203227" lon="10.470642596483231">
        <ele>445.2276611328125</ele>
        <time>2004-04-03T10:17:46Z</time>
      </trkpt>
      <trkpt lat="44.089716430753469" lon="10.470708142966032">
        <ele>446.669677734375</ele>
        <time>2004-04-03T10:18:25Z</time>
      </trkpt>
      <trkpt lat="44.089790862053633" lon="10.470646452158689">
        <ele>445.2276611328125</ele>
        <time>2004-04-03T10:18:28Z</time>
      </trkpt>
      <trkpt lat="44.089865796267986" lon="10.470521729439497">
        <ele>444.7470703125</ele>
        <time>2004-04-03T10:18:31Z</time>
      </trkpt>
      <trkpt lat="44.089939976111054" lon="10.470390552654862">
        <ele>445.2276611328125</ele>
        <time>2004-04-03T10:18:35Z</time>
      </trkpt>
      <trkpt lat="44.090003427118063" lon="10.470268931239843">
        <ele>445.2276611328125</ele>
        <time>2004-04-03T10:18:39Z</time>
      </trkpt>
      <trkpt lat="44.090006528422236" lon="10.470141945406795">
        <ele>445.7083740234375</ele>
        <time>2004-04-03T10:18:46Z</time>
      </trkpt>
      <trkpt lat="44.089950537309051" lon="10.470013450831175">
        <ele>446.669677734375</ele>
        <time>2004-04-03T10:18:56Z</time>
      </trkpt>
      <trkpt lat="44.089924469590187" lon="10.469882106408477">
        <ele>449.072998046875</ele>
        <time>2004-04-03T10:19:04Z</time>
      </trkpt>
      <trkpt lat="44.08991189673543" lon="10.469755455851555">
        <ele>450.99560546875</ele>
        <time>2004-04-03T10:19:13Z</time>
      </trkpt>
      <trkpt lat="44.08992069773376" lon="10.469615226611495">
        <ele>449.072998046875</ele>
        <time>2004-04-03T10:19:23Z</time>
      </trkpt>
      <trkpt lat="44.089914578944445" lon="10.469486648216844">
        <ele>450.034423828125</ele>
        <time>2004-04-03T10:19:31Z</time>
      </trkpt>
      <trkpt lat="44.089876692742109" lon="10.469351783394814">
        <ele>450.034423828125</ele>
        <time>2004-04-03T10:19:41Z</time>
      </trkpt>
      <trkpt lat="44.089849283918738" lon="10.469225719571114">
        <ele>450.034423828125</ele>
        <time>2004-04-03T10:19:45Z</time>
      </trkpt>
      <trkpt lat="44.089817684143782" lon="10.469088591635227">
        <ele>450.5150146484375</ele>
        <time>2004-04-03T10:19:50Z</time>
      </trkpt>
      <trkpt lat="44.089793544262648" lon="10.46895339153707">
        <ele>450.99560546875</ele>
        <time>2004-04-03T10:19:55Z</time>
      </trkpt>
      <trkpt lat="44.089779127389193" lon="10.468822214752436">
        <ele>451.476318359375</ele>
        <time>2004-04-03T10:20:00Z</time>
      </trkpt>
      <trkpt lat="44.089745515957475" lon="10.468678884208202">
        <ele>451.476318359375</ele>
        <time>2004-04-03T10:20:05Z</time>
      </trkpt>
      <trkpt lat="44.089699247851968" lon="10.468553574755788">
        <ele>451.95703125</ele>
        <time>2004-04-03T10:20:10Z</time>
      </trkpt>
      <trkpt lat="44.089650632813573" lon="10.468426253646612">
        <ele>451.95703125</ele>
        <time>2004-04-03T10:20:15Z</time>
      </trkpt>
      <trkpt lat="44.089611992239952" lon="10.468309577554464">
        <ele>452.4376220703125</ele>
        <time>2004-04-03T10:20:20Z</time>
      </trkpt>
      <trkpt lat="44.089591624215245" lon="10.46817060559988">
        <ele>452.4376220703125</ele>
        <time>2004-04-03T10:20:25Z</time>
      </trkpt>
      <trkpt lat="44.089590283110738" lon="10.468025682494044">
        <ele>451.95703125</ele>
        <time>2004-04-03T10:20:29Z</time>
      </trkpt>
      <trkpt lat="44.089610483497381" lon="10.467873970046639">
        <ele>451.476318359375</ele>
        <time>2004-04-03T10:20:33Z</time>
      </trkpt>
      <trkpt lat="44.089644346386194" lon="10.467723347246647">
        <ele>450.99560546875</ele>
        <time>2004-04-03T10:20:37Z</time>
      </trkpt>
      <trkpt lat="44.089712407439947" lon="10.467621171846986">
        <ele>451.476318359375</ele>
        <time>2004-04-03T10:20:40Z</time>
      </trkpt>
      <trkpt lat="44.089779881760478" lon="10.467536011710763">
        <ele>450.034423828125</ele>
        <time>2004-04-03T10:20:43Z</time>
      </trkpt>
      <trkpt lat="44.089832603931427" lon="10.467408774420619">
        <ele>448.5924072265625</ele>
        <time>2004-04-03T10:20:48Z</time>
      </trkpt>
      <trkpt lat="44.089834950864315" lon="10.467248512431979">
        <ele>447.6309814453125</ele>
        <time>2004-04-03T10:20:53Z</time>
      </trkpt>
      <trkpt lat="44.089828496798873" lon="10.467113060876727">
        <ele>446.1890869140625</ele>
        <time>2004-04-03T10:20:57Z</time>
      </trkpt>
      <trkpt lat="44.089807122945786" lon="10.466947769746184">
        <ele>443.7857666015625</ele>
        <time>2004-04-03T10:21:01Z</time>
      </trkpt>
      <trkpt lat="44.089794717729092" lon="10.466775940731168">
        <ele>442.824462890625</ele>
        <time>2004-04-03T10:21:05Z</time>
      </trkpt>
      <trkpt lat="44.089793376624584" lon="10.466607045382261">
        <ele>443.3050537109375</ele>
        <time>2004-04-03T10:21:09Z</time>
      </trkpt>
      <trkpt lat="44.089804189279675" lon="10.466473521664739">
        <ele>443.3050537109375</ele>
        <time>2004-04-03T10:21:12Z</time>
      </trkpt>
      <trkpt lat="44.089819276705384" lon="10.466335723176599">
        <ele>443.7857666015625</ele>
        <time>2004-04-03T10:21:15Z</time>
      </trkpt>
      <trkpt lat="44.089836375787854" lon="10.466199684888124">
        <ele>443.7857666015625</ele>
        <time>2004-04-03T10:21:18Z</time>
      </trkpt>
      <trkpt lat="44.089843332767487" lon="10.466060629114509">
        <ele>445.2276611328125</ele>
        <time>2004-04-03T10:21:21Z</time>
      </trkpt>
      <trkpt lat="44.089827826246619" lon="10.465884441509843">
        <ele>444.7470703125</ele>
        <time>2004-04-03T10:21:25Z</time>
      </trkpt>
      <trkpt lat="44.089822797104716" lon="10.465751755982637">
        <ele>445.2276611328125</ele>
        <time>2004-04-03T10:21:28Z</time>
      </trkpt>
      <trkpt lat="44.089842829853296" lon="10.465623596683145">
        <ele>446.1890869140625</ele>
        <time>2004-04-03T10:21:31Z</time>
      </trkpt>
      <trkpt lat="44.089861772954464" lon="10.465494012460113">
        <ele>445.7083740234375</ele>
        <time>2004-04-03T10:21:34Z</time>
      </trkpt>
      <trkpt lat="44.08985716290772" lon="10.465363170951605">
        <ele>446.1890869140625</ele>
        <time>2004-04-03T10:21:37Z</time>
      </trkpt>
      <trkpt lat="44.089843919500709" lon="10.465224618092179">
        <ele>447.1502685546875</ele>
        <time>2004-04-03T10:21:41Z</time>
      </trkpt>
      <trkpt lat="44.089833945035934" lon="10.465091681107879">
        <ele>447.6309814453125</ele>
        <time>2004-04-03T10:21:45Z</time>
      </trkpt>
      <trkpt lat="44.089821623638272" lon="10.464968048036098">
        <ele>447.6309814453125</ele>
        <time>2004-04-03T10:21:49Z</time>
      </trkpt>
      <trkpt lat="44.089863365516067" lon="10.464849276468158">
        <ele>449.072998046875</ele>
        <time>2004-04-03T10:21:55Z</time>
      </trkpt>
      <trkpt lat="44.089935701340437" lon="10.464929826557636">
        <ele>449.072998046875</ele>
        <time>2004-04-03T10:22:02Z</time>
      </trkpt>
      <trkpt lat="44.089993955567479" lon="10.465049603953958">
        <ele>449.5537109375</ele>
        <time>2004-04-03T10:22:08Z</time>
      </trkpt>
      <trkpt lat="44.090047683566809" lon="10.4651855584234">
        <ele>450.034423828125</ele>
        <time>2004-04-03T10:22:14Z</time>
      </trkpt>
      <trkpt lat="44.09008925780654" lon="10.465298211202025">
        <ele>450.5150146484375</ele>
        <time>2004-04-03T10:22:19Z</time>
      </trkpt>
      <trkpt lat="44.09012395888567" lon="10.465419832617044">
        <ele>451.476318359375</ele>
        <time>2004-04-03T10:22:24Z</time>
      </trkpt>
      <trkpt lat="44.090176681056619" lon="10.465540699660778">
        <ele>451.95703125</ele>
        <time>2004-04-03T10:22:29Z</time>
      </trkpt>
      <trkpt lat="44.090238371863961" lon="10.465656286105514">
        <ele>452.918212890625</ele>
        <time>2004-04-03T10:22:35Z</time>
      </trkpt>
      <trkpt lat="44.09036778844893" lon="10.465728202834725">
        <ele>450.99560546875</ele>
        <time>2004-04-03T10:23:19Z</time>
      </trkpt>
      <trkpt lat="44.090416990220547" lon="10.465847225859761">
        <ele>450.99560546875</ele>
        <time>2004-04-03T10:23:23Z</time>
      </trkpt>
      <trkpt lat="44.09049142152071" lon="10.465934816747904">
        <ele>450.99560546875</ele>
        <time>2004-04-03T10:23:26Z</time>
      </trkpt>
      <trkpt lat="44.090564344078302" lon="10.466022156178951">
        <ele>450.99560546875</ele>
        <time>2004-04-03T10:23:29Z</time>
      </trkpt>
      <trkpt lat="44.090640367940068" lon="10.466111758723855">
        <ele>451.476318359375</ele>
        <time>2004-04-03T10:23:32Z</time>
      </trkpt>
      <trkpt lat="44.090711278840899" lon="10.466209407895803">
        <ele>450.99560546875</ele>
        <time>2004-04-03T10:23:35Z</time>
      </trkpt>
      <trkpt lat="44.09077238291502" lon="10.466328179463744">
        <ele>451.476318359375</ele>
        <time>2004-04-03T10:23:38Z</time>
      </trkpt>
      <trkpt lat="44.09083005040884" lon="10.466465139761567">
        <ele>450.99560546875</ele>
        <time>2004-04-03T10:23:41Z</time>
      </trkpt>
      <trkpt lat="44.090892495587468" lon="10.466593215242028">
        <ele>450.99560546875</ele>
        <time>2004-04-03T10:23:44Z</time>
      </trkpt>
      <trkpt lat="44.090960640460253" lon="10.466717602685094">
        <ele>450.034423828125</ele>
        <time>2004-04-03T10:23:47Z</time>
      </trkpt>
      <trkpt lat="44.091040939092636" lon="10.466846935451031">
        <ele>450.034423828125</ele>
        <time>2004-04-03T10:23:50Z</time>
      </trkpt>
      <trkpt lat="44.091085446998477" lon="10.466991858556867">
        <ele>450.034423828125</ele>
        <time>2004-04-03T10:23:53Z</time>
      </trkpt>
      <trkpt lat="44.091110844165087" lon="10.46713569201529">
        <ele>450.034423828125</ele>
        <time>2004-04-03T10:23:56Z</time>
      </trkpt>
      <trkpt lat="44.091117801144719" lon="10.467268964275718">
        <ele>450.034423828125</ele>
        <time>2004-04-03T10:23:59Z</time>
      </trkpt>
      <trkpt lat="44.091127021238208" lon="10.467397458851337">
        <ele>450.034423828125</ele>
        <time>2004-04-03T10:24:02Z</time>
      </trkpt>
      <trkpt lat="44.091189298778772" lon="10.467475997284055">
        <ele>450.034423828125</ele>
        <time>2004-04-03T10:24:05Z</time>
      </trkpt>
      <trkpt lat="44.091283762827516" lon="10.467542381957173">
        <ele>450.034423828125</ele>
        <time>2004-04-03T10:24:08Z</time>
      </trkpt>
      <trkpt lat="44.091372778639197" lon="10.467619998380542">
        <ele>449.5537109375</ele>
        <time>2004-04-03T10:24:11Z</time>
      </trkpt>
      <trkpt lat="44.091458357870579" lon="10.467518912628293">
        <ele>450.034423828125</ele>
        <time>2004-04-03T10:24:15Z</time>
      </trkpt>
      <trkpt lat="44.091519545763731" lon="10.467378264293075">
        <ele>450.034423828125</ele>
        <time>2004-04-03T10:24:20Z</time>
      </trkpt>
      <trkpt lat="44.09160302951932" lon="10.467286314815283">
        <ele>449.5537109375</ele>
        <time>2004-04-03T10:24:24Z</time>
      </trkpt>
      <trkpt lat="44.091696487739682" lon="10.467280950397253">
        <ele>449.5537109375</ele>
        <time>2004-04-03T10:24:28Z</time>
      </trkpt>
      <trkpt lat="44.091814002022147" lon="10.46730131842196">
        <ele>451.476318359375</ele>
        <time>2004-04-03T10:24:33Z</time>
      </trkpt>
      <trkpt lat="44.091915423050523" lon="10.46730425208807">
        <ele>452.918212890625</ele>
        <time>2004-04-03T10:24:38Z</time>
      </trkpt>
      <trkpt lat="44.092017514631152" lon="10.467256223782897">
        <ele>453.879638671875</ele>
        <time>2004-04-03T10:24:43Z</time>
      </trkpt>
      <trkpt lat="44.092118851840496" lon="10.46718749217689">
        <ele>453.879638671875</ele>
        <time>2004-04-03T10:24:47Z</time>
      </trkpt>
      <trkpt lat="44.092203425243497" lon="10.467235101386905">
        <ele>453.879638671875</ele>
        <time>2004-04-03T10:24:50Z</time>
      </trkpt>
      <trkpt lat="44.092281712219119" lon="10.467310203239322">
        <ele>453.879638671875</ele>
        <time>2004-04-03T10:24:53Z</time>
      </trkpt>
      <trkpt lat="44.092362178489566" lon="10.467450097203255">
        <ele>453.39892578125</ele>
        <time>2004-04-03T10:24:57Z</time>
      </trkpt>
      <trkpt lat="44.092446081340313" lon="10.467555960640311">
        <ele>453.39892578125</ele>
        <time>2004-04-03T10:25:00Z</time>
      </trkpt>
      <trkpt lat="44.092523530125618" lon="10.467686466872692">
        <ele>451.476318359375</ele>
        <time>2004-04-03T10:25:29Z</time>
      </trkpt>
      <trkpt lat="44.09255932085216" lon="10.467825103551149">
        <ele>450.034423828125</ele>
        <time>2004-04-03T10:25:35Z</time>
      </trkpt>
      <trkpt lat="44.092605421319604" lon="10.467942617833614">
        <ele>447.1502685546875</ele>
        <time>2004-04-03T10:25:40Z</time>
      </trkpt>
      <trkpt lat="44.092661663889885" lon="10.468072621151805">
        <ele>446.669677734375</ele>
        <time>2004-04-03T10:25:46Z</time>
      </trkpt>
      <trkpt lat="44.092736011371017" lon="10.468173371627927">
        <ele>445.7083740234375</ele>
        <time>2004-04-03T10:25:50Z</time>
      </trkpt>
      <trkpt lat="44.092818908393383" lon="10.468282420188189">
        <ele>443.7857666015625</ele>
        <time>2004-04-03T10:25:54Z</time>
      </trkpt>
      <trkpt lat="44.09287347458303" lon="10.468394570052624">
        <ele>442.824462890625</ele>
        <time>2004-04-03T10:25:57Z</time>
      </trkpt>
      <trkpt lat="44.092925945296884" lon="10.468519795686007">
        <ele>442.3438720703125</ele>
        <time>2004-04-03T10:26:00Z</time>
      </trkpt>
      <trkpt lat="44.092958550900221" lon="10.468661785125732">
        <ele>443.3050537109375</ele>
        <time>2004-04-03T10:26:04Z</time>
      </trkpt>
      <trkpt lat="44.092991575598717" lon="10.468823807314038">
        <ele>444.7470703125</ele>
        <time>2004-04-03T10:26:10Z</time>
      </trkpt>
      <trkpt lat="44.093023678287864" lon="10.468959929421544">
        <ele>445.2276611328125</ele>
        <time>2004-04-03T10:26:15Z</time>
      </trkpt>
      <trkpt lat="44.09305963665247" lon="10.469109294936061">
        <ele>446.669677734375</ele>
        <time>2004-04-03T10:26:21Z</time>
      </trkpt>
      <trkpt lat="44.093104563653469" lon="10.469251032918692">
        <ele>447.6309814453125</ele>
        <time>2004-04-03T10:26:26Z</time>
      </trkpt>
      <trkpt lat="44.093158459290862" lon="10.469390759244561">
        <ele>448.5924072265625</ele>
        <time>2004-04-03T10:26:31Z</time>
      </trkpt>
      <trkpt lat="44.093217300251126" lon="10.469524366781116">
        <ele>449.072998046875</ele>
        <time>2004-04-03T10:26:36Z</time>
      </trkpt>
      <trkpt lat="44.093287959694862" lon="10.469643138349056">
        <ele>449.5537109375</ele>
        <time>2004-04-03T10:26:41Z</time>
      </trkpt>
      <trkpt lat="44.093364654108882" lon="10.469754785299301">
        <ele>450.5150146484375</ele>
        <time>2004-04-03T10:26:46Z</time>
      </trkpt>
      <trkpt lat="44.093437660485506" lon="10.469858720898628">
        <ele>450.99560546875</ele>
        <time>2004-04-03T10:26:51Z</time>
      </trkpt>
      <trkpt lat="44.093487616628408" lon="10.469992328435183">
        <ele>451.95703125</ele>
        <time>2004-04-03T10:26:56Z</time>
      </trkpt>
      <trkpt lat="44.093527598306537" lon="10.470108920708299">
        <ele>451.476318359375</ele>
        <time>2004-04-03T10:27:00Z</time>
      </trkpt>
      <trkpt lat="44.093569843098521" lon="10.470229368656874">
        <ele>452.4376220703125</ele>
        <time>2004-04-03T10:27:04Z</time>
      </trkpt>
      <trkpt lat="44.093611249700189" lon="10.470374543219805">
        <ele>452.918212890625</ele>
        <time>2004-04-03T10:27:09Z</time>
      </trkpt>
      <trkpt lat="44.093584846705198" lon="10.470512844622135">
        <ele>452.4376220703125</ele>
        <time>2004-04-03T10:27:14Z</time>
      </trkpt>
      <trkpt lat="44.093601778149605" lon="10.470645278692245">
        <ele>453.39892578125</ele>
        <time>2004-04-03T10:27:19Z</time>
      </trkpt>
      <trkpt lat="44.093667073175311" lon="10.470769833773375">
        <ele>453.879638671875</ele>
        <time>2004-04-03T10:27:25Z</time>
      </trkpt>
      <trkpt lat="44.093738067895174" lon="10.470868404954672">
        <ele>454.3602294921875</ele>
        <time>2004-04-03T10:27:31Z</time>
      </trkpt>
      <trkpt lat="44.093796825036407" lon="10.47098902054131">
        <ele>454.8408203125</ele>
        <time>2004-04-03T10:27:38Z</time>
      </trkpt>
      <trkpt lat="44.093879973515868" lon="10.471112821251154">
        <ele>454.8408203125</ele>
        <time>2004-04-03T10:27:46Z</time>
      </trkpt>
      <trkpt lat="44.093952560797334" lon="10.47122941352427">
        <ele>455.80224609375</ele>
        <time>2004-04-03T10:27:53Z</time>
      </trkpt>
      <trkpt lat="44.094008216634393" lon="10.471342317759991">
        <ele>455.321533203125</ele>
        <time>2004-04-03T10:27:59Z</time>
      </trkpt>
      <trkpt lat="44.094195384532213" lon="10.471434770151973">
        <ele>454.8408203125</ele>
        <time>2004-04-03T10:28:34Z</time>
      </trkpt>
      <trkpt lat="44.094288758933544" lon="10.471433345228434">
        <ele>456.7635498046875</ele>
        <time>2004-04-03T10:28:44Z</time>
      </trkpt>
      <trkpt lat="44.094290854409337" lon="10.471270652487874">
        <ele>458.6861572265625</ele>
        <time>2004-04-03T10:28:55Z</time>
      </trkpt>
      <trkpt lat="44.094266798347235" lon="10.471124891191721">
        <ele>459.6475830078125</ele>
        <time>2004-04-03T10:29:03Z</time>
      </trkpt>
      <trkpt lat="44.094276856631041" lon="10.470968401059508">
        <ele>460.128173828125</ele>
        <time>2004-04-03T10:29:12Z</time>
      </trkpt>
      <trkpt lat="44.094311641529202" lon="10.470830351114273">
        <ele>461.5701904296875</ele>
        <time>2004-04-03T10:29:20Z</time>
      </trkpt>
      <trkpt lat="44.09435598179698" lon="10.470702946186066">
        <ele>462.05078125</ele>
        <time>2004-04-03T10:29:29Z</time>
      </trkpt>
      <trkpt lat="44.094415493309498" lon="10.470558190718293">
        <ele>462.05078125</ele>
        <time>2004-04-03T10:32:12Z</time>
      </trkpt>
      <trkpt lat="44.094475843012333" lon="10.470482669770718">
        <ele>463.4927978515625</ele>
        <time>2004-04-03T10:32:21Z</time>
      </trkpt>
      <trkpt lat="44.09451917745173" lon="10.470369765534997">
        <ele>464.4541015625</ele>
        <time>2004-04-03T10:32:39Z</time>
      </trkpt>
      <trkpt lat="44.094576090574265" lon="10.470286784693599">
        <ele>466.376708984375</ele>
        <time>2004-04-03T10:32:47Z</time>
      </trkpt>
      <trkpt lat="44.094627220183611" lon="10.470155272632837">
        <ele>466.376708984375</ele>
        <time>2004-04-03T10:32:52Z</time>
      </trkpt>
      <trkpt lat="44.094664184376597" lon="10.470011858269572">
        <ele>465.8961181640625</ele>
        <time>2004-04-03T10:32:56Z</time>
      </trkpt>
      <trkpt lat="44.094689078629017" lon="10.46986810863018">
        <ele>465.8961181640625</ele>
        <time>2004-04-03T10:33:01Z</time>
      </trkpt>
      <trkpt lat="44.094743141904473" lon="10.469756042584777">
        <ele>465.8961181640625</ele>
        <time>2004-04-03T10:33:08Z</time>
      </trkpt>
      <trkpt lat="44.09481187351048" lon="10.469664260745049">
        <ele>468.29931640625</ele>
        <time>2004-04-03T10:33:17Z</time>
      </trkpt>
      <trkpt lat="44.094844227656722" lon="10.469539621844888">
        <ele>470.70263671875</ele>
        <time>2004-04-03T10:33:28Z</time>
      </trkpt>
      <trkpt lat="44.094851100817323" lon="10.469404254108667">
        <ele>471.6639404296875</ele>
        <time>2004-04-03T10:33:38Z</time>
      </trkpt>
      <trkpt lat="44.094882952049375" lon="10.46929151751101">
        <ele>474.0672607421875</ele>
        <time>2004-04-03T10:33:49Z</time>
      </trkpt>
      <trkpt lat="44.094955455511808" lon="10.469193113967776">
        <ele>476.9512939453125</ele>
        <time>2004-04-03T10:34:00Z</time>
      </trkpt>
      <trkpt lat="44.094993257895112" lon="10.469081467017531">
        <ele>478.8739013671875</ele>
        <time>2004-04-03T10:34:11Z</time>
      </trkpt>
      <trkpt lat="44.095036424696445" lon="10.468952218070626">
        <ele>478.8739013671875</ele>
        <time>2004-04-03T10:34:20Z</time>
      </trkpt>
      <trkpt lat="44.095088057219982" lon="10.468834703788161">
        <ele>479.3544921875</ele>
        <time>2004-04-03T10:34:25Z</time>
      </trkpt>
      <trkpt lat="44.095103228464723" lon="10.468685086816549">
        <ele>479.8350830078125</ele>
        <time>2004-04-03T10:34:31Z</time>
      </trkpt>
      <trkpt lat="44.095097444951534" lon="10.468570254743099">
        <ele>479.3544921875</ele>
        <time>2004-04-03T10:34:36Z</time>
      </trkpt>
      <trkpt lat="44.095065761357546" lon="10.46843153424561">
        <ele>477.9124755859375</ele>
        <time>2004-04-03T10:34:41Z</time>
      </trkpt>
      <trkpt lat="44.095000801607966" lon="10.468318210914731">
        <ele>475.0286865234375</ele>
        <time>2004-04-03T10:34:44Z</time>
      </trkpt>
      <trkpt lat="44.094962328672409" lon="10.468194996938109">
        <ele>472.6253662109375</ele>
        <time>2004-04-03T10:34:48Z</time>
      </trkpt>
      <trkpt lat="44.094937182962894" lon="10.468043871223927">
        <ele>472.6253662109375</ele>
        <time>2004-04-03T10:34:53Z</time>
      </trkpt>
      <trkpt lat="44.094941290095448" lon="10.467913867905736">
        <ele>473.586669921875</ele>
        <time>2004-04-03T10:34:58Z</time>
      </trkpt>
      <trkpt lat="44.09498194232583" lon="10.467783026397228">
        <ele>474.5479736328125</ele>
        <time>2004-04-03T10:35:03Z</time>
      </trkpt>
      <trkpt lat="44.095025528222322" lon="10.46763701364398">
        <ele>474.5479736328125</ele>
        <time>2004-04-03T10:35:07Z</time>
      </trkpt>
      <trkpt lat="44.095071796327829" lon="10.467511955648661">
        <ele>474.5479736328125</ele>
        <time>2004-04-03T10:35:10Z</time>
      </trkpt>
      <trkpt lat="44.095122925937176" lon="10.467363093048334">
        <ele>474.0672607421875</ele>
        <time>2004-04-03T10:35:13Z</time>
      </trkpt>
      <trkpt lat="44.095136588439345" lon="10.467190258204937">
        <ele>474.0672607421875</ele>
        <time>2004-04-03T10:35:16Z</time>
      </trkpt>
      <trkpt lat="44.095122674480081" lon="10.467030331492424">
        <ele>473.1060791015625</ele>
        <time>2004-04-03T10:35:19Z</time>
      </trkpt>
      <trkpt lat="44.095106413587928" lon="10.466854646801949">
        <ele>471.6639404296875</ele>
        <time>2004-04-03T10:35:22Z</time>
      </trkpt>
      <trkpt lat="44.095139522105455" lon="10.466686924919486">
        <ele>471.6639404296875</ele>
        <time>2004-04-03T10:35:25Z</time>
      </trkpt>
      <trkpt lat="44.095192579552531" lon="10.466541247442365">
        <ele>471.183349609375</ele>
        <time>2004-04-03T10:35:28Z</time>
      </trkpt>
      <trkpt lat="44.095215043053031" lon="10.466395821422338">
        <ele>471.6639404296875</ele>
        <time>2004-04-03T10:35:31Z</time>
      </trkpt>
      <trkpt lat="44.095246978104115" lon="10.466259364038706">
        <ele>471.6639404296875</ele>
        <time>2004-04-03T10:35:35Z</time>
      </trkpt>
      <trkpt lat="44.095229208469391" lon="10.46617261134088">
        <ele>470.70263671875</ele>
        <time>2004-04-03T10:35:41Z</time>
      </trkpt>
      <trkpt lat="44.095101049169898" lon="10.466087283566594">
        <ele>466.376708984375</ele>
        <time>2004-04-03T10:36:09Z</time>
      </trkpt>
      <trkpt lat="44.095005411654711" lon="10.466022659093142">
        <ele>465.8961181640625</ele>
        <time>2004-04-03T10:36:12Z</time>
      </trkpt>
      <trkpt lat="44.09490616992116" lon="10.465932972729206">
        <ele>463.4927978515625</ele>
        <time>2004-04-03T10:36:16Z</time>
      </trkpt>
      <trkpt lat="44.094818830490112" lon="10.465861139819026">
        <ele>461.5701904296875</ele>
        <time>2004-04-03T10:36:19Z</time>
      </trkpt>
      <trkpt lat="44.094739370048046" lon="10.465788803994656">
        <ele>460.128173828125</ele>
        <time>2004-04-03T10:36:22Z</time>
      </trkpt>
      <trkpt lat="44.094658400863409" lon="10.46571965329349">
        <ele>458.20556640625</ele>
        <time>2004-04-03T10:36:25Z</time>
      </trkpt>
      <trkpt lat="44.094578521326184" lon="10.465653100982308">
        <ele>458.20556640625</ele>
        <time>2004-04-03T10:36:28Z</time>
      </trkpt>
      <trkpt lat="44.094483302906156" lon="10.465578502044082">
        <ele>456.282958984375</ele>
        <time>2004-04-03T10:36:32Z</time>
      </trkpt>
      <trkpt lat="44.094388503581285" lon="10.465498706325889">
        <ele>452.4376220703125</ele>
        <time>2004-04-03T10:36:36Z</time>
      </trkpt>
      <trkpt lat="44.09431298263371" lon="10.46542159281671">
        <ele>450.034423828125</ele>
        <time>2004-04-03T10:36:39Z</time>
      </trkpt>
      <trkpt lat="44.094227738678455" lon="10.465288069099188">
        <ele>448.5924072265625</ele>
        <time>2004-04-03T10:36:42Z</time>
      </trkpt>
      <trkpt lat="44.094138974323869" lon="10.465145325288177">
        <ele>445.7083740234375</ele>
        <time>2004-04-03T10:36:45Z</time>
      </trkpt>
      <trkpt lat="44.094081306830049" lon="10.465047843754292">
        <ele>445.2276611328125</ele>
        <time>2004-04-03T10:36:47Z</time>
      </trkpt>
      <trkpt lat="44.093992710113525" lon="10.464904010295868">
        <ele>444.2664794921875</ele>
        <time>2004-04-03T10:36:50Z</time>
      </trkpt>
      <trkpt lat="44.09388248808682" lon="10.464770151302218">
        <ele>441.8631591796875</ele>
        <time>2004-04-03T10:36:53Z</time>
      </trkpt>
      <trkpt lat="44.093793807551265" lon="10.464684991165996">
        <ele>439.9404296875</ele>
        <time>2004-04-03T10:36:55Z</time>
      </trkpt>
      <trkpt lat="44.093697918578982" lon="10.4646036028862">
        <ele>438.9791259765625</ele>
        <time>2004-04-03T10:36:57Z</time>
      </trkpt>
      <trkpt lat="44.093597503378987" lon="10.464524142444134">
        <ele>437.537109375</ele>
        <time>2004-04-03T10:36:59Z</time>
      </trkpt>
      <trkpt lat="44.093509996309876" lon="10.464437725022435">
        <ele>436.575927734375</ele>
        <time>2004-04-03T10:37:01Z</time>
      </trkpt>
      <trkpt lat="44.093421064317226" lon="10.464324317872524">
        <ele>435.614501953125</ele>
        <time>2004-04-03T10:37:03Z</time>
      </trkpt>
      <trkpt lat="44.093345627188683" lon="10.464206384494901">
        <ele>434.6533203125</ele>
        <time>2004-04-03T10:37:05Z</time>
      </trkpt>
      <trkpt lat="44.093285026028752" lon="10.464092139154673">
        <ele>433.69189453125</ele>
        <time>2004-04-03T10:37:07Z</time>
      </trkpt>
      <trkpt lat="44.093288378790021" lon="10.463956017047167">
        <ele>430.8079833984375</ele>
        <time>2004-04-03T10:37:25Z</time>
      </trkpt>
      <trkpt lat="44.09321160055697" lon="10.463760467246175">
        <ele>426.9627685546875</ele>
        <time>2004-04-03T10:37:57Z</time>
      </trkpt>
      <trkpt lat="44.093118393793702" lon="10.463665584102273">
        <ele>423.5980224609375</ele>
        <time>2004-04-03T10:38:02Z</time>
      </trkpt>
      <trkpt lat="44.093024181202054" lon="10.463589308783412">
        <ele>420.2333984375</ele>
        <time>2004-04-03T10:38:06Z</time>
      </trkpt>
      <trkpt lat="44.092916138470173" lon="10.463561732321978">
        <ele>416.868896484375</ele>
        <time>2004-04-03T10:38:13Z</time>
      </trkpt>
      <trkpt lat="44.092924939468503" lon="10.46370548196137">
        <ele>412.5428466796875</ele>
        <time>2004-04-03T10:38:19Z</time>
      </trkpt>
      <trkpt lat="44.092844137921929" lon="10.463724257424474">
        <ele>410.6202392578125</ele>
        <time>2004-04-03T10:38:23Z</time>
      </trkpt>
      <trkpt lat="44.092762330546975" lon="10.46365711838007">
        <ele>410.1396484375</ele>
        <time>2004-04-03T10:38:26Z</time>
      </trkpt>
      <trkpt lat="44.092697622254491" lon="10.463535329326987">
        <ele>410.6202392578125</ele>
        <time>2004-04-03T10:38:30Z</time>
      </trkpt>
      <trkpt lat="44.092680187895894" lon="10.463392334058881">
        <ele>409.6590576171875</ele>
        <time>2004-04-03T10:38:35Z</time>
      </trkpt>
      <trkpt lat="44.092656718567014" lon="10.463278256356716">
        <ele>408.6976318359375</ele>
        <time>2004-04-03T10:38:40Z</time>
      </trkpt>
      <trkpt lat="44.092623610049486" lon="10.463132075965405">
        <ele>408.217041015625</ele>
        <time>2004-04-03T10:38:46Z</time>
      </trkpt>
      <trkpt lat="44.092662334442139" lon="10.463010957464576">
        <ele>408.217041015625</ele>
        <time>2004-04-03T10:38:54Z</time>
      </trkpt>
      <trkpt lat="44.092691084370017" lon="10.462884390726686">
        <ele>408.6976318359375</ele>
        <time>2004-04-03T10:39:00Z</time>
      </trkpt>
      <trkpt lat="44.092723941430449" lon="10.462791100144386">
        <ele>402.4490966796875</ele>
        <time>2004-04-03T10:39:28Z</time>
      </trkpt>
      <trkpt lat="44.092698711901903" lon="10.462666712701321">
        <ele>399.5650634765625</ele>
        <time>2004-04-03T10:39:40Z</time>
      </trkpt>
      <trkpt lat="44.092781022191048" lon="10.462525812909007">
        <ele>398.1231689453125</ele>
        <time>2004-04-03T10:39:52Z</time>
      </trkpt>
      <trkpt lat="44.092834666371346" lon="10.462449537590146">
        <ele>397.1617431640625</ele>
        <time>2004-04-03T10:40:01Z</time>
      </trkpt>
      <trkpt lat="44.092757552862167" lon="10.462358174845576">
        <ele>394.2779541015625</ele>
        <time>2004-04-03T10:40:07Z</time>
      </trkpt>
      <trkpt lat="44.092666525393724" lon="10.462399749085307">
        <ele>392.3553466796875</ele>
        <time>2004-04-03T10:40:11Z</time>
      </trkpt>
      <trkpt lat="44.092559656128287" lon="10.462423888966441">
        <ele>390.4326171875</ele>
        <time>2004-04-03T10:40:15Z</time>
      </trkpt>
      <trkpt lat="44.092462258413434" lon="10.462471749633551">
        <ele>387.548583984375</ele>
        <time>2004-04-03T10:40:19Z</time>
      </trkpt>
      <trkpt lat="44.092383971437812" lon="10.462536038830876">
        <ele>384.18408203125</ele>
        <time>2004-04-03T10:40:24Z</time>
      </trkpt>
      <trkpt lat="44.092305852100253" lon="10.462633604183793">
        <ele>383.22265625</ele>
        <time>2004-04-03T10:40:29Z</time>
      </trkpt>
      <trkpt lat="44.092238880693913" lon="10.462729912251234">
        <ele>380.3387451171875</ele>
        <time>2004-04-03T10:40:34Z</time>
      </trkpt>
      <trkpt lat="44.092173501849174" lon="10.462834099307656">
        <ele>379.37744140625</ele>
        <time>2004-04-03T10:40:39Z</time>
      </trkpt>
      <trkpt lat="44.09210342913866" lon="10.462940381839871">
        <ele>376.4935302734375</ele>
        <time>2004-04-03T10:40:44Z</time>
      </trkpt>
      <trkpt lat="44.092025980353355" lon="10.463022189214826">
        <ele>375.051513671875</ele>
        <time>2004-04-03T10:40:49Z</time>
      </trkpt>
      <trkpt lat="44.09194853156805" lon="10.46310399658978">
        <ele>374.090087890625</ele>
        <time>2004-04-03T10:40:54Z</time>
      </trkpt>
      <trkpt lat="44.091870998963714" lon="10.463185803964734">
        <ele>370.7255859375</ele>
        <time>2004-04-03T10:40:59Z</time>
      </trkpt>
      <trkpt lat="44.091793550178409" lon="10.463267611339688">
        <ele>369.28369140625</ele>
        <time>2004-04-03T10:41:04Z</time>
      </trkpt>
      <trkpt lat="44.091716101393104" lon="10.463349418714643">
        <ele>365.9189453125</ele>
        <time>2004-04-03T10:41:09Z</time>
      </trkpt>
      <trkpt lat="44.092060262337327" lon="10.461704386398196">
        <ele>363.0350341796875</ele>
        <time>2004-04-03T10:41:22Z</time>
      </trkpt>
      <trkpt lat="44.092226894572377" lon="10.461968835443258">
        <ele>362.5543212890625</ele>
        <time>2004-04-03T10:41:40Z</time>
      </trkpt>
      <trkpt lat="44.092212812975049" lon="10.461741602048278">
        <ele>356.786376953125</ele>
        <time>2004-04-03T10:41:51Z</time>
      </trkpt>
      <trkpt lat="44.092193618416786" lon="10.461595421656966">
        <ele>352.941162109375</ele>
        <time>2004-04-03T10:42:05Z</time>
      </trkpt>
      <trkpt lat="44.092120612040162" lon="10.461538340896368">
        <ele>348.615234375</ele>
        <time>2004-04-03T10:42:27Z</time>
      </trkpt>
      <trkpt lat="44.092046264559031" lon="10.461335331201553">
        <ele>340.444091796875</ele>
        <time>2004-04-03T10:42:55Z</time>
      </trkpt>
      <trkpt lat="44.091940233483911" lon="10.46127263456583">
        <ele>339.0020751953125</ele>
        <time>2004-04-03T10:43:08Z</time>
      </trkpt>
      <trkpt lat="44.091892205178738" lon="10.461089825257659">
        <ele>336.598876953125</ele>
        <time>2004-04-03T10:43:26Z</time>
      </trkpt>
      <trkpt lat="44.091839147731662" lon="10.460941214114428">
        <ele>335.6373291015625</ele>
        <time>2004-04-03T10:43:34Z</time>
      </trkpt>
      <trkpt lat="44.091856749728322" lon="10.461004497483373">
        <ele>332.2728271484375</ele>
        <time>2004-04-03T10:43:47Z</time>
      </trkpt>
      <trkpt lat="44.091859851032495" lon="10.461153946816921">
        <ele>330.8309326171875</ele>
        <time>2004-04-03T10:43:53Z</time>
      </trkpt>
      <trkpt lat="44.09185373224318" lon="10.461290823295712">
        <ele>328.9083251953125</ele>
        <time>2004-04-03T10:43:58Z</time>
      </trkpt>
      <trkpt lat="44.091847026720643" lon="10.461432980373502">
        <ele>328.4276123046875</ele>
        <time>2004-04-03T10:44:02Z</time>
      </trkpt>
      <trkpt lat="44.091844344511628" lon="10.46157949604094">
        <ele>326.5048828125</ele>
        <time>2004-04-03T10:44:06Z</time>
      </trkpt>
      <trkpt lat="44.091807045042515" lon="10.461760209873319">
        <ele>323.6209716796875</ele>
        <time>2004-04-03T10:44:10Z</time>
      </trkpt>
      <trkpt lat="44.091755831614137" lon="10.461896164342761">
        <ele>321.2177734375</ele>
        <time>2004-04-03T10:44:14Z</time>
      </trkpt>
      <trkpt lat="44.091687016189098" lon="10.462032370269299">
        <ele>318.8143310546875</ele>
        <time>2004-04-03T10:44:18Z</time>
      </trkpt>
      <trkpt lat="44.091627923771739" lon="10.462141670286655">
        <ele>316.8917236328125</ele>
        <time>2004-04-03T10:44:22Z</time>
      </trkpt>
      <trkpt lat="44.091577045619488" lon="10.462274188175797">
        <ele>314.4884033203125</ele>
        <time>2004-04-03T10:44:26Z</time>
      </trkpt>
      <trkpt lat="44.091520803049207" lon="10.462401509284973">
        <ele>313.5272216796875</ele>
        <time>2004-04-03T10:44:30Z</time>
      </trkpt>
      <trkpt lat="44.091464141383767" lon="10.46251860447228">
        <ele>313.0465087890625</ele>
        <time>2004-04-03T10:44:34Z</time>
      </trkpt>
      <trkpt lat="44.091412257403135" lon="10.462629413232207">
        <ele>314.0078125</ele>
        <time>2004-04-03T10:44:39Z</time>
      </trkpt>
      <trkpt lat="44.091356433928013" lon="10.462730079889297">
        <ele>313.5272216796875</ele>
        <time>2004-04-03T10:44:45Z</time>
      </trkpt>
      <trkpt lat="44.09129960462451" lon="10.462819766253233">
        <ele>313.0465087890625</ele>
        <time>2004-04-03T10:44:52Z</time>
      </trkpt>
      <trkpt lat="44.091327684000134" lon="10.462647769600153">
        <ele>314.0078125</ele>
        <time>2004-04-03T10:45:04Z</time>
      </trkpt>
      <trkpt lat="44.091326761990786" lon="10.462442077696323">
        <ele>314.9691162109375</ele>
        <time>2004-04-03T10:45:16Z</time>
      </trkpt>
      <trkpt lat="44.091295497491956" lon="10.462245019152761">
        <ele>317.3724365234375</ele>
        <time>2004-04-03T10:45:27Z</time>
      </trkpt>
      <trkpt lat="44.091241518035531" lon="10.462082074955106">
        <ele>318.8143310546875</ele>
        <time>2004-04-03T10:45:37Z</time>
      </trkpt>
      <trkpt lat="44.091185443103313" lon="10.461935391649604">
        <ele>320.737060546875</ele>
        <time>2004-04-03T10:45:48Z</time>
      </trkpt>
      <trkpt lat="44.091094667091966" lon="10.461816368624568">
        <ele>323.140380859375</ele>
        <time>2004-04-03T10:46:02Z</time>
      </trkpt>
      <trkpt lat="44.091008249670267" lon="10.461719725281">
        <ele>324.582275390625</ele>
        <time>2004-04-03T10:46:13Z</time>
      </trkpt>
      <trkpt lat="44.090876905247569" lon="10.461586704477668">
        <ele>326.024169921875</ele>
        <time>2004-04-03T10:46:45Z</time>
      </trkpt>
      <trkpt lat="44.09079191274941" lon="10.461482852697372">
        <ele>327.4661865234375</ele>
        <time>2004-04-03T10:47:01Z</time>
      </trkpt>
      <trkpt lat="44.089738726615906" lon="10.460144514217973">
        <ele>319.775634765625</ele>
        <time>2004-04-03T10:47:50Z</time>
      </trkpt>
      <trkpt lat="44.089530520141125" lon="10.459625339135528">
        <ele>321.6983642578125</ele>
        <time>2004-04-03T10:48:18Z</time>
      </trkpt>
      <trkpt lat="44.089464386925101" lon="10.459463819861412">
        <ele>322.65966796875</ele>
        <time>2004-04-03T10:48:31Z</time>
      </trkpt>
      <trkpt lat="44.089398086071014" lon="10.459289811551571">
        <ele>325.5435791015625</ele>
        <time>2004-04-03T10:48:40Z</time>
      </trkpt>
      <trkpt lat="44.089329605922103" lon="10.459131393581629">
        <ele>327.94677734375</ele>
        <time>2004-04-03T10:48:49Z</time>
      </trkpt>
      <trkpt lat="44.089238326996565" lon="10.458974400535226">
        <ele>328.4276123046875</ele>
        <time>2004-04-03T10:48:58Z</time>
      </trkpt>
      <trkpt lat="44.089113185182214" lon="10.458874152973294">
        <ele>327.94677734375</ele>
        <time>2004-04-03T10:49:04Z</time>
      </trkpt>
      <trkpt lat="44.088978907093406" lon="10.458914805203676">
        <ele>326.985595703125</ele>
        <time>2004-04-03T10:49:09Z</time>
      </trkpt>
      <trkpt lat="44.088880168274045" lon="10.458951937034726">
        <ele>326.5048828125</ele>
        <time>2004-04-03T10:49:13Z</time>
      </trkpt>
      <trkpt lat="44.088765420019627" lon="10.458988146856427">
        <ele>326.5048828125</ele>
        <time>2004-04-03T10:49:17Z</time>
      </trkpt>
      <trkpt lat="44.088657461106777" lon="10.459007089957595">
        <ele>326.5048828125</ele>
        <time>2004-04-03T10:49:21Z</time>
      </trkpt>
      <trkpt lat="44.088545059785247" lon="10.459027122706175">
        <ele>326.985595703125</ele>
        <time>2004-04-03T10:49:25Z</time>
      </trkpt>
      <trkpt lat="44.08840642310679" lon="10.459021842107177">
        <ele>327.4661865234375</ele>
        <time>2004-04-03T10:49:30Z</time>
      </trkpt>
      <trkpt lat="44.088286645710468" lon="10.459024105221033">
        <ele>327.94677734375</ele>
        <time>2004-04-03T10:49:35Z</time>
      </trkpt>
      <trkpt lat="44.088167287409306" lon="10.45903081074357">
        <ele>327.94677734375</ele>
        <time>2004-04-03T10:49:41Z</time>
      </trkpt>
      <trkpt lat="44.0880605019629" lon="10.458999462425709">
        <ele>329.388916015625</ele>
        <time>2004-04-03T10:49:51Z</time>
      </trkpt>
      <trkpt lat="44.087881045415998" lon="10.459025027230382">
        <ele>328.4276123046875</ele>
        <time>2004-04-03T10:50:09Z</time>
      </trkpt>
      <trkpt lat="44.08777853474021" lon="10.459064589813352">
        <ele>328.9083251953125</ele>
        <time>2004-04-03T10:50:14Z</time>
      </trkpt>
      <trkpt lat="44.087668396532536" lon="10.459122257307172">
        <ele>328.4276123046875</ele>
        <time>2004-04-03T10:50:19Z</time>
      </trkpt>
      <trkpt lat="44.087558090686798" lon="10.459157042205334">
        <ele>328.4276123046875</ele>
        <time>2004-04-03T10:50:24Z</time>
      </trkpt>
      <trkpt lat="44.08744434826076" lon="10.45918763615191">
        <ele>328.4276123046875</ele>
        <time>2004-04-03T10:50:29Z</time>
      </trkpt>
      <trkpt lat="44.087337898090482" lon="10.459203645586967">
        <ele>327.4661865234375</ele>
        <time>2004-04-03T10:50:34Z</time>
      </trkpt>
      <trkpt lat="44.087189119309187" lon="10.459128795191646">
        <ele>324.1015625</ele>
        <time>2004-04-03T10:51:07Z</time>
      </trkpt>
      <trkpt lat="44.08701972104609" lon="10.459135500714183">
        <ele>322.178955078125</ele>
        <time>2004-04-03T10:51:29Z</time>
      </trkpt>
      <trkpt lat="44.086900195106864" lon="10.459245471283793">
        <ele>321.2177734375</ele>
        <time>2004-04-03T10:51:55Z</time>
      </trkpt>
      <trkpt lat="44.086858034133911" lon="10.459386371076107">
        <ele>320.25634765625</ele>
        <time>2004-04-03T10:51:59Z</time>
      </trkpt>
      <trkpt lat="44.086800869554281" lon="10.459542525932193">
        <ele>319.2950439453125</ele>
        <time>2004-04-03T10:52:03Z</time>
      </trkpt>
      <trkpt lat="44.086728785187006" lon="10.459672193974257">
        <ele>318.3336181640625</ele>
        <time>2004-04-03T10:52:06Z</time>
      </trkpt>
      <trkpt lat="44.08665276132524" lon="10.459786523133516">
        <ele>317.3724365234375</ele>
        <time>2004-04-03T10:52:09Z</time>
      </trkpt>
      <trkpt lat="44.086575899273157" lon="10.459895068779588">
        <ele>317.3724365234375</ele>
        <time>2004-04-03T10:52:12Z</time>
      </trkpt>
      <trkpt lat="44.086482608690858" lon="10.459999339655042">
        <ele>317.3724365234375</ele>
        <time>2004-04-03T10:52:15Z</time>
      </trkpt>
      <trkpt lat="44.08641186542809" lon="10.460087768733501">
        <ele>316.4110107421875</ele>
        <time>2004-04-03T10:52:18Z</time>
      </trkpt>
      <trkpt lat="44.086329806596041" lon="10.460160691291094">
        <ele>314.9691162109375</ele>
        <time>2004-04-03T10:52:21Z</time>
      </trkpt>
      <trkpt lat="44.086237186565995" lon="10.460192877799273">
        <ele>313.5272216796875</ele>
        <time>2004-04-03T10:52:25Z</time>
      </trkpt>
      <trkpt lat="44.086120259016752" lon="10.460152644664049">
        <ele>312.5657958984375</ele>
        <time>2004-04-03T10:52:45Z</time>
      </trkpt>
      <trkpt lat="44.086046414449811" lon="10.460097575560212">
        <ele>311.6044921875</ele>
        <time>2004-04-03T10:53:02Z</time>
      </trkpt>
      <trkpt lat="44.085948346182704" lon="10.460201846435666">
        <ele>310.64306640625</ele>
        <time>2004-04-03T10:53:16Z</time>
      </trkpt>
      <trkpt lat="44.085838291794062" lon="10.460319109261036">
        <ele>309.201171875</ele>
        <time>2004-04-03T10:53:19Z</time>
      </trkpt>
      <trkpt lat="44.085760340094566" lon="10.46041214838624">
        <ele>308.720458984375</ele>
        <time>2004-04-03T10:53:21Z</time>
      </trkpt>
      <trkpt lat="44.085682472214103" lon="10.460497476160526">
        <ele>307.75927734375</ele>
        <time>2004-04-03T10:53:23Z</time>
      </trkpt>
      <trkpt lat="44.085607454180717" lon="10.460570566356182">
        <ele>307.75927734375</ele>
        <time>2004-04-03T10:53:25Z</time>
      </trkpt>
      <trkpt lat="44.085532603785396" lon="10.460646003484726">
        <ele>306.3172607421875</ele>
        <time>2004-04-03T10:53:27Z</time>
      </trkpt>
      <trkpt lat="44.085471583530307" lon="10.460755052044988">
        <ele>305.35595703125</ele>
        <time>2004-04-03T10:53:29Z</time>
      </trkpt>
      <trkpt lat="44.085427829995751" lon="10.460912128910422">
        <ele>304.3946533203125</ele>
        <time>2004-04-03T10:53:31Z</time>
      </trkpt>
      <trkpt lat="44.085379717871547" lon="10.461071887984872">
        <ele>303.9139404296875</ele>
        <time>2004-04-03T10:53:33Z</time>
      </trkpt>
      <trkpt lat="44.085331186652184" lon="10.461226115003228">
        <ele>303.9139404296875</ele>
        <time>2004-04-03T10:53:35Z</time>
      </trkpt>
      <trkpt lat="44.085266729816794" lon="10.461355112493038">
        <ele>302.471923828125</ele>
        <time>2004-04-03T10:53:37Z</time>
      </trkpt>
      <trkpt lat="44.085182072594762" lon="10.461434992030263">
        <ele>302.9525146484375</ele>
        <time>2004-04-03T10:53:39Z</time>
      </trkpt>
      <trkpt lat="44.085100935772061" lon="10.461507244035602">
        <ele>302.471923828125</ele>
        <time>2004-04-03T10:53:41Z</time>
      </trkpt>
      <trkpt lat="44.085020888596773" lon="10.461590895429254">
        <ele>301.5106201171875</ele>
        <time>2004-04-03T10:53:43Z</time>
      </trkpt>
      <trkpt lat="44.084962718188763" lon="10.461703632026911">
        <ele>301.0299072265625</ele>
        <time>2004-04-03T10:53:45Z</time>
      </trkpt>
      <trkpt lat="44.08492298796773" lon="10.461829109117389">
        <ele>300.54931640625</ele>
        <time>2004-04-03T10:53:47Z</time>
      </trkpt>
      <trkpt lat="44.084890382364392" lon="10.461955675855279">
        <ele>300.0687255859375</ele>
        <time>2004-04-03T10:53:49Z</time>
      </trkpt>
      <trkpt lat="44.084861548617482" lon="10.462103029713035">
        <ele>300.0687255859375</ele>
        <time>2004-04-03T10:53:51Z</time>
      </trkpt>
      <trkpt lat="44.084828859195113" lon="10.462243091315031">
        <ele>299.1072998046875</ele>
        <time>2004-04-03T10:53:53Z</time>
      </trkpt>
      <trkpt lat="44.084793571382761" lon="10.462367394939065">
        <ele>297.6654052734375</ele>
        <time>2004-04-03T10:53:55Z</time>
      </trkpt>
      <trkpt lat="44.084752583876252" lon="10.462497565895319">
        <ele>296.2235107421875</ele>
        <time>2004-04-03T10:53:57Z</time>
      </trkpt>
      <trkpt lat="44.084704639390111" lon="10.462635783478618">
        <ele>294.7813720703125</ele>
        <time>2004-04-03T10:53:59Z</time>
      </trkpt>
      <trkpt lat="44.084664154797792" lon="10.462782634422183">
        <ele>293.820068359375</ele>
        <time>2004-04-03T10:54:01Z</time>
      </trkpt>
      <trkpt lat="44.084637332707644" lon="10.462937699630857">
        <ele>292.8587646484375</ele>
        <time>2004-04-03T10:54:03Z</time>
      </trkpt>
      <trkpt lat="44.084624843671918" lon="10.463108355179429">
        <ele>292.8587646484375</ele>
        <time>2004-04-03T10:54:05Z</time>
      </trkpt>
      <trkpt lat="44.084607241675258" lon="10.46327406540513">
        <ele>291.8974609375</ele>
        <time>2004-04-03T10:54:07Z</time>
      </trkpt>
      <trkpt lat="44.084590477868915" lon="10.463433489203453">
        <ele>291.8974609375</ele>
        <time>2004-04-03T10:54:09Z</time>
      </trkpt>
      <trkpt lat="44.084577737376094" lon="10.463568102568388">
        <ele>291.8974609375</ele>
        <time>2004-04-03T10:54:11Z</time>
      </trkpt>
      <trkpt lat="44.084560051560402" lon="10.463750576600432">
        <ele>291.8974609375</ele>
        <time>2004-04-03T10:54:14Z</time>
      </trkpt>
      <trkpt lat="44.084541695192456" lon="10.463920729234815">
        <ele>291.8974609375</ele>
        <time>2004-04-03T10:54:17Z</time>
      </trkpt>
      <trkpt lat="44.084511352702975" lon="10.464066239073873">
        <ele>291.8974609375</ele>
        <time>2004-04-03T10:54:20Z</time>
      </trkpt>
      <trkpt lat="44.084456535056233" lon="10.464174281805754">
        <ele>291.8974609375</ele>
        <time>2004-04-03T10:54:23Z</time>
      </trkpt>
      <trkpt lat="44.084338853135705" lon="10.464215436950326">
        <ele>290.45556640625</ele>
        <time>2004-04-03T10:54:27Z</time>
      </trkpt>
      <trkpt lat="44.084244472905993" lon="10.464239995926619">
        <ele>289.0135498046875</ele>
        <time>2004-04-03T10:54:30Z</time>
      </trkpt>
      <trkpt lat="44.084139028564095" lon="10.464279474690557">
        <ele>287.5714111328125</ele>
        <time>2004-04-03T10:54:33Z</time>
      </trkpt>
      <trkpt lat="44.084029728546739" lon="10.464321384206414">
        <ele>286.1295166015625</ele>
        <time>2004-04-03T10:54:36Z</time>
      </trkpt>
      <trkpt lat="44.083918081596494" lon="10.464356420561671">
        <ele>285.6488037109375</ele>
        <time>2004-04-03T10:54:39Z</time>
      </trkpt>
      <trkpt lat="44.083835436031222" lon="10.464389780536294">
        <ele>285.168212890625</ele>
        <time>2004-04-03T10:54:42Z</time>
      </trkpt>
      <trkpt lat="44.083740301430225" lon="10.464427918195724">
        <ele>284.2069091796875</ele>
        <time>2004-04-03T10:54:46Z</time>
      </trkpt>
      <trkpt lat="44.083641897886992" lon="10.464489189907908">
        <ele>282.2843017578125</ele>
        <time>2004-04-03T10:54:49Z</time>
      </trkpt>
      <trkpt lat="44.083536202087998" lon="10.464545348659158">
        <ele>282.2843017578125</ele>
        <time>2004-04-03T10:54:51Z</time>
      </trkpt>
      <trkpt lat="44.083416340872645" lon="10.464605279266834">
        <ele>281.322998046875</ele>
        <time>2004-04-03T10:54:53Z</time>
      </trkpt>
      <trkpt lat="44.083286169916391" lon="10.464639728888869">
        <ele>279.880859375</ele>
        <time>2004-04-03T10:54:55Z</time>
      </trkpt>
      <trkpt lat="44.083186089992523" lon="10.464644338935614">
        <ele>278.919677734375</ele>
        <time>2004-04-03T10:54:57Z</time>
      </trkpt>
      <trkpt lat="44.083122219890356" lon="10.464570242911577">
        <ele>276.03564453125</ele>
        <time>2004-04-03T10:55:00Z</time>
      </trkpt>
      <trkpt lat="44.083115849643946" lon="10.464424313977361">
        <ele>274.59375</ele>
        <time>2004-04-03T10:55:04Z</time>
      </trkpt>
      <trkpt lat="44.083167482167482" lon="10.464265309274197">
        <ele>274.113037109375</ele>
        <time>2004-04-03T10:55:08Z</time>
      </trkpt>
      <trkpt lat="44.083230011165142" lon="10.464114770293236">
        <ele>274.113037109375</ele>
        <time>2004-04-03T10:55:12Z</time>
      </trkpt>
      <trkpt lat="44.083308130502701" lon="10.463962638750672">
        <ele>271.709716796875</ele>
        <time>2004-04-03T10:57:03Z</time>
      </trkpt>
    </trkseg>
  </trk>

</gpx>
